[[{"header":{"parameterUnit":"m.s-1","parameterCategory":1,"la1":30.6,"la2":28.766,"lo1":-90.7593,"lo2":-88.6598,"dx":0.0162,"dy":0.0183,"nx":116,"ny":114,"refTime":"2023-01-31T06:00:00:Z","depth":0,"parameterNumber":2,"parameterNumberName":"U-component_of_WINDS"},"data":[0.0,0.0,0.0,0.0,0.0,0.0,0.0,0.0,0.0,0.0,0.0,0.0,0.0,0.0,0.0,0.0,0.0,0.0,0.0,0.0,0.0,0.0,0.0,0.0,0.0,0.0,0.0,0.0,0.0,0.0,0.0,0.0,0.0,0.0,0.0,0.0,0.0,0.0,0.0,0.0,0.0,0.0,0.0,0.0,0.0,0.0,0.0,0.0,0.0,0.0,0.0,0.0,0.0,0.0,0.0,0.0,0.0,0.0,0.0,0.0,0.0,0.0,0.0,0.0,0.0,0.0,0.0,0.0,0.0,0.0,0.0,0.0,0.0,0.0,0.0,0.0,0.0,0.0,0.0,0.0,0.0,0.0,0.0,0.0,0.0,0.0,0.0,0.0,0.0,0.0,0.0,0.0,0.0,0.0,0.0,0.0,0.0,0.0,0.0,0.0,0.0,0.0,0.0,0.0,0.0,0.0,0.0,0.0,0.0,0.0,0.0,0.0,0.0,0.0,0.0,0.0,0.0,0.0,0.0,0.0,0.0,0.0,0.0,0.0,0.0,0.0,0.0,0.0,0.0,0.0,0.0,0.0,0.0,0.0,0.0,0.0,0.0,0.0,0.0,0.0,0.0,0.0,0.0,0.0,0.0,0.0,0.0,0.0,0.0,0.0,0.0,0.0,0.0,0.0,0.0,0.0,0.0,0.0,0.0,0.0,0.0,0.0,0.0,0.0,0.0,0.0,0.0,0.0,0.0,0.0,0.0,0.0,0.0,0.0,0.0,0.0,0.0,0.0,0.0,0.0,0.0,0.0,0.0,0.0,0.0,0.0,0.0,0.0,0.0,0.0,0.0,0.0,0.0,0.0,0.0,0.0,0.0,0.0,0.0,0.0,0.0,0.0,0.0,0.0,0.0,0.0,0.0,0.0,0.0,0.0,0.0,0.0,0.0,0.0,0.0,0.0,0.0,0.0,0.0,0.0,0.0,0.0,0.0,0.0,0.0,0.0,0.0,0.0,0.0,0.0,0.0,0.0,0.0,0.0,0.0,0.0,0.0,0.0,0.0,0.0,0.0,0.0,0.0,0.0,0.0,0.0,0.0,0.0,0.0,0.0,0.0,0.0,0.0,0.0,0.0,0.0,0.0,0.0,0.0,0.0,0.0,0.0,0.0,0.0,0.0,0.0,0.0,0.0,0.0,0.0,0.0,0.0,0.0,0.0,0.0,0.0,0.0,0.0,0.0,0.0,0.0,0.0,0.0,0.0,0.0,0.0,0.0,0.0,0.0,0.0,0.0,0.0,0.0,0.0,0.0,0.0,0.0,0.0,0.0,0.0,0.0,0.0,0.0,0.0,0.0,0.0,0.0,0.0,0.0,0.0,0.0,0.0,0.0,0.0,0.0,0.0,0.0,0.0,0.0,0.0,0.0,0.0,0.0,0.0,0.0,0.0,0.0,0.0,0.0,0.0,0.0,0.0,0.0,0.0,0.0,0.0,0.0,0.0,0.0,0.0,0.0,0.0,0.0,0.0,0.0,0.0,0.0,0.0,0.0,0.0,0.0,0.0,0.0,0.0,0.0,0.0,0.0,0.0,0.0,0.0,0.0,0.0,0.0,0.0,0.0,0.0,0.0,0.0,0.0,0.0,0.0,0.0,0.0,0.0,0.0,0.0,0.0,0.0,0.0,0.0,0.0,0.0,0.0,0.0,0.0,0.0,0.0,0.0,0.0,0.0,0.0,0.0,0.0,0.0,0.0,0.0,0.0,0.0,0.0,0.0,0.0,0.0,0.0,0.0,0.0,0.0,0.0,0.0,0.0,0.0,0.0,0.0,0.0,0.0,0.0,0.0,0.0,0.0,0.0,0.0,0.0,0.0,0.0,0.0,0.0,0.0,0.0,0.0,0.0,0.0,0.0,0.0,0.0,0.0,0.0,0.0,0.0,0.0,0.0,0.0,0.0,0.0,0.0,0.0,0.0,0.0,0.0,0.0,0.0,0.0,0.0,0.0,0.0,0.0,0.0,0.0,0.0,0.0,0.0,0.0,0.0,0.0,0.0,0.0,0.0,0.0,0.0,0.0,0.0,0.0,0.0,0.0,0.0,0.0,0.0,0.0,0.0,0.0,0.0,0.0,0.0,0.0,0.0,0.0,0.0,0.0,0.0,0.0,0.0,0.0,0.0,0.0,0.0,0.0,0.0,0.0,0.0,0.0,0.0,0.0,0.0,0.0,0.0,0.0,0.0,0.0,0.0,0.0,0.0,0.0,0.0,0.0,0.0,0.0,0.0,0.0,0.0,0.0,0.0,0.0,0.0,0.0,0.0,0.0,0.0,0.0,0.0,0.0,0.0,0.0,0.0,0.0,0.0,0.0,0.0,0.0,0.0,0.0,0.0,0.0,0.0,0.0,0.0,0.0,0.0,0.0,0.0,0.0,0.0,0.0,0.0,0.0,0.0,0.0,0.0,0.0,0.0,0.0,0.0,0.0,0.0,0.0,0.0,0.0,0.0,0.0,0.0,0.0,0.0,0.0,0.0,0.0,0.0,0.0,0.0,0.0,0.0,0.0,0.0,0.0,0.0,0.0,0.0,0.0,0.0,0.0,0.0,0.0,0.0,0.0,0.0,0.0,0.0,0.0,0.0,0.0,0.0,0.0,0.0,0.0,0.0,0.0,0.0,0.0,0.0,0.0,0.0,0.0,0.0,0.0,0.0,0.0,0.0,0.0,0.0,0.0,0.0,0.0,0.0,0.0,0.0,0.0,0.0,0.0,0.0,0.0,0.0,0.0,0.0,0.0,0.0,0.0,0.0,0.0,0.0,0.0,0.0,0.0,0.0,0.0,0.0,0.0,0.0,0.0,0.0,0.0,0.0,0.0,0.0,0.0,0.0,0.0,0.0,0.0,0.0,0.0,0.0,0.0,0.0,0.0,0.0,0.0,0.0,0.0,0.0,0.0,0.0,0.0,0.0,0.0,0.0,0.0,0.0,0.0,0.0,0.0,0.0,0.0,0.0,0.0,0.0,0.0,0.0,0.0,0.0,0.0,0.0,0.0,0.0,0.0,0.0,0.0,0.0,0.0,0.0,0.0,0.0,0.0,0.0,0.0,0.0,0.0,0.0,0.0,0.0,0.0,0.0,0.0,0.0,0.0,0.0,0.0,0.0,0.0,0.0,0.0,0.0,0.0,0.0,0.0,0.0,0.0,0.0,0.0,0.0,0.0,0.0,0.0,0.0,0.0,0.0,0.0,0.0,0.0,0.0,0.0,0.0,0.0,0.0,0.0,0.0,0.0,0.0,0.0,0.0,0.0,0.0,0.0,0.0,0.0,0.0,0.0,0.0,0.0,0.0,0.0,0.0,0.0,0.0,0.0,0.0,0.0,0.0,0.0,0.0,0.0,0.0,0.0,0.0,0.0,0.0,0.0,0.0,0.0,0.0,0.0,0.0,0.0,0.0,0.0,0.0,0.0,0.0,0.0,0.0,0.0,0.0,0.0,0.0,0.0,0.0,0.0,0.0,0.0,0.0,0.0,0.0,0.0,0.0,0.0,0.0,0.0,0.0,0.0,0.0,0.0,0.0,0.0,0.0,0.0,0.0,0.0,0.0,0.0,0.0,0.0,0.0,0.0,0.0,0.0,0.0,0.0,0.0,0.0,0.0,0.0,0.0,0.0,0.0,0.0,0.0,0.0,0.0,0.0,0.0,0.0,0.0,0.0,0.0,0.0,0.0,0.0,0.0,0.0,0.0,0.0,0.0,0.0,0.0,0.0,0.0,0.0,0.0,0.0,0.0,0.0,0.0,0.0,0.0,0.0,0.0,0.0,0.0,0.0,0.0,0.0,0.0,0.0,0.0,0.0,0.0,0.0,0.0,0.0,0.0,0.0,0.0,0.0,0.0,0.0,0.0,0.0,0.0,0.0,0.0,0.0,0.0,0.0,0.0,0.0,0.0,0.0,0.0,0.0,0.0,0.0,0.0,0.0,0.0,0.0,0.0,0.0,0.0,0.0,0.0,0.0,0.0,0.0,0.0,0.0,0.0,0.0,0.0,0.0,0.0,0.0,0.0,0.0,0.0,0.0,0.0,0.0,0.0,0.0,0.0,0.0,0.0,0.0,0.0,0.0,0.0,0.0,0.0,0.0,0.0,0.0,0.0,0.0,0.0,0.0,0.0,0.0,0.0,0.0,0.0,0.0,0.0,0.0,0.0,0.0,0.0,0.0,0.0,0.0,0.0,0.0,0.0,0.0,0.0,0.0,0.0,0.0,0.0,0.0,0.0,0.0,0.0,0.0,0.0,0.0,0.0,0.0,0.0,0.0,0.0,0.0,0.0,0.0,0.0,0.0,0.0,0.0,0.0,0.0,0.0,0.0,0.0,0.0,0.0,0.0,0.0,0.0,0.0,0.0,0.0,0.0,0.0,0.0,0.0,0.0,0.0,0.0,0.0,0.0,0.0,0.0,0.0,0.0,0.0,0.0,0.0,0.0,0.0,0.0,0.0,0.0,0.0,0.0,0.0,0.0,0.0,0.0,0.0,0.0,0.0,0.0,0.0,0.0,0.0,0.0,0.0,0.0,0.0,0.0,0.0,0.0,0.0,0.0,0.0,0.0,0.0,0.0,0.0,0.0,0.0,0.0,0.0,0.0,0.0,0.0,0.0,0.0,0.0,0.0,0.0,0.0,0.0,0.0,0.0,0.0,0.0,0.0,0.0,0.0,0.0,0.0,0.0,0.0,0.0,0.0,0.0,0.0,0.0,0.0,0.0,0.0,0.0,0.0,0.0,0.0,0.0,0.0,0.0,0.0,0.0,0.0,0.0,0.0,0.0,0.0,0.0,0.0,0.0,0.0,0.0,0.0,0.0,0.0,0.0,0.0,0.0,0.0,0.0,0.0,0.0,0.0,0.0,0.0,0.0,0.0,0.0,0.0,0.0,0.0,0.0,0.0,0.0,0.0,0.0,0.0,0.0,0.0,0.0,0.0,0.0,0.0,0.0,0.0,0.0,0.0,0.0,0.0,0.0,0.0,0.0,0.0,0.0,0.0,0.0,0.0,0.0,0.0,0.0,0.0,0.0,0.0,0.0,0.0,0.0,0.0,0.0,0.0,0.0,0.0,0.0,0.0,0.0,0.0,0.0,0.0,0.0,0.0,0.0,0.0,0.0,0.0,0.0,0.0,0.0,0.0,0.0,0.0,0.0,0.0,0.0,0.0,0.0,0.0,0.0,0.0,0.0,0.0,0.0,0.0,0.0,0.0,0.0,0.0,0.0,0.0,0.0,0.0,0.0,0.0,0.0,0.0,0.0,0.0,0.0,0.0,0.0,0.0,0.0,0.0,0.0,0.0,0.0,0.0,0.0,0.0,0.0,0.0,0.0,0.0,0.0,0.0,0.0,0.0,0.0,0.0,0.0,0.0,0.0,0.0,0.0,0.0,0.0,0.0,0.0,0.0,0.0,0.0,0.0,0.0,0.0,0.0,0.0,0.0,0.0,0.0,0.0,0.0,0.0,0.0,0.0,0.0,0.0,0.0,0.0,0.0,0.0,0.0,0.0,0.0,0.0,0.0,0.0,0.0,0.0,0.0,0.0,0.0,0.0,0.0,0.0,0.0,0.0,0.0,0.0,0.0,0.0,0.0,0.0,0.0,0.0,0.0,0.0,0.0,0.0,0.0,0.0,0.0,0.0,0.0,0.0,0.0,0.0,0.0,0.0,0.0,0.0,0.0,0.0,0.0,0.0,0.0,0.0,0.0,0.0,0.0,0.0,0.0,0.0,0.0,0.0,0.0,0.0,0.0,0.0,0.0,0.0,0.0,0.0,0.0,0.0,0.0,0.0,0.0,0.0,0.0,0.0,0.0,0.0,0.0,0.0,0.0,0.0,0.0,0.0,0.0,0.0,0.0,0.0,0.0,0.0,0.0,0.0,0.0,0.0,0.0,0.0,0.0,0.0,0.0,0.0,0.0,0.0,0.0,0.0,0.0,0.0,0.0,0.0,0.0,0.0,0.0,0.0,0.0,0.0,0.0,0.0,0.0,0.0,0.0,0.0,0.0,0.0,0.0,0.0,0.0,0.0,0.0,0.0,0.0,0.0,0.0,0.0,0.0,0.0,0.0,4.1191,0.0,0.0,0.0,0.0,0.0,0.0,0.0,0.0,0.0,0.0,0.0,0.0,0.0,0.0,0.0,0.0,0.0,0.0,0.0,0.0,0.0,0.0,0.0,0.0,0.0,0.0,0.0,0.0,0.0,0.0,0.0,0.0,0.0,0.0,0.0,0.0,0.0,0.0,0.0,0.0,0.0,0.0,0.0,0.0,0.0,0.0,0.0,0.0,0.0,0.0,0.0,0.0,0.0,0.0,0.0,0.0,0.0,0.0,0.0,0.0,0.0,0.0,0.0,0.0,0.0,0.0,0.0,0.0,0.0,0.0,0.0,0.0,0.0,0.0,0.0,0.0,0.0,0.0,0.0,0.0,0.0,0.0,0.0,0.0,0.0,0.0,0.0,0.0,0.0,0.0,0.0,0.0,0.0,0.0,0.0,0.0,0.0,0.0,0.0,0.0,0.0,0.0,0.0,0.0,0.0,0.0,0.0,0.0,0.0,0.0,0.0,0.0,0.0,0.0,0.0,0.0,4.1191,0.0,0.0,0.0,0.0,0.0,0.0,0.0,0.0,0.0,0.0,0.0,0.0,0.0,0.0,0.0,0.0,0.0,0.0,0.0,0.0,0.0,0.0,0.0,0.0,0.0,0.0,0.0,0.0,0.0,0.0,0.0,0.0,0.0,0.0,0.0,0.0,0.0,0.0,0.0,0.0,0.0,0.0,0.0,0.0,0.0,0.0,0.0,0.0,0.0,0.0,0.0,0.0,0.0,0.0,0.0,0.0,0.0,0.0,0.0,0.0,0.0,0.0,0.0,0.0,0.0,0.0,0.0,0.0,0.0,0.0,0.0,0.0,0.0,0.0,0.0,0.0,0.0,0.0,0.0,0.0,0.0,0.0,0.0,0.0,0.0,0.0,0.0,0.0,0.0,0.0,0.0,0.0,0.0,0.0,0.0,0.0,0.0,0.0,0.0,0.0,0.0,0.0,0.0,0.0,0.0,0.0,0.0,0.0,4.1123,4.1121,4.1111,4.1166,4.1191,4.1191,4.1191,4.1191,4.1191,4.1191,0.0,0.0,0.0,0.0,0.0,0.0,0.0,0.0,0.0,0.0,0.0,0.0,0.0,0.0,0.0,0.0,0.0,0.0,0.0,0.0,0.0,0.0,0.0,0.0,0.0,0.0,0.0,0.0,0.0,0.0,0.0,0.0,0.0,0.0,0.0,0.0,0.0,0.0,0.0,0.0,0.0,0.0,0.0,0.0,0.0,0.0,0.0,0.0,0.0,0.0,0.0,0.0,0.0,0.0,0.0,0.0,0.0,0.0,0.0,0.0,0.0,0.0,0.0,0.0,0.0,0.0,0.0,0.0,0.0,0.0,0.0,0.0,0.0,0.0,0.0,0.0,0.0,0.0,0.0,0.0,0.0,0.0,0.0,0.0,0.0,0.0,4.0893,4.0776,0.0,0.0,0.0,0.0,0.0,0.0,0.0,0.0,0.0,0.0,0.0,0.0,0.0,4.1185,4.1185,4.119,4.1191,4.1191,4.1188,4.1185,4.1185,4.119,4.1191,4.1191,4.1191,0.0,4.1191,4.1191,0.0,0.0,0.0,0.0,0.0,0.0,0.0,0.0,0.0,0.0,0.0,0.0,0.0,0.0,0.0,0.0,0.0,0.0,0.0,0.0,0.0,0.0,0.0,0.0,0.0,0.0,0.0,0.0,0.0,0.0,0.0,0.0,0.0,0.0,0.0,0.0,0.0,0.0,0.0,0.0,0.0,0.0,0.0,0.0,0.0,0.0,0.0,0.0,0.0,0.0,0.0,0.0,0.0,0.0,0.0,0.0,0.0,0.0,0.0,0.0,0.0,0.0,0.0,0.0,0.0,0.0,0.0,0.0,0.0,0.0,0.0,0.0,0.0,0.0,0.0,0.0,0.0,0.0,0.0,0.0,0.0,0.0,0.0,0.0,0.0,4.1108,4.1108,4.1108,4.1108,4.1108,0.0,0.0,0.0,0.0,0.0,0.0,0.0,0.0,0.0,4.1191,4.1191,4.1191,4.1191,4.1191,4.1191,4.1191,4.1191,4.1191,4.1191,4.1191,4.1191,4.1191,4.1191,4.1465,4.1836,4.1387,4.1191,4.1191,0.0,0.0,0.0,0.0,4.1957,4.2299,0.0,0.0,0.0,0.0,0.0,0.0,0.0,0.0,0.0,0.0,0.0,0.0,0.0,0.0,0.0,3.5827,0.0,0.0,0.0,0.0,0.0,0.0,0.0,0.0,0.0,0.0,0.0,0.0,0.0,0.0,0.0,0.0,0.0,0.0,0.0,0.0,0.0,0.0,0.0,0.0,0.0,0.0,0.0,0.0,0.0,0.0,0.0,0.0,0.0,0.0,0.0,0.0,0.0,0.0,0.0,0.0,0.0,0.0,0.0,0.0,0.0,0.0,0.0,0.0,0.0,0.0,0.0,0.0,0.0,0.0,0.0,0.0,0.0,0.0,0.0,0.0,0.0,4.1051,4.1074,4.1046,4.1066,4.107,0.0,0.0,0.0,0.0,0.0,0.0,4.1172,4.1191,4.1191,4.1191,4.1191,4.1191,4.1191,4.1191,4.1308,4.1504,4.1504,4.1621,4.1836,4.1836,4.1836,4.1836,4.1836,4.2163,4.2646,4.1833,4.1636,4.1804,4.1804,4.2132,4.2574,4.2524,4.2885,4.3369,0.0,0.0,0.0,0.0,0.0,0.0,0.0,0.0,0.0,0.0,0.0,0.0,0.0,0.0,3.5894,3.5889,3.5852,3.5773,0.0,0.0,0.0,0.0,0.0,0.0,0.0,0.0,0.0,0.0,0.0,0.0,0.0,0.0,0.0,0.0,0.0,0.0,0.0,0.0,0.0,0.0,0.0,0.0,0.0,0.0,0.0,0.0,0.0,0.0,0.0,0.0,0.0,0.0,0.0,0.0,0.0,0.0,0.0,0.0,0.0,0.0,0.0,0.0,0.0,0.0,0.0,0.0,0.0,0.0,0.0,0.0,0.0,0.0,0.0,0.0,0.0,0.0,0.0,0.0,0.0,4.0914,4.0964,0.0,0.0,0.0,0.0,4.1,4.106,4.1113,4.1113,4.1172,4.1191,4.1191,4.1191,4.1191,4.1191,4.1191,4.1582,4.2344,4.2344,4.2773,4.3574,4.3574,4.3574,4.3574,4.3574,4.3553,4.3492,4.2662,4.2783,4.3479,4.3479,4.3421,4.3349,4.3349,4.3311,4.3305,0.0,0.0,0.0,0.0,0.0,0.0,0.0,0.0,0.0,0.0,0.0,0.0,0.0,3.584,3.5807,3.5706,3.5718,3.5698,3.5574,0.0,0.0,0.0,0.0,0.0,0.0,0.0,0.0,0.0,0.0,0.0,0.0,0.0,0.0,0.0,0.0,0.0,0.0,0.0,0.0,0.0,0.0,0.0,0.0,0.0,0.0,0.0,0.0,0.0,0.0,0.0,0.0,0.0,0.0,0.0,0.0,0.0,0.0,0.0,0.0,0.0,0.0,0.0,0.0,0.0,0.0,0.0,0.0,0.0,0.0,0.0,0.0,0.0,0.0,0.0,0.0,0.0,0.0,0.0,0.0,4.0896,4.0918,0.0,4.0966,4.0985,4.1004,4.1004,4.1012,4.1032,4.1046,4.1051,4.107,4.107,4.107,4.1348,4.1894,4.1914,4.2363,4.3242,4.3242,4.3398,4.3691,4.3656,4.3635,4.3625,4.359,4.3884,4.4356,4.4063,4.3782,4.354,4.3537,4.3819,4.4239,4.4239,4.451,4.491,0.0,0.0,0.0,0.0,0.0,0.0,0.0,0.0,0.0,0.0,0.0,3.5713,3.5676,3.5689,3.5648,3.5531,3.5562,3.557,3.5464,0.0,0.0,0.0,0.0,0.0,0.0,0.0,0.0,0.0,0.0,0.0,0.0,0.0,0.0,0.0,0.0,0.0,0.0,0.0,0.0,0.0,0.0,0.0,4.0364,0.0,0.0,0.0,0.0,0.0,0.0,0.0,0.0,0.0,0.0,0.0,0.0,0.0,0.0,0.0,0.0,0.0,0.0,0.0,0.0,0.0,0.0,0.0,0.0,0.0,0.0,0.0,0.0,0.0,0.0,0.0,0.0,0.0,0.0,0.0,4.0887,4.0879,4.0888,4.0904,4.0919,4.0938,4.0938,4.0938,4.0958,4.097,4.0963,4.0991,4.1127,4.139,4.139,4.1816,4.2705,4.2692,4.3152,4.4069,4.4069,4.4225,4.4516,4.447,4.4434,4.4432,4.4402,4.4696,4.5201,4.5189,4.4827,4.4268,4.4324,4.4645,4.507,4.507,4.5374,4.58,0.0,0.0,0.0,0.0,0.0,0.0,0.0,0.0,0.0,0.0,3.5643,3.5554,3.5419,3.5451,3.547,3.5391,3.5391,3.5397,3.5379,3.5398,0.0,0.0,0.0,0.0,0.0,0.0,0.0,0.0,0.0,0.0,0.0,0.0,0.0,0.0,0.0,0.0,0.0,0.0,0.0,0.0,0.0,0.0,4.0406,0.0,0.0,0.0,0.0,0.0,0.0,0.0,0.0,0.0,0.0,0.0,0.0,0.0,0.0,0.0,0.0,0.0,0.0,0.0,0.0,0.0,0.0,0.0,0.0,0.0,0.0,0.0,0.0,0.0,0.0,0.0,0.0,0.0,4.079,4.0848,4.0868,4.081,4.0848,4.0868,4.081,4.079,4.079,4.079,4.0848,4.0919,4.0938,4.0996,4.1409,4.2215,4.2234,4.2653,4.3537,4.3548,4.398,4.4837,4.4837,4.5273,4.6091,4.6091,4.6095,4.6104,4.6085,4.6046,4.5988,4.5988,4.593,4.58,4.5949,4.591,4.58,4.58,4.58,4.58,0.0,0.0,0.0,0.0,0.0,0.0,0.0,0.0,0.0,0.0,3.5528,3.5443,3.5399,3.5331,3.5228,3.5117,3.5197,3.5216,3.5196,0.0,0.0,0.0,0.0,0.0,0.0,0.0,0.0,0.0,0.0,0.0,0.0,0.0,0.0,0.0,0.0,0.0,0.0,0.0,0.0,0.0,0.0,0.0,4.0345,0.0,0.0,0.0,0.0,0.0,0.0,0.0,0.0,0.0,0.0,0.0,0.0,0.0,0.0,0.0,0.0,0.0,0.0,0.0,0.0,0.0,0.0,0.0,0.0,0.0,0.0,0.0,0.0,0.0,0.0,0.0,0.0,4.079,4.079,4.081,4.081,4.079,4.081,4.081,4.079,4.079,4.079,4.079,4.081,4.1081,4.1661,4.1719,4.2125,4.2963,4.3001,4.344,4.4363,4.4369,4.4831,4.5743,4.5743,4.5859,4.6092,4.6053,4.6035,4.6027,4.593,4.5858,4.5838,4.5838,4.5819,4.58,4.5838,4.5819,4.58,4.58,4.58,4.58,0.0,0.0,0.0,0.0,0.0,0.0,0.0,0.0,0.0,0.0,3.5502,3.5435,3.5277,3.5197,3.5083,3.4926,3.4999,3.507,3.5092,0.0,0.0,0.0,0.0,0.0,0.0,0.0,0.0,0.0,0.0,0.0,0.0,0.0,0.0,0.0,0.0,0.0,0.0,0.0,0.0,0.0,0.0,0.0,4.0291,4.0344,4.0408,4.05,4.0662,4.0769,4.0848,4.0888,0.0,0.0,0.0,0.0,0.0,0.0,0.0,0.0,0.0,0.0,0.0,0.0,0.0,0.0,0.0,0.0,0.0,0.0,0.0,0.0,0.0,0.0,0.0,0.0,4.0808,4.0796,4.0788,4.0796,4.079,4.079,4.079,4.079,4.079,4.079,4.0945,4.1274,4.1293,4.1661,4.2492,4.2531,4.2937,4.3827,4.3846,4.4272,4.5156,4.5156,4.5427,4.5969,4.5969,4.5969,4.5969,4.593,4.593,4.591,4.5819,4.58,4.58,4.58,4.58,0.0,0.0,0.0,0.0,0.0,4.58,4.58,0.0,0.0,0.0,0.0,0.0,0.0,0.0,0.0,0.0,0.0,0.0,3.5468,3.5155,3.5083,3.4997,3.4829,3.4869,3.4964,0.0,0.0,0.0,0.0,0.0,0.0,0.0,0.0,0.0,0.0,0.0,0.0,0.0,0.0,0.0,0.0,0.0,0.0,0.0,0.0,0.0,0.0,0.0,0.0,4.0291,4.031,4.043,4.0593,4.0593,4.0706,4.0898,4.0898,0.0,0.0,0.0,0.0,0.0,0.0,0.0,0.0,0.0,0.0,0.0,0.0,0.0,0.0,0.0,0.0,0.0,0.0,0.0,0.0,0.0,0.0,0.0,0.0,4.0804,4.0792,4.0807,4.08,4.0803,4.0803,4.0803,4.0803,4.0803,4.09,4.1248,4.1951,4.2106,4.2531,4.3401,0.0,0.0,0.0,0.0,4.5084,4.578,4.58,4.58,4.58,4.58,4.58,4.58,4.58,4.58,4.58,4.58,4.58,4.58,4.58,4.58,4.5766,4.58,4.58,4.5786,4.5786,4.5752,4.5708,0.0,0.0,0.0,0.0,0.0,0.0,0.0,0.0,0.0,3.5509,3.5427,3.5354,3.5335,3.5051,3.4851,3.4889,3.4889,3.4982,0.0,0.0,0.0,0.0,0.0,0.0,0.0,0.0,0.0,0.0,0.0,0.0,0.0,0.0,0.0,0.0,0.0,0.0,0.0,0.0,0.0,0.0,0.0,0.0,4.0308,4.0363,4.0447,4.0519,4.0519,4.0648,4.0823,4.0823,4.0868,4.0915,4.0915,0.0,0.0,0.0,0.0,0.0,0.0,0.0,0.0,0.0,0.0,0.0,0.0,0.0,0.0,0.0,0.0,0.0,0.0,0.0,0.0,4.0807,4.0807,4.0796,4.0807,4.0796,4.0796,4.0796,4.0796,4.0796,4.0796,4.1439,4.1911,4.2066,4.268,4.344,4.4311,4.4349,4.4717,4.5529,4.5568,4.5645,4.58,4.58,4.58,4.58,0.0,0.0,4.58,4.58,4.58,4.58,4.58,4.58,4.58,4.58,4.5688,4.5558,4.5737,4.5708,4.556,4.556,4.5454,4.5304,0.0,0.0,0.0,0.0,0.0,0.0,0.0,0.0,0.0,0.0,3.5455,3.535,3.5203,3.5034,3.4908,3.4771,3.4831,0.0,0.0,0.0,0.0,0.0,0.0,0.0,0.0,0.0,0.0,0.0,0.0,0.0,0.0,0.0,0.0,0.0,0.0,0.0,0.0,0.0,0.0,0.0,0.0,0.0,4.0396,4.0362,4.0427,4.0558,4.0504,4.0612,4.0752,4.0788,4.0807,4.0859,4.0935,4.096,4.0964,0.0,0.0,0.0,0.0,0.0,0.0,0.0,0.0,0.0,0.0,0.0,0.0,0.0,0.0,4.0849,0.0,0.0,4.0849,4.0849,4.0858,4.0848,4.0849,4.0858,4.0837,4.0807,4.0807,4.0962,4.1408,4.1838,4.2453,4.3298,4.3318,4.3692,4.4562,4.4601,4.4775,4.5181,4.5587,4.58,4.58,4.58,4.58,4.58,4.58,4.58,4.58,4.58,4.58,4.578,4.5688,4.5642,4.568,4.5986,4.6032,4.5994,4.6531,4.6167,4.5343,4.5343,4.5532,4.5791,0.0,0.0,0.0,0.0,0.0,0.0,0.0,0.0,0.0,0.0,0.0,3.5388,3.5066,3.5069,3.4963,0.0,0.0,0.0,0.0,0.0,0.0,0.0,0.0,0.0,0.0,0.0,0.0,0.0,0.0,0.0,0.0,0.0,0.0,0.0,0.0,0.0,0.0,0.0,0.0,0.0,0.0,0.0,4.0466,4.0362,4.0427,4.0588,4.0523,4.0612,4.0732,4.0769,4.0798,4.0858,4.0968,4.1006,4.0994,4.1019,4.1013,0.0,0.0,0.0,0.0,0.0,0.0,0.0,0.0,0.0,4.0907,4.0907,4.0907,4.0907,4.0907,4.0907,4.0907,4.0907,4.0908,4.0898,4.0907,4.0908,4.0946,4.1061,4.108,4.1352,4.205,4.2269,4.2911,4.4221,4.3686,4.3645,4.4418,4.4506,4.4583,4.4712,4.5345,4.5785,4.5989,4.5989,4.61,4.6303,4.6254,4.624,4.624,4.619,4.6159,4.6159,4.599,4.5936,4.5956,4.6385,4.6584,4.6637,4.7296,4.6744,4.5548,4.5592,4.5989,4.6487,0.0,0.0,0.0,0.0,0.0,0.0,0.0,0.0,0.0,0.0,0.0,0.0,0.0,0.0,0.0,0.0,0.0,0.0,0.0,0.0,0.0,0.0,0.0,0.0,0.0,0.0,0.0,0.0,0.0,0.0,0.0,0.0,0.0,0.0,0.0,0.0,0.0,0.0,0.0,0.0,0.0,0.0,4.0415,4.0379,4.0476,4.0593,4.0511,4.0668,4.0859,4.0746,4.082,4.0981,4.1,4.1007,4.1019,4.1061,0.0,4.1006,4.1074,4.109,4.1091,4.1091,4.1046,4.0996,0.0,0.0,4.0907,4.0907,4.0907,4.0907,4.0907,4.0907,4.0907,4.0907,4.0907,4.0907,4.0907,4.0907,4.117,4.1947,4.2044,4.2083,4.2189,4.2837,4.3259,4.3274,4.3297,4.3501,4.3963,4.4149,4.4514,4.5111,4.5226,4.5707,4.6679,4.6679,4.7169,4.8101,4.7885,4.7758,4.774,4.7585,4.748,4.748,4.7458,4.7436,4.7455,4.7276,4.7214,4.7188,4.7118,4.6948,4.6807,4.7004,4.7,4.693,0.0,0.0,0.0,0.0,0.0,0.0,0.0,0.0,0.0,0.0,0.0,0.0,0.0,0.0,0.0,0.0,0.0,0.0,0.0,0.0,0.0,0.0,0.0,0.0,0.0,0.0,0.0,0.0,0.0,0.0,0.0,0.0,0.0,0.0,0.0,0.0,0.0,0.0,0.0,0.0,0.0,0.0,4.0398,4.0398,4.0463,4.0543,4.0499,4.0598,0.0,0.0,4.0801,4.0961,4.1031,4.1072,4.1066,4.1094,4.1081,0.0,4.1085,4.1094,4.1097,0.0,4.1072,4.1052,4.1013,4.0979,4.0949,4.0917,4.0926,4.0943,4.0917,4.0907,4.0907,0.0,4.0907,4.0907,4.0907,4.0907,4.1043,4.1393,4.1879,4.2403,4.2908,4.28,4.285,4.3181,4.3225,4.3485,4.4095,4.4575,4.5208,4.5991,4.6445,4.6866,4.7315,4.7315,4.7547,4.7972,4.7893,4.7831,4.7811,4.7745,4.7609,4.749,4.749,4.7391,4.7311,4.7674,4.7806,4.7881,4.8311,4.8457,4.8345,4.7457,4.7391,4.7706,0.0,0.0,0.0,0.0,0.0,0.0,0.0,0.0,0.0,0.0,0.0,0.0,0.0,0.0,0.0,0.0,0.0,0.0,0.0,0.0,0.0,0.0,0.0,0.0,0.0,0.0,0.0,0.0,0.0,0.0,0.0,0.0,0.0,0.0,0.0,0.0,0.0,0.0,0.0,0.0,0.0,0.0,4.0379,4.0379,4.0396,4.0466,4.0499,4.0549,0.0,0.0,4.0781,4.0894,4.0987,4.1017,4.1018,4.1051,4.109,4.1105,4.1105,0.0,0.0,4.1101,4.1085,4.1056,4.1013,4.1007,4.0979,4.0897,4.0917,4.0936,4.0878,4.0878,4.0878,4.0907,4.0907,4.0907,4.0907,4.0907,4.0985,4.1238,4.1781,4.2489,4.3352,4.2865,4.2775,4.3453,4.3501,4.3885,4.4787,4.5302,4.5927,4.6743,4.7258,4.7648,4.7948,4.7948,4.8109,4.8388,4.8319,4.8272,4.8272,4.8218,4.8093,4.7907,4.7907,4.7834,4.7725,4.8326,4.8551,4.8626,4.9246,4.9509,4.9358,4.8138,4.8063,4.8551,0.0,0.0,0.0,0.0,0.0,0.0,0.0,0.0,0.0,0.0,0.0,0.0,0.0,0.0,0.0,0.0,0.0,0.0,0.0,0.0,0.0,0.0,0.0,0.0,0.0,0.0,0.0,0.0,0.0,0.0,0.0,0.0,0.0,0.0,0.0,0.0,0.0,0.0,0.0,0.0,0.0,0.0,4.0307,4.0307,4.0342,4.0396,4.0476,0.0,0.0,0.0,4.0738,4.0791,4.082,4.082,0.0,4.0954,4.1057,0.0,0.0,0.0,4.1096,4.1096,4.1056,4.0994,4.0994,4.1006,4.096,4.083,4.0807,4.08,4.08,4.08,4.0815,4.0898,4.0907,4.0907,4.0907,4.0907,4.1218,4.2053,4.2078,4.2349,0.0,4.3279,4.3458,4.3943,4.417,4.4825,4.6087,4.6212,4.6543,4.7162,4.709,4.7523,4.8579,4.8579,4.9106,5.013,4.9841,4.9754,4.9728,4.9539,4.9446,4.9415,4.9415,4.9415,4.9434,4.9452,4.9471,4.9471,4.949,4.9509,4.949,4.9434,4.9434,4.9471,0.0,0.0,0.0,0.0,0.0,0.0,0.0,0.0,0.0,0.0,0.0,0.0,0.0,0.0,0.0,0.0,0.0,0.0,0.0,0.0,0.0,0.0,0.0,0.0,0.0,0.0,0.0,0.0,0.0,0.0,0.0,0.0,0.0,0.0,0.0,0.0,0.0,0.0,0.0,0.0,0.0,0.0,4.0291,4.0289,4.0307,4.0342,0.0,0.0,0.0,0.0,0.0,0.0,4.0898,0.0,0.0,4.0849,0.0,0.0,0.0,0.0,4.0898,4.0898,4.0882,4.0866,4.0811,4.084,4.0859,4.0807,4.0807,4.0809,4.0868,4.0868,4.0878,4.0907,4.0907,4.0907,4.0907,4.1324,4.1737,4.2028,4.2454,0.0,0.0,0.0,0.0,4.4133,4.5227,4.6301,4.7209,4.7618,4.8174,4.8973,4.8794,4.8837,4.919,4.919,4.938,4.9741,4.9644,4.9585,4.9585,4.9532,4.9509,4.9509,4.9509,4.9509,4.9509,4.9509,4.9509,4.9509,4.9509,4.9509,4.9509,4.9509,4.9509,4.9509,0.0,0.0,0.0,0.0,0.0,0.0,0.0,0.0,0.0,0.0,0.0,0.0,0.0,0.0,0.0,0.0,0.0,0.0,0.0,0.0,0.0,0.0,0.0,0.0,0.0,0.0,0.0,0.0,0.0,0.0,0.0,0.0,0.0,0.0,0.0,0.0,0.0,0.0,0.0,0.0,0.0,0.0,4.031,4.0309,4.0289,0.0,0.0,0.0,0.0,0.0,0.0,0.0,0.0,0.0,0.0,0.0,0.0,0.0,0.0,4.0801,4.081,4.081,4.0801,4.0781,4.0749,4.0718,4.0726,4.07,4.0674,4.068,4.0742,4.0742,4.0742,4.0826,4.1078,4.1261,4.1261,4.1918,4.2389,4.2389,4.3042,4.3585,0.0,0.0,0.0,4.5055,4.6607,4.7867,4.8571,4.8884,4.9303,4.9797,4.9623,4.9509,4.9509,4.9509,4.9509,4.9509,4.9509,4.9509,4.9509,4.9509,4.9509,4.9509,4.9509,4.9659,4.9922,4.9922,5.0091,5.0353,5.0353,5.0353,5.0353,5.0353,5.0353,5.0278,0.0,0.0,0.0,0.0,0.0,0.0,0.0,0.0,0.0,0.0,0.0,0.0,0.0,0.0,0.0,0.0,0.0,0.0,0.0,0.0,0.0,0.0,0.0,0.0,0.0,0.0,0.0,0.0,0.0,0.0,0.0,0.0,0.0,0.0,0.0,0.0,0.0,0.0,0.0,0.0,0.0,0.0,4.031,4.031,0.0,0.0,0.0,0.0,0.0,0.0,0.0,0.0,0.0,0.0,0.0,0.0,0.0,4.078,4.0791,4.0772,4.0772,4.0772,4.0771,4.078,4.077,4.0684,4.0578,4.0506,4.045,4.0422,0.0,0.0,4.0489,4.0712,4.1393,4.1904,4.1957,4.2656,4.3162,0.0,0.0,0.0,0.0,0.0,0.0,4.6691,0.0,4.9434,5.007,4.9978,4.9843,4.9721,4.9563,4.9509,4.9509,4.9509,4.9509,4.9509,4.9546,4.9565,4.9565,4.9602,4.9621,4.9621,4.9621,5.0053,5.0748,5.0748,5.1198,5.1912,5.1912,5.1912,5.186,5.186,5.1879,5.1654,0.0,0.0,0.0,0.0,0.0,0.0,0.0,0.0,0.0,0.0,0.0,0.0,0.0,0.0,0.0,0.0,0.0,0.0,0.0,0.0,0.0,0.0,0.0,0.0,0.0,0.0,0.0,0.0,0.0,0.0,0.0,0.0,0.0,0.0,0.0,0.0,0.0,0.0,0.0,0.0,0.0,0.0,4.031,0.0,0.0,0.0,0.0,0.0,0.0,0.0,0.0,0.0,0.0,0.0,4.0516,0.0,0.0,4.0583,4.0588,4.0574,4.0583,4.0583,4.0534,4.0489,4.0454,4.0403,4.0386,4.0469,4.0489,4.0519,0.0,0.0,0.0,4.1479,4.1759,0.0,4.2827,4.3583,0.0,4.4064,0.0,4.5438,4.6162,4.7191,0.0,0.0,4.931,4.9954,5.0236,4.9925,4.9788,4.9843,4.9623,4.9509,4.9509,4.9509,4.9509,4.9509,5.0109,5.0391,5.041,5.1011,5.1292,5.1292,5.1292,5.1405,5.1593,5.1593,5.1705,5.1912,5.1912,5.1742,5.1519,5.1519,5.1413,5.1158,0.0,0.0,0.0,0.0,0.0,0.0,0.0,0.0,0.0,0.0,0.0,0.0,0.0,0.0,0.0,0.0,0.0,0.0,0.0,0.0,0.0,0.0,0.0,0.0,0.0,0.0,0.0,0.0,0.0,0.0,0.0,0.0,0.0,0.0,0.0,0.0,0.0,0.0,0.0,0.0,0.0,0.0,0.0,0.0,0.0,0.0,0.0,0.0,0.0,0.0,0.0,4.0399,4.0377,4.0375,4.0422,4.0447,0.0,4.0432,4.0479,4.0482,4.0449,4.0502,4.0432,4.0362,4.0307,4.0308,4.0308,4.0396,4.0413,0.0,0.0,0.0,0.0,0.0,0.0,0.0,4.3481,4.4297,4.4783,0.0,4.5458,0.0,4.6997,4.7857,4.8716,0.0,4.9983,5.0207,5.0207,4.9952,4.9807,4.9816,4.9593,4.9678,5.0016,5.0034,5.0203,5.056,5.1011,5.1236,5.1236,5.1686,5.1912,5.1912,0.0,5.2118,5.2475,5.2475,5.2682,5.3001,5.3001,5.2881,5.2725,5.2725,5.2529,5.2232,0.0,0.0,0.0,0.0,0.0,0.0,0.0,0.0,0.0,0.0,0.0,0.0,0.0,0.0,0.0,0.0,0.0,0.0,0.0,0.0,0.0,0.0,0.0,0.0,0.0,0.0,0.0,0.0,0.0,0.0,0.0,0.0,0.0,0.0,0.0,0.0,0.0,0.0,0.0,0.0,0.0,0.0,0.0,0.0,0.0,0.0,0.0,0.0,0.0,0.0,4.0291,4.0289,4.0289,4.0309,4.031,4.0381,4.0362,4.0325,4.0449,4.0432,4.0396,4.0449,4.0379,4.0289,4.0289,4.0291,4.031,4.0291,0.0,4.0291,4.0307,4.0405,4.0749,4.1609,0.0,4.3252,4.4075,4.486,4.5338,4.5338,4.6046,4.6866,4.7723,4.856,4.94,5.0245,5.0278,5.0207,5.0108,4.9952,4.9872,4.9814,4.9814,5.0147,5.0842,5.0842,5.1198,5.1912,5.2024,5.2081,5.2081,5.2193,5.2231,5.2231,5.2231,5.2663,5.3339,5.3339,5.377,5.4409,5.4356,5.4321,5.4268,5.4252,5.4,5.3662,0.0,0.0,0.0,0.0,0.0,0.0,0.0,0.0,0.0,0.0,0.0,0.0,0.0,0.0,0.0,0.0,0.0,0.0,0.0,0.0,0.0,0.0,0.0,0.0,0.0,0.0,0.0,0.0,0.0,0.0,0.0,0.0,0.0,0.0,0.0,0.0,0.0,0.0,0.0,0.0,0.0,0.0,0.0,0.0,0.0,0.0,0.0,0.0,0.0,0.0,4.0291,4.0291,4.0291,4.0291,4.0291,4.0326,4.0307,4.0325,4.0415,4.0362,4.0325,4.0325,4.0327,4.0291,4.0291,4.0291,0.0,0.0,0.0,4.0326,4.0362,4.0937,4.1628,4.247,0.0,0.0,0.0,0.0,4.5457,0.0,0.0,0.0,0.0,0.0,0.0,0.0,5.0089,5.0005,5.0108,4.9871,4.9984,5.051,5.1142,5.1555,5.1686,5.1686,5.1762,5.1912,5.2625,5.2963,5.2982,5.3658,5.3977,5.3977,5.3977,0.0,5.4183,5.4183,5.4277,5.4356,5.4108,5.3814,5.3545,5.3341,5.3023,5.2717,0.0,0.0,0.0,0.0,0.0,0.0,0.0,0.0,0.0,0.0,0.0,0.0,0.0,0.0,0.0,0.0,0.0,0.0,0.0,0.0,0.0,0.0,0.0,0.0,0.0,0.0,0.0,0.0,0.0,0.0,0.0,0.0,0.0,0.0,0.0,0.0,0.0,0.0,0.0,0.0,0.0,0.0,0.0,0.0,0.0,0.0,0.0,0.0,0.0,0.0,4.0137,4.0215,4.0291,4.031,4.031,4.0291,4.0309,4.0309,4.0344,4.0326,4.029,4.0307,4.0309,4.031,4.031,0.0,0.0,0.0,0.0,4.0443,4.0882,0.0,0.0,0.0,0.0,0.0,0.0,0.0,0.0,0.0,0.0,0.0,0.0,0.0,0.0,5.007,5.0358,5.0578,5.071,5.0885,5.1054,5.1311,5.1705,5.2118,5.2569,5.2569,5.2794,5.3207,5.362,5.3808,5.3827,5.4221,5.4409,5.4409,5.4409,5.4409,5.4409,5.4198,5.4144,5.4108,5.3776,5.3526,5.3367,5.3281,5.3005,5.2753,0.0,0.0,0.0,0.0,0.0,0.0,0.0,0.0,0.0,0.0,0.0,0.0,0.0,0.0,0.0,0.0,0.0,0.0,0.0,0.0,0.0,0.0,0.0,0.0,0.0,0.0,0.0,0.0,0.0,0.0,0.0,0.0,0.0,0.0,0.0,0.0,0.0,0.0,0.0,0.0,0.0,0.0,0.0,0.0,0.0,0.0,0.0,0.0,0.0,0.0,3.9973,4.0096,4.0176,4.0234,4.0253,4.0253,4.0291,4.0291,4.029,4.0291,4.0291,4.029,4.0291,4.031,4.031,4.031,0.0,0.0,4.031,4.0559,4.1342,0.0,0.0,0.0,0.0,0.0,0.0,0.0,0.0,0.0,0.0,0.0,0.0,0.0,0.0,4.9925,5.078,5.1376,5.1467,5.2008,5.2284,5.2175,5.2344,5.2757,5.3433,5.3451,5.377,5.4409,5.4409,5.4409,5.4409,5.4409,5.4409,5.4409,5.4409,5.4409,5.4356,5.4108,5.4017,5.3981,5.3662,5.3447,5.3407,5.3345,5.3115,5.2912,0.0,0.0,0.0,0.0,0.0,0.0,0.0,0.0,0.0,0.0,0.0,0.0,0.0,0.0,0.0,0.0,0.0,0.0,0.0,0.0,0.0,0.0,0.0,0.0,0.0,0.0,0.0,0.0,0.0,0.0,0.0,0.0,0.0,0.0,0.0,0.0,0.0,0.0,0.0,0.0,0.0,0.0,0.0,0.0,0.0,0.0,0.0,0.0,0.0,0.0,0.0,3.9911,3.9933,4.0015,4.0117,4.0117,0.0,0.0,4.0291,4.031,4.031,4.0291,4.031,4.031,4.031,0.0,0.0,4.031,4.031,4.0559,4.1342,0.0,0.0,0.0,0.0,4.5201,0.0,0.0,0.0,0.0,0.0,0.0,0.0,0.0,0.0,4.9898,5.1196,5.2024,5.2024,5.2717,5.309,5.3076,5.3789,5.4202,5.4296,5.4296,5.4334,5.4409,5.4409,5.4409,5.4409,5.4409,5.4409,5.4409,5.4409,5.4409,0.0,5.4356,5.4356,5.4321,5.3981,5.3662,5.3367,5.3133,5.2824,5.2544,0.0,0.0,0.0,0.0,0.0,0.0,0.0,0.0,0.0,0.0,0.0,0.0,0.0,0.0,0.0,0.0,0.0,0.0,0.0,0.0,0.0,0.0,0.0,0.0,0.0,0.0,0.0,0.0,0.0,0.0,0.0,0.0,0.0,0.0,0.0,0.0,0.0,0.0,0.0,0.0,0.0,0.0,0.0,0.0,0.0,0.0,0.0,0.0,0.0,0.0,0.0,0.0,3.975,3.9777,0.0,0.0,4.0015,4.0057,4.0057,4.0117,4.0176,4.0176,4.0234,4.031,4.031,0.0,4.031,4.031,4.0692,4.1285,4.2125,0.0,0.0,0.0,0.0,0.0,0.0,0.0,0.0,0.0,0.0,0.0,0.0,0.0,5.0107,5.1028,5.2115,5.2967,5.3456,5.3748,5.3921,5.3921,5.4221,5.4409,5.4409,5.4409,5.4409,5.4409,5.4409,5.4409,5.4409,5.4409,5.4409,5.4409,5.4409,5.4409,0.0,5.4198,5.3981,5.3776,5.3484,5.3157,5.285,5.2735,5.2618,5.2498,0.0,0.0,0.0,0.0,0.0,0.0,0.0,0.0,0.0,0.0,0.0,0.0,0.0,0.0,0.0,0.0,0.0,0.0,0.0,0.0,0.0,0.0,0.0,0.0,0.0,0.0,0.0,0.0,0.0,0.0,0.0,0.0,0.0,0.0,0.0,0.0,0.0,0.0,0.0,0.0,0.0,0.0,0.0,0.0,0.0,0.0,0.0,0.0,0.0,0.0,0.0,0.0,0.0,0.0,0.0,0.0,3.9867,3.9889,3.9889,3.9973,4.0036,4.0036,4.0117,4.0176,0.0,0.0,4.0253,4.0291,4.0941,4.1762,4.2601,4.3401,0.0,0.0,0.0,4.501,0.0,0.0,0.0,0.0,0.0,0.0,0.0,4.9521,5.0534,5.1799,5.27,5.3545,5.4352,5.4409,5.4409,5.4409,5.4409,5.4409,5.4409,5.4409,5.4409,5.4409,5.4409,5.4409,5.4409,5.4409,5.4409,5.4409,5.4409,5.4356,0.0,5.3981,5.37,5.3367,5.3198,5.3083,5.299,5.299,5.3062,5.3204,0.0,0.0,0.0,0.0,0.0,0.0,0.0,0.0,0.0,0.0,0.0,0.0,0.0,0.0,0.0,0.0,0.0,0.0,0.0,0.0,0.0,0.0,0.0,0.0,0.0,0.0,0.0,0.0,0.0,0.0,0.0,0.0,0.0,0.0,0.0,0.0,0.0,0.0,0.0,0.0,0.0,0.0,0.0,0.0,0.0,0.0,0.0,0.0,0.0,0.0,0.0,0.0,0.0,0.0,0.0,0.0,3.9804,3.9889,3.9889,3.9889,3.9911,3.9911,3.9911,3.9933,0.0,0.0,4.0137,4.0272,4.0941,4.1723,4.2457,4.3257,4.403,4.4787,0.0,0.0,0.0,0.0,0.0,0.0,0.0,0.0,4.9427,5.0203,5.1029,5.1837,5.27,0.0,5.4352,5.4409,5.4409,5.4409,5.4409,5.4409,5.4409,5.4409,5.4409,5.4409,5.4409,5.4409,5.4409,5.4409,5.4409,5.4409,5.4409,5.4198,0.0,5.3907,5.37,5.3407,5.3407,5.37,5.407,5.407,5.4409,5.4888,0.0,0.0,0.0,0.0,0.0,0.0,0.0,0.0,0.0,0.0,0.0,0.0,0.0,0.0,0.0,0.0,0.0,0.0,0.0,0.0,0.0,0.0,0.0,0.0,0.0,0.0,0.0,0.0,0.0,0.0,0.0,0.0,0.0,0.0,0.0,0.0,0.0,0.0,0.0,0.0,0.0,0.0,0.0,0.0,0.0,0.0,0.0,0.0,0.0,0.0,0.0,0.0,0.0,0.0,0.0,0.0,0.0,0.0,3.9679,3.9731,3.9762,3.9762,3.9826,3.9911,3.9954,0.0,4.0167,4.0822,4.158,4.2373,4.3254,4.4045,4.4616,4.4732,4.4745,0.0,0.0,0.0,0.0,0.0,0.0,0.0,0.0,0.0,5.1874,5.2719,5.3545,5.4127,5.439,5.4409,5.4409,5.4409,5.4409,5.4409,5.4409,5.4409,5.4287,5.4072,5.4287,5.4268,5.4072,5.4072,5.4072,5.4036,5.3833,5.3662,5.3565,5.3565,5.368,5.3861,5.3861,5.4172,5.4633,5.4633,5.4749,5.4907,0.0,0.0,0.0,0.0,0.0,0.0,0.0,0.0,0.0,0.0,0.0,0.0,0.0,0.0,0.0,0.0,0.0,0.0,0.0,0.0,0.0,0.0,0.0,0.0,0.0,0.0,0.0,0.0,0.0,0.0,0.0,0.0,0.0,0.0,0.0,0.0,0.0,0.0,0.0,0.0,0.0,0.0,3.9602,0.0,0.0,0.0,0.0,0.0,0.0,0.0,0.0,0.0,0.0,0.0,0.0,0.0,0.0,0.0,0.0,3.9631,3.9642,3.9642,3.9731,0.0,0.0,0.0,4.0492,4.1098,4.2079,4.3019,4.3559,4.4283,4.477,4.4659,4.4896,0.0,0.0,0.0,0.0,0.0,0.0,0.0,0.0,5.1424,5.225,5.3113,5.3939,5.4409,5.4409,5.4409,5.4409,5.4409,5.4409,5.4409,5.4409,5.4409,5.4321,5.4108,5.4321,5.4287,5.4108,5.4108,5.4108,5.4072,5.387,5.379,0.0,5.4007,5.4285,5.459,5.459,5.4985,5.5498,5.5372,5.5504,5.5776,0.0,0.0,0.0,0.0,0.0,0.0,0.0,0.0,0.0,0.0,0.0,0.0,0.0,0.0,0.0,0.0,0.0,0.0,0.0,0.0,0.0,0.0,0.0,0.0,0.0,0.0,0.0,0.0,4.1536,4.1121,3.9577,0.0,0.0,0.0,0.0,0.0,0.0,0.0,0.0,0.0,0.0,0.0,0.0,0.0,0.0,0.0,0.0,0.0,0.0,0.0,0.0,0.0,0.0,0.0,0.0,0.0,0.0,0.0,0.0,0.0,0.0,0.0,0.0,0.0,0.0,0.0,0.0,0.0,4.2503,4.3553,4.3485,4.4139,4.4678,4.459,4.5209,0.0,0.0,0.0,0.0,0.0,4.9509,0.0,5.0691,5.1461,5.2287,5.3207,5.3977,5.4409,5.4409,5.4409,5.4409,5.4409,5.4356,5.4375,5.4409,5.4409,5.439,5.4356,5.439,5.4375,5.4321,5.4321,5.4321,0.0,5.4343,5.4429,5.4562,5.4997,5.5295,5.545,5.545,5.5944,5.6611,5.6213,5.6554,5.7188,0.0,0.0,0.0,0.0,0.0,0.0,0.0,0.0,0.0,0.0,0.0,0.0,0.0,0.0,0.0,0.0,0.0,0.0,0.0,0.0,0.0,0.0,0.0,0.0,0.0,0.0,0.0,4.1548,4.179,4.1068,3.952,3.9571,0.0,0.0,0.0,0.0,0.0,0.0,0.0,0.0,0.0,0.0,0.0,0.0,0.0,0.0,3.9602,3.9602,0.0,0.0,0.0,0.0,0.0,0.0,0.0,0.0,3.9495,0.0,0.0,0.0,0.0,0.0,0.0,0.0,0.0,0.0,0.0,0.0,0.0,4.3597,4.4271,4.4474,4.473,4.5322,4.5585,4.6148,0.0,0.0,0.0,0.0,4.9509,5.0053,5.148,5.1799,5.2531,5.4015,5.4296,5.4409,5.4409,5.4409,5.4409,5.4409,5.4144,5.4144,5.4409,5.4409,5.4268,5.4017,5.4268,5.4144,5.3662,5.3662,5.3505,5.3336,5.3726,5.389,5.3991,5.4656,5.532,5.5849,5.5849,5.634,5.7066,5.6967,5.7043,5.7188,0.0,0.0,0.0,0.0,0.0,0.0,0.0,0.0,0.0,0.0,0.0,0.0,0.0,0.0,0.0,0.0,0.0,0.0,0.0,0.0,0.0,0.0,0.0,0.0,0.0,0.0,0.0,0.0,0.0,4.1006,0.0,0.0,0.0,0.0,0.0,0.0,0.0,0.0,0.0,0.0,0.0,0.0,0.0,0.0,0.0,0.0,3.9571,3.9571,0.0,3.952,3.9495,3.9469,0.0,0.0,0.0,0.0,3.9444,0.0,0.0,0.0,0.0,0.0,0.0,0.0,0.0,0.0,0.0,0.0,0.0,0.0,4.453,4.4551,0.0,4.5566,4.6035,0.0,0.0,0.0,0.0,4.9509,4.9828,5.0541,0.0,5.225,5.3019,5.4296,5.4409,5.4409,5.4409,5.4409,5.4409,5.4409,5.4233,5.4144,5.4144,5.4144,5.3981,5.3682,5.4017,5.3907,5.3407,5.3407,5.3506,5.3744,5.4012,5.4456,5.5047,5.5623,5.628,5.6849,5.6849,5.7104,5.7437,5.7257,5.7188,5.7188,0.0,0.0,0.0,0.0,0.0,0.0,0.0,0.0,0.0,0.0,0.0,0.0,0.0,0.0,0.0,0.0,0.0,0.0,0.0,0.0,0.0,0.0,0.0,0.0,0.0,0.0,0.0,0.0,0.0,0.0,0.0,0.0,0.0,0.0,0.0,0.0,0.0,0.0,0.0,0.0,3.9577,0.0,0.0,0.0,0.0,0.0,0.0,0.0,0.0,3.9418,3.9391,3.9373,3.9373,0.0,0.0,0.0,0.0,0.0,0.0,0.0,0.0,0.0,0.0,0.0,0.0,0.0,0.0,0.0,0.0,0.0,0.0,0.0,0.0,0.0,0.0,0.0,0.0,0.0,0.0,4.9509,5.0203,0.0,5.1818,5.2682,5.3526,5.4334,5.4409,5.4409,5.4409,5.4409,5.4409,5.4409,5.4356,5.4198,5.3907,5.3944,5.3814,5.3565,5.3776,5.3738,5.3407,5.3496,5.3857,5.4496,5.4717,0.0,5.6455,5.6904,5.7354,5.7697,5.7697,5.7697,5.7649,5.7356,5.7188,5.7188,0.0,0.0,0.0,0.0,0.0,0.0,0.0,0.0,0.0,0.0,0.0,0.0,0.0,0.0,0.0,0.0,0.0,0.0,0.0,0.0,0.0,0.0,0.0,0.0,0.0,0.0,0.0,0.0,0.0,0.0,3.921,3.9346,3.9418,0.0,0.0,0.0,0.0,0.0,0.0,0.0,0.0,0.0,0.0,0.0,0.0,0.0,0.0,0.0,0.0,3.9418,3.9328,3.9256,3.9373,0.0,0.0,0.0,0.0,0.0,4.0123,0.0,0.0,0.0,0.0,0.0,0.0,0.0,0.0,0.0,0.0,0.0,0.0,0.0,0.0,0.0,0.0,4.9208,0.0,0.0,4.9509,4.9509,0.0,5.1011,5.1818,5.2682,5.3526,5.4334,5.4409,5.4409,5.4409,5.4409,5.4409,5.4409,5.4108,5.3944,5.3907,5.4198,5.4321,5.4233,5.4017,5.3738,5.3425,5.3794,5.3953,5.3935,0.0,5.5904,5.6128,5.6866,5.7229,5.7289,5.7289,5.7289,5.7289,5.7239,5.7188,5.7188,0.0,0.0,0.0,0.0,0.0,0.0,0.0,0.0,0.0,0.0,0.0,0.0,0.0,0.0,0.0,0.0,0.0,0.0,0.0,0.0,0.0,0.0,0.0,0.0,0.0,0.0,0.0,0.0,0.0,4.0365,3.9156,3.9256,3.9301,3.9301,0.0,0.0,0.0,0.0,0.0,0.0,0.0,0.0,0.0,0.0,0.0,0.0,0.0,0.0,0.0,0.0,3.9202,3.9156,3.9202,0.0,0.0,0.0,0.0,0.0,4.0375,4.1129,0.0,0.0,0.0,0.0,0.0,0.0,0.0,0.0,0.0,0.0,0.0,0.0,0.0,0.0,0.0,4.9509,4.9509,4.9509,4.9659,0.0,0.0,5.1686,5.2513,5.3357,5.3996,5.4371,5.4409,5.4409,5.4409,5.4233,5.4108,5.4108,5.3814,5.3623,5.3623,5.3776,5.3795,5.366,5.3623,5.3625,5.3577,5.38,5.4252,5.4979,0.0,5.6247,5.6681,5.7043,5.7188,5.7188,5.7188,5.7188,5.7188,5.7188,5.7188,5.7188,0.0,0.0,0.0,0.0,0.0,0.0,0.0,0.0,0.0,0.0,0.0,0.0,0.0,0.0,0.0,0.0,0.0,0.0,0.0,0.0,0.0,0.0,0.0,0.0,0.0,0.0,0.0,4.1311,4.0698,3.9937,3.9101,3.9156,3.9183,0.0,0.0,0.0,0.0,0.0,0.0,0.0,0.0,0.0,0.0,0.0,0.0,0.0,0.0,0.0,0.0,0.0,0.0,0.0,0.0,0.0,0.0,0.0,3.9714,4.0467,4.0681,4.1818,4.2965,0.0,0.0,0.0,0.0,0.0,0.0,0.0,0.0,0.0,0.0,0.0,0.0,0.0,4.9058,4.9509,4.9509,4.9509,4.979,5.0598,5.1405,5.2231,5.3113,5.3921,5.4409,5.4409,5.4409,5.4409,5.4409,5.4163,5.4036,5.4036,5.37,5.3526,5.3526,5.3447,5.3304,5.3109,5.3405,5.3616,5.3816,5.4103,5.487,5.5993,5.6192,5.6627,5.7188,5.7188,5.7188,5.7188,5.7188,5.7188,5.7188,5.7188,5.7188,5.7188,0.0,0.0,0.0,0.0,0.0,0.0,0.0,0.0,0.0,0.0,0.0,0.0,0.0,0.0,0.0,0.0,0.0,0.0,0.0,0.0,0.0,0.0,0.0,0.0,0.0,4.2835,4.2036,4.0476,4.042,3.9937,3.9101,3.9101,3.9101,0.0,0.0,0.0,0.0,0.0,0.0,0.0,0.0,0.0,0.0,0.0,0.0,0.0,0.0,0.0,0.0,0.0,0.0,0.0,0.0,0.0,0.0,0.0,0.0,4.055,4.1311,4.2188,0.0,0.0,0.0,0.0,0.0,0.0,0.0,0.0,0.0,0.0,0.0,0.0,0.0,4.9265,4.9471,4.9509,4.9509,0.0,4.979,5.0598,5.1405,5.2231,5.3113,5.3921,5.4409,5.4409,5.4409,5.4409,5.4409,5.4356,5.4356,5.4356,5.4036,5.3851,5.3851,5.3565,5.3407,5.3385,5.3849,5.4078,5.4099,5.5287,5.5884,5.6029,5.679,5.7152,5.7188,5.7188,5.7188,5.7188,5.7188,5.7188,5.7188,5.7188,5.7188,5.7188,0.0,0.0,0.0,0.0,0.0,0.0,0.0,0.0,0.0,0.0,0.0,0.0,0.0,0.0,0.0,0.0,0.0,0.0,0.0,0.0,0.0,0.0,0.0,4.2333,4.133,4.1311,4.0996,4.0401,3.9863,3.9417,3.9101,3.9101,0.0,0.0,0.0,0.0,0.0,0.0,0.0,0.0,0.0,0.0,0.0,0.0,0.0,0.0,0.0,0.0,0.0,0.0,0.0,0.0,0.0,0.0,0.0,0.0,0.0,4.1311,4.2129,4.2958,0.0,0.0,0.0,0.0,0.0,0.0,0.0,0.0,0.0,0.0,0.0,0.0,4.892,4.9257,4.9295,4.9295,4.9295,4.9744,5.0394,5.1284,5.2109,5.2934,5.3864,5.4221,5.4409,5.4409,5.4409,5.4409,5.4409,5.3981,5.3776,5.3776,5.3281,5.3048,5.3048,5.2919,5.2831,5.285,5.3705,5.4273,5.4626,5.5553,5.6265,5.6754,5.7062,5.7188,5.7188,5.7188,5.7188,5.7188,5.7188,5.7188,5.7188,5.7188,5.7188,5.7188,0.0,0.0,0.0,0.0,0.0,0.0,0.0,0.0,0.0,0.0,0.0,0.0,0.0,0.0,0.0,0.0,0.0,0.0,0.0,0.0,0.0,0.0,0.0,4.1534,4.042,4.0123,3.9974,3.9974,3.938,3.9101,3.9101,0.0,0.0,0.0,0.0,0.0,0.0,0.0,0.0,0.0,0.0,0.0,0.0,0.0,0.0,0.0,0.0,0.0,0.0,0.0,0.0,0.0,0.0,0.0,0.0,0.0,0.0,0.0,4.2649,4.3392,0.0,0.0,0.0,0.0,0.0,0.0,0.0,0.0,0.0,0.0,0.0,0.0,0.0,0.0,4.9197,4.9197,4.9197,4.9888,5.0744,5.1686,5.251,5.3334,5.4158,5.4233,5.4198,5.4108,5.4072,5.4072,5.4072,5.3662,5.3407,5.3407,5.2919,5.2663,5.2663,5.2526,5.2625,5.2878,5.3872,5.4545,5.4943,5.5921,5.6681,5.7188,5.7188,5.7188,5.7188,5.7188,5.7188,5.7188,5.7188,5.7188,5.7188,5.7188,5.7156,5.7087,0.0,0.0,0.0,0.0,0.0,0.0,0.0,0.0,0.0,0.0,0.0,0.0,0.0,0.0,0.0,0.0,0.0,0.0,0.0,0.0,0.0,0.0,0.0,4.0401,4.0383,3.9547,3.9101,3.9101,3.9101,3.9101,3.9101,0.0,0.0,0.0,0.0,0.0,0.0,0.0,0.0,0.0,0.0,3.9101,3.9101,0.0,0.0,0.0,0.0,0.0,0.0,0.0,0.0,0.0,0.0,0.0,0.0,0.0,4.2184,4.2797,4.2816,4.3392,0.0,0.0,0.0,0.0,0.0,0.0,0.0,0.0,0.0,0.0,0.0,0.0,0.0,4.9197,4.9197,4.9197,4.9197,4.9888,5.0763,5.1705,5.251,5.3246,5.3833,5.3907,5.3776,5.3407,5.3407,5.3407,5.3407,5.3407,5.3407,5.3407,5.3133,5.2999,5.2999,5.2663,5.2915,5.3711,5.4526,5.4907,5.4961,5.65,5.7188,5.7188,5.7188,5.7188,5.7188,5.7188,5.7188,5.7188,5.7188,5.7188,5.7188,5.7188,5.7054,5.6794,0.0,0.0,0.0,0.0,0.0,0.0,0.0,0.0,0.0,0.0,0.0,0.0,0.0,0.0,0.0,0.0,0.0,0.0,0.0,0.0,0.0,0.0,0.0,0.0,0.0,0.0,3.9101,3.9101,3.9101,3.9101,0.0,0.0,0.0,3.9101,0.0,0.0,0.0,0.0,0.0,0.0,0.0,3.9101,3.9101,0.0,0.0,0.0,0.0,0.0,0.0,0.0,0.0,0.0,0.0,0.0,0.0,4.2203,4.2612,4.2927,4.3485,0.0,0.0,0.0,0.0,0.0,0.0,0.0,0.0,0.0,0.0,0.0,0.0,0.0,0.0,4.8978,4.8978,4.9182,4.974,5.0559,5.1413,5.2321,5.316,5.3684,5.3547,5.3565,5.333,5.2859,5.2859,5.2859,5.2859,5.2597,5.2481,5.2481,5.225,5.2066,5.2066,5.1987,5.2333,5.3071,5.3892,5.4759,5.5703,5.6717,5.7188,5.7188,5.7188,5.7188,5.7188,5.7188,5.7188,5.7188,5.7188,5.7188,5.7188,5.7188,5.7156,5.7105,0.0,0.0,0.0,0.0,0.0,0.0,0.0,0.0,0.0,0.0,0.0,0.0,0.0,0.0,0.0,0.0,0.0,0.0,0.0,0.0,0.0,0.0,0.0,0.0,0.0,3.9101,3.9101,0.0,0.0,0.0,0.0,0.0,0.0,3.9101,0.0,0.0,0.0,0.0,0.0,3.9045,3.9045,3.9249,3.9527,0.0,0.0,0.0,0.0,0.0,0.0,0.0,0.0,0.0,0.0,0.0,0.0,4.2996,4.325,4.3373,4.3875,0.0,0.0,0.0,0.0,0.0,0.0,0.0,0.0,0.0,0.0,0.0,4.8909,4.8909,0.0,4.8909,4.8909,4.9187,4.9986,5.0859,5.164,5.2345,5.3179,5.3447,5.2938,5.2895,5.2722,5.2271,5.2224,5.2224,5.2224,5.2054,5.1928,5.1928,5.1804,5.169,5.169,5.169,5.2225,5.3296,5.376,5.4773,5.6196,5.6768,5.7105,5.7188,5.7188,5.7188,5.7188,5.7188,5.7188,5.7188,5.7188,5.7188,5.7188,5.7188,5.7138,5.7054,0.0,0.0,0.0,0.0,0.0,0.0,0.0,0.0,0.0,0.0,0.0,0.0,0.0,0.0,0.0,0.0,0.0,0.0,0.0,0.0,0.0,0.0,0.0,0.0,0.0,0.0,0.0,0.0,0.0,0.0,0.0,0.0,3.9101,3.9101,0.0,3.9101,0.0,3.911,3.909,3.9108,3.9211,3.9692,4.0341,4.0418,0.0,0.0,0.0,0.0,0.0,0.0,0.0,0.0,0.0,0.0,0.0,4.3693,4.3942,4.4005,0.0,0.0,0.0,0.0,0.0,0.0,0.0,0.0,0.0,0.0,0.0,4.8909,4.8909,4.8909,4.8909,4.8909,4.8964,4.9299,5.0098,5.0934,5.1621,5.2069,5.2706,5.2834,5.2112,5.2065,5.1928,5.164,5.164,5.164,5.164,5.164,5.164,5.164,5.164,5.164,5.164,5.164,5.2406,5.3939,5.3939,5.4777,5.6328,5.6653,5.6899,5.7156,5.7156,5.7156,5.7156,5.7138,5.7156,5.7138,5.7188,5.7188,5.7138,5.7188,5.6984,5.6794,0.0,0.0,0.0,0.0,0.0,0.0,0.0,0.0,0.0,0.0,0.0,0.0,0.0,0.0,0.0,0.0,0.0,0.0,0.0,0.0,0.0,0.0,0.0,0.0,0.0,0.0,0.0,0.0,0.0,0.0,0.0,0.0,0.0,3.9101,0.0,3.9007,0.0,3.9692,3.9952,4.0007,4.0693,4.1082,4.123,4.1151,4.1213,0.0,0.0,0.0,0.0,0.0,0.0,0.0,0.0,4.3606,4.3675,4.3886,4.3974,4.4005,0.0,0.0,0.0,0.0,0.0,0.0,0.0,0.0,0.0,0.0,4.8909,4.8909,4.8909,4.8909,4.8909,4.8909,4.9429,5.0153,5.1008,5.1525,5.2063,5.2771,5.2656,5.2299,5.1782,5.1683,5.1518,5.1088,5.1088,5.1088,5.1088,5.1088,5.1088,5.1088,5.1088,5.1088,5.1088,5.1088,5.1863,5.3379,5.3379,5.4303,5.6032,5.6328,5.6492,5.66,5.66,5.66,5.66,5.6794,5.6742,5.66,5.7054,5.6951,5.6653,5.7036,5.6899,5.6546,0.0,0.0,0.0,0.0,0.0,0.0,0.0,0.0,0.0,0.0,0.0,0.0,0.0,0.0,0.0,0.0,0.0,0.0,0.0,0.0,0.0,0.0,0.0,0.0,0.0,0.0,0.0,0.0,0.0,0.0,0.0,0.0,0.0,3.9714,0.0,3.9804,4.0288,4.0589,4.0725,4.0781,4.1225,4.1619,4.192,4.1902,4.2078,4.2429,0.0,0.0,0.0,0.0,0.0,0.0,0.0,0.0,4.3749,4.3814,4.3846,4.399,0.0,0.0,0.0,0.0,0.0,0.0,0.0,0.0,0.0,0.0,4.8909,4.8909,4.8909,4.8909,4.8909,4.8909,4.938,5.0064,5.0895,5.1312,5.1715,5.229,5.2149,5.1782,5.1297,5.1245,5.1158,5.0945,5.0891,5.0891,5.0891,5.0891,5.0891,5.0891,5.0891,5.0891,5.0891,5.1242,5.2014,5.3173,5.3559,5.4446,5.5706,5.6162,5.6401,5.6401,5.6401,5.6401,5.6401,5.6546,5.6546,5.6455,5.6689,5.6653,5.6437,5.6689,5.6653,5.6455,0.0,0.0,0.0,0.0,0.0,0.0,0.0,0.0,0.0,0.0,0.0,0.0,0.0,0.0,0.0,0.0,0.0,0.0,0.0,0.0,0.0,0.0,0.0,0.0,0.0,0.0,0.0,0.0,0.0,0.0,0.0,0.0,0.0,4.0577,0.0,0.0,4.156,4.1521,4.1514,4.1533,4.1662,4.206,4.2603,4.2668,0.0,0.0,0.0,0.0,0.0,0.0,0.0,0.0,0.0,0.0,4.3652,4.3781,4.3922,4.4206,0.0,0.0,0.0,0.0,0.0,0.0,0.0,0.0,0.0,4.8909,4.8909,4.8909,4.8909,4.882,4.8841,4.897,4.9304,4.9761,5.0547,5.0965,5.1315,5.1579,5.1518,5.1349,5.0945,5.0891,5.0891,5.0891,5.0891,5.0891,5.0891,5.0891,5.0891,5.0891,5.0891,5.0891,5.0891,5.1645,5.24,5.319,5.4086,5.4875,5.5507,5.6011,5.6235,5.6235,5.6235,5.6235,5.6235,5.6273,5.629,5.6217,5.6346,5.6346,5.6235,5.6346,5.6346,5.629,0.0,0.0,0.0,0.0,0.0,0.0,0.0,0.0,0.0,0.0,0.0,0.0,0.0,0.0,0.0,0.0,0.0,0.0,0.0,0.0,0.0,0.0,0.0,0.0,0.0,0.0,0.0,0.0,0.0,0.0,0.0,0.0,0.0,0.0,0.0,0.0,0.0,4.2118,4.2451,4.2474,4.3059,4.3358,4.3416,0.0,0.0,0.0,0.0,0.0,0.0,0.0,0.0,0.0,0.0,0.0,4.3763,4.4583,4.4853,4.5086,0.0,0.0,0.0,0.0,0.0,0.0,0.0,0.0,0.0,0.0,4.8909,4.8909,4.8909,4.8605,4.8603,4.9226,4.9674,5.0196,5.0931,5.1311,5.1526,5.1601,5.1245,5.0981,5.0891,5.0891,5.0891,5.0891,5.0891,5.0891,5.0891,5.0891,5.0891,5.0891,5.0891,5.0891,5.0891,5.1645,5.24,5.3208,5.4647,5.542,5.5507,5.5566,5.5625,5.5625,5.5625,5.5625,5.5625,5.5879,5.5822,5.5683,5.6179,5.6067,5.5666,5.6235,5.6067,5.5666,0.0,0.0,0.0,0.0,0.0,0.0,0.0,0.0,0.0,0.0,0.0,0.0,0.0,0.0,0.0,0.0,0.0,0.0,0.0,0.0,0.0,0.0,0.0,0.0,0.0,0.0,0.0,0.0,0.0,0.0,0.0,4.1876,4.1943,0.0,0.0,0.0,0.0,0.0,0.0,4.3203,4.3487,4.3582,0.0,0.0,0.0,0.0,0.0,0.0,0.0,0.0,0.0,0.0,4.4064,0.0,0.0,0.0,0.0,0.0,0.0,0.0,0.0,0.0,0.0,0.0,0.0,0.0,4.8909,4.8909,4.8909,4.882,4.8605,4.877,4.8922,4.899,4.9685,5.0336,5.0659,5.0987,5.1211,5.1211,5.1034,5.0891,5.0891,5.0891,5.0891,5.0891,5.0891,5.0891,5.0891,5.0891,5.0891,5.0891,5.0891,5.0891,5.0891,5.2067,5.3278,5.4507,5.5191,5.5507,5.5507,5.5507,5.5507,5.5507,5.5507,5.5507,5.5507,5.5607,5.5607,5.5507,5.5782,5.5724,5.5507,5.5782,5.5742,5.5507,0.0,0.0,0.0,0.0,0.0,0.0,0.0,0.0,0.0,0.0,0.0,0.0,0.0,0.0,0.0,0.0,0.0,0.0,0.0,0.0,0.0,0.0,0.0,0.0,0.0,0.0,0.0,0.0,0.0,0.0,4.3008,4.3052,4.3083,0.0,4.2894,0.0,0.0,0.0,0.0,0.0,0.0,0.0,0.0,0.0,0.0,0.0,0.0,0.0,0.0,0.0,0.0,0.0,0.0,0.0,0.0,0.0,0.0,0.0,0.0,0.0,0.0,0.0,0.0,0.0,0.0,0.0,4.8874,0.0,4.8916,4.8864,4.8346,4.8762,4.919,4.9117,4.9752,5.0282,5.0495,5.0752,5.0891,5.0891,5.0891,5.0891,5.0891,5.0891,5.0891,5.0891,5.0891,5.0891,5.0891,5.0891,5.0891,5.0891,5.0891,5.0978,5.1171,5.2699,5.4156,5.5507,5.5507,5.5507,5.5507,5.5507,5.5507,5.5507,5.5507,5.5507,5.5507,5.5507,5.5507,5.5507,5.5507,5.5507,5.5507,5.5507,5.5507,5.5507,0.0,0.0,0.0,0.0,0.0,0.0,0.0,0.0,0.0,0.0,0.0,0.0,0.0,0.0,0.0,0.0,0.0,0.0,0.0,0.0,0.0,0.0,0.0,0.0,0.0,0.0,0.0,0.0,0.0,0.0,4.3841,4.3841,4.3841,4.3841,4.3886,4.3892,4.3804,0.0,0.0,0.0,0.0,0.0,0.0,0.0,0.0,0.0,0.0,0.0,0.0,0.0,0.0,0.0,0.0,0.0,0.0,0.0,0.0,0.0,0.0,0.0,0.0,0.0,0.0,0.0,0.0,0.0,4.8785,4.842,4.8875,4.9131,4.8281,4.8443,4.9081,5.0133,4.9973,4.9996,5.0769,5.0909,5.0891,5.0891,5.0891,5.0891,5.0891,5.0891,5.0891,5.0891,5.0891,5.0891,5.0891,5.0891,5.0891,5.0891,5.0891,5.1242,5.1961,5.3471,5.4682,5.5507,5.5507,5.5507,5.5507,5.5507,5.5507,5.5507,5.5507,5.5507,5.5507,5.5507,5.5507,5.5507,5.5507,5.5507,5.5507,5.5507,5.5507,5.5507,0.0,0.0,0.0,0.0,0.0,0.0,0.0,0.0,0.0,0.0,0.0,0.0,0.0,0.0,0.0,0.0,0.0,0.0,0.0,0.0,0.0,0.0,0.0,0.0,0.0,0.0,0.0,0.0,0.0,4.3883,4.3837,4.3929,4.3929,4.3818,4.3767,4.3734,4.3667,4.3634,0.0,0.0,0.0,0.0,0.0,0.0,0.0,0.0,0.0,0.0,0.0,0.0,0.0,0.0,0.0,0.0,0.0,0.0,0.0,0.0,0.0,0.0,0.0,0.0,0.0,0.0,4.8678,4.8495,4.8212,4.8096,4.8457,4.8808,4.8681,4.9293,4.9829,4.992,5.0207,5.0557,5.0855,5.0891,5.0891,5.0891,5.0891,5.0891,5.0891,5.0891,5.0891,5.0891,5.0891,5.0891,5.0891,5.0891,5.0891,5.0891,5.0891,5.1487,5.2751,5.3787,5.47,5.5507,5.5507,5.5507,5.5507,5.5507,5.5507,5.5507,5.5507,5.5507,5.5507,5.5507,5.5507,5.5507,5.5507,5.5507,5.5507,5.5507,5.5507,5.5507,0.0,0.0,0.0,0.0,0.0,0.0,0.0,0.0,0.0,0.0,0.0,0.0,0.0,0.0,0.0,0.0,0.0,0.0,0.0,0.0,0.0,0.0,0.0,0.0,0.0,0.0,0.0,0.0,0.0,0.0,0.0,0.0,4.3897,4.3804,4.3667,0.0,0.0,0.0,0.0,4.3513,0.0,0.0,4.3497,0.0,0.0,0.0,0.0,0.0,0.0,0.0,0.0,0.0,0.0,0.0,0.0,0.0,0.0,0.0,0.0,0.0,0.0,0.0,0.0,0.0,4.8587,0.0,4.8151,4.8324,4.8586,4.8918,4.9284,4.99,5.0311,5.0136,5.0539,5.0891,5.0891,5.0891,5.0891,5.0891,5.0891,5.0891,5.0891,5.0891,5.0891,5.0891,5.0891,5.0891,5.0891,5.0891,5.0996,5.1259,5.1523,5.226,5.3559,5.4314,5.4981,5.5507,5.5507,5.5507,5.5507,5.5507,5.5507,5.5507,5.5507,5.5607,5.5764,5.5549,5.5607,5.5764,5.5549,5.5507,5.5507,5.5507,5.5507,5.556,0.0,0.0,0.0,0.0,0.0,0.0,0.0,0.0,0.0,0.0,0.0,0.0,0.0,0.0,0.0,0.0,0.0,0.0,0.0,0.0,0.0,0.0,0.0,0.0,0.0,0.0,0.0,0.0,0.0,0.0,0.0,0.0,4.3851,0.0,4.3667,4.3667,4.3804,0.0,4.3719,4.3582,0.0,4.3548,4.3497,0.0,0.0,0.0,4.4709,4.5241,0.0,4.5938,0.0,0.0,0.0,0.0,0.0,0.0,0.0,0.0,0.0,0.0,0.0,0.0,0.0,0.0,4.8569,0.0,4.8698,4.9117,4.9358,4.9603,5.0019,5.024,5.0526,5.0819,5.0891,5.0891,5.0891,5.0891,5.0891,5.0891,5.0891,5.0891,5.0891,5.0891,5.0891,5.0891,5.0891,5.0891,5.0891,5.0891,5.1242,5.1997,5.2769,5.3541,5.4296,5.5104,5.5507,5.5507,5.5507,5.5507,5.5507,5.5507,5.5507,5.5507,5.5507,5.5804,5.6257,5.5706,5.5822,5.6201,5.5706,5.5507,5.5507,5.5507,5.5507,5.5613,0.0,0.0,0.0,0.0,0.0,0.0,0.0,0.0,0.0,0.0,0.0,0.0,0.0,0.0,0.0,0.0,0.0,0.0,0.0,0.0,0.0,0.0,0.0,0.0,0.0,0.0,0.0,0.0,0.0,0.0,0.0,0.0,0.0,0.0,4.38,4.3818,4.3804,4.3634,0.0,0.0,4.3566,4.3532,0.0,0.0,0.0,0.0,0.0,4.5608,4.6783,0.0,4.7315,4.7976,0.0,0.0,0.0,0.0,0.0,0.0,4.8306,0.0,0.0,0.0,0.0,0.0,0.0,0.0,4.8075,4.8768,4.9217,4.9609,4.9918,5.0488,5.0857,5.0582,5.0526,5.0526,5.0526,5.0526,5.0526,5.0526,5.0526,5.0526,5.0526,5.062,5.0657,0.0,5.0819,5.0891,5.0891,5.0891,5.1242,5.1997,5.2769,5.3541,5.4296,5.5104,5.5507,5.5507,5.5507,5.5507,5.5507,5.5507,5.5507,5.5507,5.5507,5.5804,5.6257,5.5706,5.5607,5.5706,5.5566,5.5507,5.5507,5.5507,5.5507,5.5613,0.0,0.0,0.0,0.0,0.0,0.0,0.0,0.0,0.0,0.0,0.0,0.0,0.0,0.0,0.0,0.0,0.0,0.0,0.0,0.0,0.0,0.0,0.0,0.0,0.0,0.0,0.0,0.0,0.0,0.0,0.0,0.0,0.0,0.0,0.0,0.0,0.0,0.0,0.0,0.0,4.36,0.0,0.0,4.3993,4.4709,0.0,0.0,0.0,4.7609,4.7609,4.7921,0.0,0.0,0.0,0.0,0.0,0.0,0.0,0.0,0.0,0.0,0.0,0.0,0.0,4.8306,4.8075,4.8225,4.9391,4.9665,4.997,5.0776,5.0994,5.091,5.0602,5.0359,5.0246,5.0359,5.0415,5.0415,5.0415,5.0415,5.0415,5.0415,5.0492,5.0602,5.0492,5.0747,5.0891,5.0891,5.1189,5.1716,5.2488,5.3243,5.4033,5.4805,5.5279,5.5507,5.5507,5.5507,5.5507,5.5507,5.5507,5.5507,5.5507,5.5507,5.5666,5.5957,5.5607,5.5607,5.5804,5.5607,5.5666,5.5822,5.5549,5.586,5.6387,0.0,0.0,0.0,0.0,0.0,0.0,0.0,0.0,0.0,0.0,0.0,0.0,0.0,0.0,0.0,0.0,0.0,0.0,0.0,0.0,0.0,0.0,0.0,0.0,0.0,0.0,0.0,0.0,0.0,0.0,0.0,0.0,0.0,0.0,0.0,0.0,0.0,0.0,0.0,4.3933,4.3796,4.4173,0.0,0.0,4.5792,4.7113,4.7113,4.7627,4.8306,4.8306,4.8344,0.0,0.0,0.0,0.0,0.0,4.8344,0.0,0.0,0.0,0.0,0.0,0.0,0.0,4.8306,4.8306,4.8746,5.0343,5.0362,5.055,5.2009,5.1547,5.0964,5.091,5.0453,5.0149,5.0302,5.0359,5.0359,5.0359,5.0359,5.0359,5.0359,5.0509,5.0492,5.0415,5.071,5.0891,5.0891,5.161,5.2365,5.3155,5.391,5.47,5.5507,5.5507,5.5507,5.5507,5.5507,5.5507,5.5507,5.5507,5.5507,5.5507,5.5507,5.5507,5.5549,5.5507,5.5764,5.6164,5.5724,5.5804,5.6164,5.5666,5.6281,5.7391,0.0,0.0,0.0,0.0,0.0,0.0,0.0,0.0,0.0,0.0,0.0,0.0,0.0,0.0,0.0,0.0,0.0,0.0,0.0,0.0,0.0,0.0,0.0,0.0,0.0,0.0,0.0,0.0,0.0,0.0,0.0,0.0,0.0,0.0,0.0,0.0,0.0,0.0,0.0,4.4764,4.4731,0.0,4.5663,4.5808,4.636,4.7113,4.7113,4.7627,4.8306,4.8306,4.8458,4.8711,0.0,0.0,0.0,0.0,0.0,0.0,0.0,0.0,0.0,0.0,0.0,0.0,4.8306,4.8306,4.86,4.9609,5.0263,5.0811,5.133,5.177,5.1964,5.15,5.0999,5.0509,5.0149,5.0051,5.0051,5.0051,5.0051,5.0051,5.0051,5.0189,5.0302,5.0246,5.0509,5.0729,5.0891,5.161,5.2365,5.3155,5.391,5.47,5.5507,5.5507,5.5507,5.5507,5.5507,5.5507,5.5507,5.5507,5.5507,5.5507,5.5507,5.5764,5.6108,5.5666,5.5566,5.5666,5.5566,5.5549,5.5666,5.5566,5.6023,5.6863,0.0,0.0,0.0,0.0,0.0,0.0,0.0,0.0,0.0,0.0,0.0,0.0,0.0,0.0,0.0,0.0,0.0,0.0,0.0,0.0,0.0,0.0,0.0,0.0,0.0,0.0,0.0,0.0,0.0,0.0,0.0,0.0,0.0,0.0,0.0,0.0,0.0,0.0,4.5601,4.6255,4.5796,0.0,4.6507,4.6636,4.7095,4.7719,4.7719,4.807,4.8569,4.8569,4.8763,0.0,0.0,4.9048,4.9048,0.0,4.8797,4.8569,0.0,0.0,0.0,4.8306,0.0,0.0,0.0,4.8306,4.8545,4.9407,4.9903,5.0464,5.1426,5.1736,5.1845,5.2006,5.1551,5.1105,5.0857,5.0359,5.0011,5.0011,5.0011,5.0011,5.0011,5.0092,5.0246,5.0285,5.0341,5.0509,5.0747,5.1833,5.2713,5.3173,5.4296,5.5104,5.5507,5.5507,5.5507,5.5507,5.5507,5.5507,5.5507,5.5507,5.5507,5.5507,5.5507,5.5666,5.5861,5.5607,5.5507,5.5507,5.5507,5.5648,5.5897,5.6012,5.6687,5.7665,0.0,0.0,0.0,0.0,0.0,0.0,0.0,0.0,0.0,0.0,0.0,0.0,0.0,0.0,0.0,0.0,0.0,0.0,0.0,0.0,0.0,0.0,0.0,4.3649,0.0,0.0,0.0,0.0,0.0,0.0,0.0,0.0,0.0,0.0,0.0,0.0,0.0,0.0,0.0,4.7546,0.0,4.6983,4.7408,4.75,4.7868,4.8363,4.8306,4.8532,4.8816,4.8816,4.9048,4.9394,4.9394,4.9394,0.0,0.0,0.0,0.0,0.0,0.0,0.0,0.0,0.0,4.8306,0.0,0.0,0.0,4.9187,4.9462,0.0,0.0,0.0,0.0,5.2018,0.0,0.0,0.0,5.0805,0.0,5.0166,5.0051,5.0011,5.0011,5.0109,5.0189,5.0359,5.0246,5.0354,5.0756,5.2101,5.2997,5.3344,5.4712,5.5448,5.5507,5.5507,5.5507,5.5507,5.5507,5.5507,5.5507,5.5507,5.5507,5.5507,5.5507,5.5566,5.5666,5.5566,5.5566,5.5666,5.5566,5.5852,5.6393,5.6529,5.7458,5.8698,0.0,0.0,0.0,0.0,0.0,0.0,0.0,0.0,0.0,0.0,0.0,0.0,0.0,0.0,0.0,0.0,0.0,0.0,4.3497,0.0,0.0,0.0,0.0,0.0,4.4005,0.0,0.0,0.0,0.0,0.0,0.0,0.0,0.0,0.0,4.4726,0.0,0.0,0.0,4.6851,0.0,4.832,4.8527,0.0,4.8458,4.8458,4.8457,4.8344,4.8532,4.8816,0.0,4.9209,4.973,0.0,4.973,4.973,0.0,0.0,0.0,0.0,0.0,0.0,0.0,4.8306,0.0,0.0,0.0,4.8343,4.8434,0.0,0.0,0.0,0.0,0.0,0.0,0.0,0.0,5.1338,5.137,5.1262,5.0766,5.0302,5.0011,5.0011,4.9993,5.0109,5.0189,5.0189,5.0523,5.1355,5.2225,5.3084,5.3958,5.478,5.5336,5.5507,5.5507,5.5507,5.5507,5.5507,5.5507,5.5507,5.5507,5.5507,5.5507,5.5507,5.5764,5.6164,5.5724,5.5764,5.6164,5.5666,5.5971,5.6593,5.6561,5.7622,5.894,0.0,0.0,0.0,0.0,0.0,0.0,0.0,0.0,0.0,0.0,0.0,0.0,0.0,0.0,0.0,0.0,0.0,4.3497,0.0,0.0,0.0,0.0,0.0,0.0,0.0,0.0,0.0,0.0,4.5049,0.0,0.0,0.0,0.0,0.0,4.5342,0.0,4.6613,0.0,0.0,0.0,0.0,0.0,0.0,4.8732,4.8642,4.8457,4.8363,4.864,4.908,0.0,4.956,0.0,0.0,0.0,0.0,0.0,0.0,0.0,0.0,0.0,0.0,0.0,0.0,0.0,4.8306,0.0,4.8306,0.0,0.0,0.0,0.0,0.0,0.0,0.0,5.1864,0.0,0.0,0.0,5.1866,5.1314,0.0,0.0,5.091,5.091,5.0803,5.0547,5.0547,5.0767,5.1361,5.2178,5.3077,5.408,5.4815,5.5277,5.5507,5.5507,5.5507,5.5507,5.5507,5.5507,5.5507,5.5507,5.5507,5.5507,5.5507,5.5607,5.5804,5.5607,5.5607,5.5857,5.6082,5.6332,5.6666,5.7122,5.8018,5.9071,0.0,0.0,0.0,0.0,0.0,0.0,0.0,0.0,0.0,0.0,0.0,0.0,4.3497,4.3497,0.0,0.0,4.3497,4.3497,0.0,0.0,4.3497,0.0,0.0,0.0,0.0,0.0,0.0,0.0,0.0,0.0,0.0,0.0,0.0,0.0,0.0,4.6443,4.7701,0.0,0.0,4.8909,4.8909,4.8909,4.8909,4.8822,4.8697,4.8513,4.8401,4.8746,4.9283,4.9283,4.973,0.0,5.0302,0.0,0.0,0.0,0.0,0.0,4.983,0.0,0.0,0.0,0.0,0.0,0.0,0.0,0.0,0.0,0.0,0.0,0.0,0.0,0.0,0.0,0.0,5.2454,0.0,5.2722,0.0,0.0,0.0,0.0,0.0,5.1601,5.1365,5.0857,5.0803,5.1022,5.1499,5.2104,5.2986,5.4276,5.4817,5.5234,5.5431,5.5431,5.5448,5.5507,5.5507,5.5507,5.5507,5.5507,5.5507,5.5507,5.5666,5.5706,5.5706,5.5706,5.583,5.6059,5.6445,5.6859,5.7333,5.7912,5.8632,5.9387,0.0,4.5381,0.0,0.0,0.0,0.0,0.0,0.0,0.0,0.0,0.0,0.0,0.0,0.0,0.0,0.0,0.0,4.3497,4.3497,0.0,4.3497,0.0,0.0,4.4005,0.0,0.0,0.0,0.0,0.0,0.0,0.0,0.0,0.0,0.0,0.0,4.6629,4.7701,4.7701,4.8166,4.8909,4.8909,4.8909,4.8909,0.0,4.8697,4.8513,4.8513,0.0,0.0,4.9283,4.973,0.0,0.0,0.0,0.0,0.0,0.0,0.0,0.0,0.0,0.0,4.8967,0.0,0.0,0.0,0.0,4.8306,0.0,0.0,0.0,0.0,0.0,0.0,0.0,0.0,0.0,0.0,0.0,0.0,0.0,0.0,0.0,0.0,5.1601,5.1365,5.0857,5.0803,5.1193,5.2097,5.2218,5.2986,5.4693,5.478,5.4948,5.5199,5.5199,5.5277,5.5507,5.5507,5.5507,5.5507,5.5507,5.5507,5.5507,5.607,5.6257,5.6257,5.6257,5.6684,5.7288,5.6799,5.7561,5.8931,5.8966,5.944,6.0072,0.0,0.0,0.0,0.0,0.0,0.0,0.0,4.3832,0.0,0.0,0.0,0.0,0.0,4.3497,4.3497,0.0,0.0,4.3497,4.3497,4.3497,0.0,0.0,0.0,4.4017,0.0,0.0,0.0,0.0,0.0,0.0,0.0,0.0,0.0,0.0,0.0,4.7964,0.0,0.0,0.0,0.0,0.0,4.8909,4.8909,0.0,4.8751,4.8679,4.855,4.8887,0.0,4.999,5.0628,5.1257,5.1792,5.1945,5.1945,5.1945,5.1945,5.1921,0.0,0.0,5.1405,5.1153,0.0,0.0,0.0,0.0,0.0,0.0,0.0,0.0,0.0,0.0,0.0,0.0,0.0,0.0,0.0,0.0,0.0,0.0,0.0,0.0,0.0,0.0,5.2472,5.1915,5.1518,5.1723,5.2654,5.2364,5.2986,5.4745,5.4797,5.4948,5.5199,5.5199,5.5277,5.5507,5.5507,5.5666,5.6014,5.6014,5.6201,5.6564,5.6757,5.6617,5.6347,5.6847,5.6997,5.6964,5.7816,5.8527,5.9001,5.9001,5.9475,6.0089,4.5637,0.0,0.0,0.0,0.0,0.0,0.0,0.0,0.0,0.0,4.3701,0.0,4.3548,0.0,4.3497,0.0,4.3497,4.3497,4.3497,4.3497,0.0,4.3497,4.3936,0.0,0.0,0.0,0.0,0.0,0.0,4.5667,0.0,0.0,0.0,0.0,0.0,0.0,4.8909,0.0,4.8993,0.0,0.0,4.8909,0.0,0.0,4.8822,4.8787,0.0,4.9176,5.0048,5.0496,5.129,5.2141,5.2681,5.281,5.2805,5.2805,5.2805,5.2805,5.2805,5.2641,0.0,5.237,5.1783,0.0,5.0679,0.0,4.9266,0.0,0.0,0.0,0.0,0.0,0.0,0.0,0.0,0.0,0.0,5.3206,0.0,0.0,0.0,0.0,0.0,0.0,5.2974,5.2454,5.206,5.2279,5.3296,5.2799,5.3254,5.4939,5.4824,5.493,5.5385,5.5242,5.5336,5.5746,5.5607,5.5666,5.6014,5.6014,5.6201,5.6564,5.6704,5.6617,5.6365,5.7114,5.737,5.7423,5.8536,5.9159,5.9387,5.9387,5.9812,6.0432,0.0,0.0,0.0,0.0,4.4318,0.0,0.0,0.0,4.3897,0.0,4.3716,4.3615,4.3615,4.3548,4.3532,4.3532,4.3532,4.3479,4.3479,4.3479,0.0,0.0,4.4154,4.4364,4.4058,0.0,0.0,0.0,0.0,0.0,0.0,0.0,0.0,0.0,4.8886,0.0,4.8943,4.9239,4.9225,4.8909,4.8909,4.8909,4.8909,4.8946,4.8913,4.8842,4.8842,4.9735,5.0873,5.091,5.1836,5.2981,5.302,5.2992,5.2944,5.2944,5.2944,5.2944,5.2944,5.2944,5.2875,5.2612,5.2528,0.0,0.0,0.0,5.0391,0.0,0.0,0.0,0.0,0.0,0.0,0.0,0.0,0.0,0.0,0.0,0.0,0.0,0.0,0.0,0.0,5.3206,5.2974,5.2454,5.2408,5.284,0.0,5.3366,5.377,5.5391,5.4896,5.4983,5.5851,5.5301,5.5478,5.6311,5.5764,5.5507,5.5566,5.5566,5.5549,5.5607,5.6108,5.6329,5.6418,5.7168,5.7953,5.8677,5.895,5.9538,6.0216,6.0153,6.0494,6.1004,4.5719,4.5264,4.477,0.0,4.4158,4.4005,0.0,0.0,0.0,0.0,4.3865,4.38,4.3753,4.3719,4.3719,4.3719,4.3634,0.0,0.0,0.0,0.0,4.3849,4.4308,4.465,4.4806,4.5263,0.0,4.5476,0.0,0.0,4.6913,0.0,0.0,0.0,0.0,0.0,4.9289,4.9365,4.9225,4.8909,4.8909,4.8909,4.8964,0.0,4.9765,4.9765,4.9712,5.0628,5.1914,5.2458,5.324,5.4043,5.4637,5.4829,5.4805,5.4805,5.4805,5.4805,5.4805,5.4805,5.4805,5.4738,5.4235,5.3702,0.0,0.0,0.0,0.0,0.0,0.0,0.0,0.0,0.0,0.0,0.0,0.0,0.0,0.0,0.0,5.3206,0.0,0.0,5.3206,5.3206,5.3164,5.2999,5.2608,5.2983,5.444,5.3955,5.442,5.6002,5.5946,5.6112,5.6474,5.5981,5.5925,5.6311,5.5764,5.5706,5.6108,5.6108,5.6311,5.6722,5.6809,5.6975,5.7204,5.795,5.8792,5.9577,6.0238,6.0902,6.1394,6.0945,6.0843,6.1063,4.575,0.0,0.0,4.4285,0.0,0.0,4.4005,4.4005,0.0,4.3961,4.3929,0.0,4.3851,4.4151,4.4321,4.4321,4.4568,0.0,4.4752,0.0,0.0,4.5177,4.5556,4.5899,4.6183,4.6474,0.0,4.6682,0.0,0.0,4.8009,0.0,0.0,0.0,0.0,5.0106,0.0,4.9457,4.9225,4.8909,4.8909,4.9113,0.0,4.993,5.0562,5.1193,5.1139,5.1874,5.2891,5.3267,5.4082,5.4956,5.5397,5.5527,5.5504,5.5504,5.5504,5.5504,5.5504,5.5504,5.5504,5.5527,5.5205,5.4771,5.4447,5.3593,5.2872,0.0,5.1966,5.1436,0.0,0.0,0.0,0.0,0.0,0.0,0.0,0.0,0.0,0.0,5.3206,0.0,5.3206,5.3206,5.3206,5.3206,5.2912,5.3453,5.502,5.453,5.4999,5.6598,5.6474,5.6474,5.6704,5.6222,5.6075,5.6311,5.5764,5.5666,5.5957,5.5957,5.6257,5.6775,5.7117,5.746,5.7873,5.9041,5.9777,6.0244,6.107,6.162,6.1897,6.1751,6.1751,6.1806,0.0,0.0,0.0,0.0,0.0,0.0,0.0,4.4135,0.0,4.4153,0.0,4.4101,4.4212,4.4794,4.5204,4.5204,0.0,4.6221,4.6221,4.6255,4.642,4.6761,4.7089,4.7384,4.7665,4.7952,4.8105,0.0,0.0,0.0,0.0,0.0,0.0,0.0,0.0,0.0,0.0,4.9499,4.9281,4.9057,4.9057,4.954,5.0283,5.0395,5.1342,5.2605,5.2717,5.3196,5.3745,5.3745,5.458,5.5618,5.5618,5.5573,5.5527,5.5527,5.5527,5.5527,5.5527,5.5527,5.5551,5.5596,5.5618,5.5531,5.5256,5.4606,5.4177,5.4538,5.3193,5.2401,5.3772,0.0,0.0,0.0,0.0,0.0,0.0,0.0,0.0,0.0,0.0,0.0,5.3206,5.3206,5.3206,5.3206,5.3206,5.3904,5.55,0.0,5.5583,5.718,5.6858,5.6703,5.6827,5.6438,5.6295,5.642,5.5901,5.5706,5.5706,5.5706,5.6011,5.6599,5.7278,5.7999,5.8691,6.0139,6.0826,6.1042,6.1822,6.2112,6.2166,6.2663,6.2867,6.2978,0.0,0.0,0.0,0.0,0.0,4.5487,4.6065,4.491,4.4265,4.4971,4.5064,4.5291,4.596,4.6164,4.6257,4.6257,4.6283,0.0,0.0,0.0,0.0,4.7089,4.7433,4.7747,4.801,4.8068,4.8105,0.0,0.0,0.0,0.0,0.0,0.0,0.0,0.0,0.0,4.9776,4.9499,0.0,4.9893,4.9893,5.0395,5.1249,5.1918,5.2345,5.2698,5.3348,5.404,5.4598,5.4598,5.5084,5.5662,5.5662,5.5662,5.5662,5.5662,5.5662,5.5662,5.5662,5.5662,5.5682,5.5682,5.5662,5.5662,5.5599,5.5303,5.5071,5.5153,5.4581,5.4113,5.424,0.0,0.0,0.0,0.0,0.0,0.0,0.0,0.0,0.0,0.0,5.3206,0.0,5.3206,5.3206,5.3206,5.3206,5.3904,5.55,0.0,5.6173,0.0,5.7978,5.7867,0.0,0.0,5.7346,5.6964,5.6861,5.6809,5.6809,5.6809,5.7203,5.7991,5.8117,5.8983,6.032,6.0592,6.1363,6.2393,6.3055,6.3289,6.3289,6.34,6.3854,6.4429,0.0,0.0,0.0,0.0,0.0,0.0,0.0,4.5916,4.5499,4.5862,4.5918,4.6067,4.6457,4.6865,4.7125,4.7125,4.7445,4.7652,4.7652,4.7946,4.8265,4.8537,4.8843,4.9133,4.9452,4.9452,4.9452,4.9452,0.0,0.0,0.0,0.0,0.0,0.0,0.0,5.0689,0.0,0.0,0.0,5.1009,5.0838,5.1286,5.2067,5.2457,5.2865,5.3312,5.385,5.4364,5.4806,5.4806,5.5198,5.5703,5.5703,5.5703,5.5703,5.5703,5.5703,5.5703,5.5703,5.5703,5.5703,5.5703,5.5703,5.5703,5.5703,5.5596,5.5527,5.5527,5.5224,5.4886,5.4623,5.4246,0.0,0.0,0.0,0.0,0.0,0.0,0.0,0.0,0.0,0.0,0.0,0.0,0.0,0.0,0.0,5.4528,5.6143,5.6279,5.6856,0.0,0.0,0.0,5.766,0.0,5.7606,5.7116,5.6809,5.667,5.667,5.6814,5.7352,5.8329,5.9196,6.0322,6.1606,6.2028,6.2579,6.3205,6.3492,6.3602,6.3657,6.4085,6.4475,6.4809,0.0,4.7952,0.0,0.0,4.7473,0.0,4.7346,4.7292,4.713,4.6838,4.6754,4.6828,4.6995,4.7571,4.7961,4.7961,4.8537,4.8943,4.8993,4.9302,4.9598,4.9865,5.0159,5.0421,5.0683,5.0702,5.0702,0.0,0.0,0.0,0.0,0.0,0.0,0.0,0.0,0.0,0.0,0.0,5.1679,5.2137,5.1871,5.2196,5.2865,5.2865,5.3274,5.3926,5.4212,5.456,5.4895,5.4895,5.525,5.5703,5.5703,5.5703,5.5703,5.5703,5.5703,5.5703,5.5703,5.5703,5.5703,5.5703,5.5703,5.5703,5.5703,5.5703,5.5703,5.5703,5.5485,5.5217,5.4952,5.4623,0.0,0.0,0.0,0.0,0.0,0.0,0.0,0.0,0.0,0.0,5.323,0.0,0.0,0.0,0.0,5.514,5.673,5.6956,5.7368,5.8115,5.8381,5.8213,5.7671,0.0,5.7747,5.7116,5.6809,5.6564,5.6492,5.6777,5.7525,5.8619,6.0207,6.1563,6.271,6.3342,6.3602,6.3602,6.3602,6.3713,6.3936,6.4586,6.5051,6.5348,0.0,0.0,0.0,0.0,0.0,4.8933,4.9372,4.9429,4.8991,4.7812,4.7623,4.7868,4.8612,4.8742,4.8797,4.8797,4.8872,4.9027,4.9352,4.9598,4.9865,5.0159,5.0483,5.0663,5.0702,5.0702,5.0702,0.0,0.0,5.0702,0.0,0.0,0.0,0.0,0.0,0.0,0.0,5.2652,5.2769,5.2982,5.2949,5.3248,5.3701,5.3701,5.3925,5.4246,5.4281,5.4697,5.5262,5.5262,5.5461,5.5703,5.5703,5.5703,5.5703,5.5703,5.5703,5.5703,5.5703,5.5703,5.5703,5.5703,5.5703,5.5703,5.5703,5.5703,5.5703,5.5703,5.5485,5.5288,5.5262,5.4981,5.4654,0.0,0.0,0.0,0.0,0.0,0.0,0.0,0.0,0.0,0.0,5.3277,0.0,0.0,5.4993,5.5245,5.673,5.7044,5.7431,5.8024,5.8338,5.8231,5.7649,5.8275,5.8105,5.7116,5.7558,5.751,5.7033,5.7794,5.8605,5.9468,6.0802,6.2203,6.349,6.3583,6.3602,6.3602,6.3602,6.4066,6.4716,6.4791,6.5775,6.7075,0.0,0.0,0.0,0.0,0.0,0.0,0.0,4.974,4.9456,4.8776,4.8613,4.8643,4.8978,4.8962,4.8909,4.8909,4.9094,4.9257,4.9384,4.9803,5.0087,5.0206,5.0504,5.0702,5.0702,5.0702,5.0702,0.0,0.0,0.0,0.0,0.0,0.0,0.0,0.0,5.3103,5.3824,5.3604,5.3861,5.4401,5.4193,5.4226,5.4397,5.4397,5.4495,5.4623,5.4836,5.5064,5.5314,5.5504,5.5618,5.5703,5.5703,5.5703,5.5703,5.5703,5.5703,5.5703,5.5703,5.5703,5.5703,5.5703,5.5703,5.5703,5.5703,5.5703,5.5703,5.5703,5.5618,5.5551,5.5551,5.5295,5.4981,5.4654,0.0,0.0,0.0,0.0,0.0,0.0,0.0,0.0,0.0,0.0,0.0,0.0,0.0,5.6031,5.7582,5.7832,5.8024,5.8133,0.0,5.8468,5.8142,5.8511,5.8301,5.7558,5.7462,5.7351,5.7317,5.7754,5.8881,6.046,6.1719,6.2518,6.3044,6.3044,6.327,6.3612,6.3778,6.4214,6.4939,6.5942,6.6741,6.7373,5.0906,0.0,5.07,0.0,5.0528,5.0301,4.9968,4.9884,4.974,4.9402,4.9308,4.923,4.915,4.9113,4.9108,4.9108,4.9389,4.9579,4.9684,5.0062,5.0412,5.0747,5.099,0.0,5.1472,5.1491,5.1491,5.1491,5.1472,0.0,0.0,0.0,0.0,0.0,5.3587,5.4068,5.4857,5.4603,5.4809,5.5288,5.5037,5.4895,5.4806,5.4806,5.4866,5.4981,5.5236,5.5339,5.5437,5.564,5.5703,5.5703,5.5703,5.5703,5.5703,5.5703,5.5703,5.5703,5.5703,5.5703,5.5703,5.5703,5.5703,5.5703,5.5703,5.5703,5.5703,5.5703,5.5703,5.5703,5.5703,5.5551,5.5295,5.4981,0.0,0.0,0.0,5.3851,0.0,0.0,5.3637,5.3656,5.3558,5.3761,0.0,0.0,0.0,5.694,5.8168,5.8443,5.8443,5.8197,0.0,0.0,5.8486,5.8468,5.8213,5.7671,5.7333,5.7155,5.7206,5.7832,5.9317,6.1297,6.2129,6.2645,6.2977,6.2977,6.3353,6.3965,6.4173,6.4739,6.5682,6.6871,6.7465,6.7744,5.0906,5.089,5.089,5.089,5.089,5.0735,5.0275,5.0206,5.0032,4.9563,4.9625,4.9558,4.9244,4.9408,4.9598,4.9598,4.98,5.0016,5.0383,5.0404,5.0911,0.0,0.0,5.2452,5.3242,5.332,5.3358,5.3358,0.0,0.0,5.3282,0.0,5.3645,5.4472,5.4472,5.4934,5.5684,5.5684,5.5531,5.5288,5.5288,5.5111,5.4806,5.4806,5.5028,5.5288,5.5288,5.5461,5.5703,5.5703,5.5703,5.5703,5.5703,5.5703,5.5703,5.5703,5.5703,5.5703,5.5703,5.5703,5.5703,5.5703,5.5703,5.5703,5.5703,5.5703,5.5703,5.5703,5.5703,5.5703,5.5703,5.5703,5.5618,5.5339,0.0,0.0,0.0,5.4,0.0,5.3813,5.3716,5.3714,5.3714,5.4436,0.0,0.0,0.0,5.7738,5.8356,0.0,0.0,5.8197,5.8548,0.0,5.8393,5.8078,5.7653,5.7116,5.7299,5.7096,5.6648,5.8263,6.0072,6.1897,6.1897,6.2548,6.3602,6.3602,6.4085,6.4809,6.4809,6.5831,6.728,6.7298,6.7818,6.8506,5.0906,5.0906,5.0906,5.0906,5.0789,5.0644,5.0507,5.032,5.0135,4.9981,5.0526,5.0894,5.0791,5.0195,5.0035,0.0,5.0918,5.1354,0.0,5.2337,5.2608,5.2972,5.2972,5.3107,5.3358,5.3377,5.3397,5.3397,0.0,0.0,0.0,5.4727,5.5131,5.5381,5.534,5.5453,5.5703,5.5703,5.564,5.5573,5.5573,5.5508,5.5418,5.5418,5.5485,5.5573,5.5573,5.5618,5.5703,5.5703,5.5703,5.5703,5.5703,5.5703,5.5703,5.5703,5.5703,5.5703,5.5703,5.5703,5.5703,5.5703,5.5703,5.5703,5.5703,5.5703,5.5703,5.5703,5.5703,5.5703,5.5703,5.5703,5.5618,5.5339,5.5191,0.0,5.4364,0.0,5.4054,5.3851,5.3774,5.3793,5.3793,5.4517,0.0,0.0,0.0,0.0,0.0,0.0,0.0,0.0,5.859,0.0,5.8486,5.8078,5.7606,5.7116,5.774,5.8466,5.9398,6.0048,6.0948,6.1897,6.2305,6.2663,6.3032,6.3622,6.4221,6.4874,6.5595,6.647,6.7373,6.793,6.8301,6.8506,5.0906,5.0906,5.0906,5.0906,5.0789,5.07,5.0606,5.0696,5.0779,5.0707,5.1503,5.2107,5.2107,5.1571,0.0,5.1859,5.2156,5.255,5.3089,5.332,5.3567,5.3895,5.3914,5.4069,5.4359,5.4378,0.0,5.4378,5.4379,5.4612,5.5094,5.5596,5.5846,5.5826,5.5787,5.5785,5.5766,5.5745,5.5745,5.5745,5.5724,5.5703,5.5703,5.5703,5.5703,5.5703,5.5703,5.5703,5.5703,5.5703,5.5703,5.5703,5.5703,5.5703,5.5703,5.5703,5.5703,5.5761,5.6088,5.6184,5.6184,5.6184,5.6184,5.6088,5.5761,5.5703,5.5703,5.5703,5.5703,5.5703,5.5703,5.5703,5.564,5.5461,5.5364,5.5164,5.4727,0.0,5.4212,0.0,0.0,5.3924,0.0,5.5001,5.5837,0.0,0.0,0.0,0.0,0.0,5.8633,5.8462,5.8633,5.8656,5.8511,5.8105,5.777,5.7569,5.8446,5.9547,6.0807,6.116,6.1658,6.22,6.2544,6.2812,6.3099,6.3947,6.4694,6.5376,6.6365,6.7136,6.7818,6.832,6.8506,6.8506,5.0906,5.0906,5.0925,5.0983,5.0967,5.0938,5.0817,5.1433,5.1834,5.166,5.2562,5.3224,5.3224,5.3491,5.3565,5.332,0.0,0.0,5.3672,5.3672,5.4039,5.4851,5.4871,5.5238,5.5993,5.6012,5.6012,5.6012,5.5998,5.5981,5.5905,5.5905,5.5905,5.5905,5.5905,5.5905,5.5905,5.5826,5.5787,5.5787,5.5724,5.5684,5.5703,5.5703,5.5703,5.5703,5.5703,5.5703,5.5703,5.5703,5.5703,5.5703,5.5761,5.578,5.578,5.578,5.578,5.5972,5.6838,5.7088,5.7088,5.7088,5.703,5.678,5.5972,5.5742,5.5703,5.5703,5.5703,5.5703,5.5703,5.5703,5.5703,5.5703,5.5485,5.5314,5.5314,5.4758,5.4349,5.439,0.0,0.0,5.502,5.5874,5.6692,0.0,0.0,0.0,0.0,0.0,5.8656,5.8511,5.8656,5.8656,5.8511,5.806,5.7996,5.8368,5.9342,6.0219,6.1063,6.162,6.22,6.2695,6.2745,6.3128,6.3769,6.4568,6.5404,6.6258,6.7075,6.7855,6.8506,6.8506,6.8506,6.8506,5.0906,0.0,5.1119,5.1776,5.1717,5.1856,5.2696,5.28,5.2858,5.3011,5.3837,5.4396,5.4396,5.4991,5.5376,5.5304,5.4815,5.4755,5.5374,5.5412,5.5509,5.5722,5.5722,5.5818,5.6012,5.6012,5.6012,5.6012,5.5995,5.5977,5.5977,5.598,5.5981,5.5981,5.5924,5.5905,5.5905,5.5885,5.5846,5.5787,5.5787,5.5745,5.5703,5.5703,5.5703,5.5703,5.5703,5.5703,5.5703,5.5703,5.5703,5.5818,5.6472,5.6684,5.6684,5.6684,5.6684,5.6876,5.7761,5.7992,5.7992,5.7992,5.7492,5.6934,5.6742,5.6165,5.5703,5.5703,5.5703,5.5703,5.5703,5.5703,5.5703,5.5703,5.564,5.5531,5.5339,5.5164,5.5093,0.0,5.5149,5.5342,5.5951,5.6729,5.7286,0.0,0.0,5.8716,5.8716,5.8716,5.8716,5.8656,5.8656,5.8656,5.8656,5.7766,5.772,5.8588,5.9402,6.0433,6.1676,6.1842,6.22,6.2745,6.3205,6.3845,6.4586,6.5441,6.6295,6.7112,6.7911,6.8338,6.8506,6.8506,6.8506,6.8506,5.2008,5.2086,5.224,5.2705,5.2659,5.2796,5.3404,5.3702,5.3935,5.408,5.4832,5.5354,5.5354,5.5741,5.6012,5.6012,5.5606,5.5528,5.5973,5.6012,5.6012,5.6012,5.6012,5.6012,5.6012,5.6012,5.6012,5.6012,5.6012,5.6012,5.6012,5.5996,5.6016,5.6016,5.596,5.5942,5.5942,5.5943,5.5924,5.5905,5.5846,5.5806,5.5745,5.5745,5.5724,5.5703,5.5703,5.5703,5.5703,5.5703,5.5953,5.6376,5.6838,5.7261,5.7665,5.803,5.7877,5.778,5.8627,5.8858,5.8858,5.8858,5.8223,5.7492,5.7088,5.6626,5.6184,5.578,5.5703,5.5703,5.5703,5.5703,5.5703,5.5703,5.5703,5.5794,5.6045,5.5938,5.5968,5.6271,5.6203,5.6312,5.6806,5.7249,5.7658,5.8029,5.8456,0.0,5.8716,5.8716,5.8716,5.8716,5.8716,5.8716,5.8716,5.8336,5.8502,5.922,5.9987,6.0751,6.1508,6.2041,6.2442,6.2763,6.3724,6.4419,6.4921,6.6147,6.6927,6.7391,6.8208,6.8506,6.8506,6.8506,6.8506,6.8506,5.3343,5.3498,5.3536,5.3672,5.3691,5.373,5.3865,5.4503,5.4987,5.4987,5.5586,5.6012,5.6012,5.6012,5.6012,5.6012,5.6012,5.6012,5.6012,5.6012,5.6012,5.6012,5.6012,5.6012,5.6012,5.6012,5.6012,5.6012,5.6012,5.6012,5.6012,5.6012,5.6012,5.6012,5.6012,5.6012,5.6012,5.5998,5.5999,5.5999,5.5943,5.5866,5.5807,5.5787,5.5766,5.5724,5.5684,5.578,5.5895,5.5895,5.6472,5.7223,5.7338,5.7896,5.8646,5.9454,5.9204,5.8838,5.9511,5.9704,5.9704,5.9704,5.9088,5.83,5.755,5.728,5.6992,5.6242,5.5992,5.5895,5.5895,5.5895,5.5895,5.5895,5.6011,5.6338,5.7088,0.0,5.6954,5.7506,5.7253,5.7228,5.7686,5.7717,5.7973,5.8661,5.8716,5.8716,5.8716,5.8716,5.8716,5.8716,5.8716,5.8712,5.8739,5.9249,5.9619,5.9804,6.0647,6.1022,6.1022,6.2129,6.2645,6.28,6.4168,6.4883,6.5125,6.6667,6.7373,6.7558,6.8246,6.8506,6.8506,6.8506,6.8506,6.8506,5.3459,5.3498,5.373,5.4465,5.46,5.4832,5.5509,5.5741,5.5818,5.5818,5.5915,5.6012,5.6012,5.6012,5.6012,5.6012,5.6012,5.6012,5.6012,5.6012,5.6012,5.6012,5.6012,5.6012,5.6012,5.6012,5.6012,5.6012,5.6012,5.6012,5.6012,5.6012,5.6012,5.6012,5.6012,5.6012,5.6012,5.5995,5.5996,5.5999,5.5981,5.5943,5.5885,5.5826,5.5787,5.5766,5.5724,5.6165,5.6799,5.6799,5.7376,5.8223,5.8896,5.9204,5.9473,6.0339,6.0512,6.0435,6.055,6.0589,6.0589,6.0589,5.9954,5.9281,5.9146,5.8588,5.8069,5.7915,5.73,5.6799,5.6799,5.6799,5.6799,5.6799,5.7415,5.7934,5.8088,0.0,5.8193,5.8672,5.8456,5.8423,5.8878,5.8679,5.8586,5.8698,5.8716,5.8716,5.8716,5.8716,5.8716,5.8716,5.8716,5.8782,5.9053,5.9784,6.0044,5.9809,6.0629,6.1022,6.1004,6.1732,6.2287,6.28,6.4168,6.5236,6.5979,6.6927,6.7707,6.8338,6.8468,6.8506,6.8506,6.8506,6.8506,6.8506,5.4755,5.4851,5.4967,5.5374,5.5451,5.5567,5.5935,5.6012,5.6012,5.6012,5.6012,5.6012,5.6012,5.6012,5.6012,5.6012,5.6012,5.6012,5.6012,5.6012,5.6012,5.6012,5.6012,5.6012,5.6012,5.6012,5.6012,5.6012,5.6012,5.6012,5.6012,5.6012,5.6012,5.6012,5.6012,5.6012,5.6012,5.6012,5.5995,5.5996,5.5996,5.598,5.5962,5.5885,5.5826,5.5844,5.6263,5.6646,5.7069,5.753,5.8261,5.9011,5.9377,5.9819,6.0281,6.0685,6.08,6.08,6.08,6.08,6.08,6.08,6.0492,6.0089,5.9608,5.9204,5.8819,5.8396,5.7973,5.7703,5.7703,5.7703,5.7703,5.7703,5.805,5.8454,5.8896,5.8954,5.913,5.9633,5.954,5.94,5.9196,5.9045,5.8887,5.8698,5.8716,5.8716,5.8716,5.8716,5.8716,5.8716,5.9125,5.9504,5.974,6.0236,6.0467,6.0451,6.0484,6.0679,6.1022,6.162,6.2437,6.3479,6.4872,6.5979,6.6815,6.7614,6.819,6.8506,6.8506,6.8506,6.8506,6.8506,6.8506,6.8506,5.5877,5.6012,5.6012,5.6012,5.6012,5.6012,5.6012,5.6012,5.6012,5.6012,5.6012,5.6012,5.6012,5.6012,5.6012,5.6012,5.6012,5.6012,5.6012,5.6012,5.6012,5.6012,5.6012,5.6012,5.6012,5.6012,5.6012,5.6012,5.6012,5.6012,5.6012,5.6012,5.6012,5.6012,5.6012,5.6012,5.6012,5.6012,5.6012,5.6012,5.6012,5.6014,5.5999,5.6155,5.6174,5.6231,5.7016,5.7418,5.7684,5.8357,5.9127,5.98,5.98,6.0262,6.08,6.08,6.08,6.08,6.08,6.08,6.08,6.08,6.08,6.0608,5.9954,5.98,5.9627,5.9011,5.8723,5.8588,5.8588,5.8588,5.8588,5.8588,0.0,5.9108,5.9723,5.98,5.996,6.0372,6.0368,6.0053,5.9378,5.9233,5.9045,5.8739,5.8716,5.8716,5.8716,5.8716,5.8791,5.8977,5.9589,6.0104,6.0535,6.058,6.0901,6.1376,6.0477,6.0538,6.1376,6.1732,6.2761,6.4285,6.5512,6.6574,6.7373,6.819,6.8506,6.8506,6.8506,6.8506,6.8506,6.8506,6.8506,6.8506,5.5993,5.6012,5.6012,5.6012,5.6012,5.6012,5.6012,5.6012,5.6012,5.6012,5.6012,5.6012,5.6012,5.6012,5.6012,5.6012,5.6012,5.6012,5.6012,5.6012,5.6012,5.6012,5.6012,5.6012,5.6012,5.6012,5.6012,5.6012,5.6012,5.6012,5.6012,5.6012,5.6012,5.6012,5.6012,5.6012,5.6012,5.6012,5.6012,5.6012,5.6012,5.6012,5.6072,5.6829,5.7101,5.7196,5.7946,5.8671,5.9338,5.9396,5.9992,6.0704,6.0704,6.0742,6.08,6.08,6.08,6.08,6.08,6.08,6.08,6.08,6.08,6.0781,6.0723,6.0704,6.0685,6.0627,5.9973,5.9415,5.9415,5.9415,5.9415,5.9415,0.0,0.0,6.0704,6.0704,6.0723,6.0757,6.0494,6.0179,5.9791,5.9432,5.9045,5.8739,5.8716,5.8716,5.8716,5.8716,5.9051,5.9794,5.9887,6.029,6.1143,6.0802,6.124,6.2526,6.0909,6.0968,6.2544,6.2094,6.2918,6.48,6.5673,6.6574,6.7373,6.819,6.8506,6.8506,6.8506,6.8506,6.8506,6.8506,6.8506,6.8506,5.6012,5.6012,5.6012,5.6012,5.6012,5.6012,5.6012,5.6012,5.6012,5.6012,5.6012,5.6012,5.6012,5.6012,5.6012,5.6012,5.6012,5.6012,5.6012,5.6012,5.6012,5.6012,5.6012,5.6012,5.6012,5.6012,5.6012,5.6012,5.6012,5.6012,5.6012,5.6012,5.6012,5.6012,5.6012,5.6012,5.6012,5.6012,5.6012,5.6012,5.6012,5.6321,5.6826,5.7099,5.7544,5.8105,5.8895,5.9333,5.9634,6.0173,6.0554,6.08,6.08,6.08,6.08,6.08,6.08,6.08,6.08,6.08,6.08,6.08,6.08,6.08,6.08,6.08,6.08,6.08,6.0531,6.03,6.03,6.03,6.03,6.03,0.0,6.08,6.08,6.08,6.08,6.08,6.071,6.0475,6.0131,5.9772,5.9397,5.9064,5.8843,5.8716,5.8716,5.9181,5.9589,5.9905,6.0927,6.1614,6.1949,6.1569,6.1679,6.22,6.1163,6.1221,6.2219,6.2887,6.4062,6.5664,6.6481,6.7317,6.8078,6.8376,6.8506,6.8506,6.8506,6.8506,6.8506,6.8506,6.8506,6.8506,5.5993,5.6012,5.6012,5.6012,5.6012,5.6012,5.6012,5.6012,5.6012,5.6012,5.6012,5.6012,5.6012,5.6012,5.6012,5.6012,5.6012,5.6012,5.6012,5.6012,5.6012,5.6012,5.6012,5.6012,5.6012,5.6012,5.6012,5.6012,5.6012,5.6012,5.6012,5.6012,5.6012,5.6012,5.6012,5.6012,5.6012,5.6012,5.6167,5.6418,5.6418,5.694,5.7733,5.7949,5.8413,5.9012,5.9823,6.007,6.0102,6.0699,6.0846,6.08,6.08,6.08,6.08,6.08,6.08,6.08,6.08,6.08,6.08,6.08,6.08,6.08,6.08,6.08,6.08,6.08,6.08,6.08,6.08,6.08,6.08,6.08,6.08,6.08,6.08,6.08,6.08,6.08,6.08,6.0666,6.0321,6.0072,5.9739,5.9252,5.8986,5.8803,5.8716,5.9478,6.0035,6.0314,6.167,6.2524,6.2784,6.2357,6.2148,6.2148,6.1394,6.1394,6.2184,6.3268,6.4591,6.6147,6.6964,6.7763,6.8506,6.8506,6.8506,6.8506,6.8506,6.8506,6.8506,6.8506,6.8506,6.8506,5.6012,5.6012,5.6012,5.6012,5.6012,5.6012,5.6012,5.6012,5.6012,5.6012,5.6012,5.6012,5.6012,5.6012,5.6012,5.6012,5.6012,5.6012,5.6012,5.6012,5.6012,5.6012,5.6012,5.6012,5.6012,5.6012,5.6012,5.6012,5.6012,5.6012,5.6012,5.6012,5.6012,5.6012,5.6012,5.6012,5.6012,5.6012,5.6515,5.7308,5.7308,5.783,5.87,5.9571,5.9862,5.9901,6.0712,6.096,6.0911,6.0911,6.0846,6.08,6.08,6.08,6.08,6.08,6.08,6.08,6.08,6.08,6.08,6.08,6.08,6.08,6.08,6.08,6.08,6.08,6.08,6.08,6.08,6.08,6.08,6.08,6.08,6.08,6.08,6.08,6.08,6.08,6.08,6.0666,6.034,6.0293,5.9992,5.927,5.9215,5.9045,5.8716,5.9478,6.0314,6.1187,6.2004,6.2803,6.3602,6.2977,6.2695,6.2695,6.1528,6.1584,6.2713,6.2966,6.4195,6.6165,6.6964,6.7763,6.8506,6.8506,6.8506,6.8506,6.8506,6.8506,6.8506,6.8506,6.8506,6.8506,5.6012,5.6012,5.6012,5.6012,5.6012,5.6012,5.6012,5.6012,5.6012,5.6012,5.6012,5.6012,5.6012,5.6012,5.6012,5.6012,5.6012,5.6012,5.6012,5.6012,5.6012,5.6012,5.6012,5.6012,5.6012,5.6012,5.6012,5.6012,5.6012,5.6012,5.6012,5.6012,5.6012,5.6012,5.6012,5.6341,5.6921,5.6921,5.7424,5.8217,5.8217,5.872,5.9532,5.9803,6.0248,6.0751,6.0983,6.1021,6.0976,6.0976,6.0891,6.08,6.08,6.08,6.08,6.08,6.08,6.08,6.08,6.08,6.08,6.08,6.08,6.08,6.08,6.08,6.08,6.08,6.08,6.08,6.08,6.08,6.08,6.08,6.08,6.08,6.08,6.08,6.08,6.08,6.08,6.0757,6.0666,6.0449,6.0102,5.9658,5.914,5.9045,5.9515,6.0351,6.1187,6.2023,6.2822,6.3379,6.3602,6.2977,6.2695,6.2695,6.2373,6.2373,6.275,6.4451,6.5527,6.6184,6.7558,6.8301,6.8506,6.8506,6.8506,6.8506,6.8506,6.8506,6.8506,6.8506,6.8506,6.8506,5.6046,5.6029,5.6012,5.6012,5.6012,5.6012,5.6012,5.6012,5.6012,5.6012,5.6012,5.6012,5.6012,5.6012,5.6012,5.6012,5.6012,5.6012,5.6012,5.6012,5.6012,5.6012,5.6012,5.6012,5.6012,5.6012,5.6012,5.6012,5.6012,5.6012,5.6012,5.6012,5.6186,5.6515,5.6515,5.6998,5.7811,5.7811,5.8314,5.9106,5.9106,5.9609,6.0364,6.0364,6.0673,6.1099,6.1099,6.106,6.0999,6.0997,6.0911,6.08,6.08,6.08,6.08,6.08,6.08,6.08,6.08,6.08,6.08,6.08,6.08,6.08,6.08,6.08,6.08,6.08,6.08,6.08,6.08,6.08,6.08,6.08,6.08,6.08,6.08,6.08,6.08,6.08,6.08,6.08,6.08,6.0616,6.0368,6.0011,5.9627,5.9614,6.0118,6.1106,6.1911,6.2394,6.3193,6.3602,6.3602,6.327,6.2929,6.2695,6.2695,6.2695,6.275,6.4808,6.5864,6.6202,6.7818,6.8506,6.8506,6.8506,6.8506,6.8506,6.8506,6.8506,6.8506,6.8506,6.8506,6.8506,5.6098,5.6065,5.6012,5.6012,5.6012,5.6012,5.6012,5.6012,5.6012,5.6012,5.6012,5.6012,5.6012,5.6012,5.6012,5.6012,5.6012,5.6012,5.6012,5.6012,5.6012,5.6012,5.607,5.6128,5.6128,5.6051,5.6051,5.6128,5.6128,5.6167,5.6225,5.6225,5.667,5.7424,5.7424,5.7907,5.872,5.872,5.9223,6.0016,6.0016,6.0441,6.1099,6.1099,6.1099,6.1099,6.1099,6.1061,6.1002,6.0999,6.0933,6.0823,6.0823,6.08,6.08,6.08,6.08,6.08,6.08,6.0823,6.0804,6.08,6.0823,6.0804,6.0823,6.08,6.08,6.08,6.08,6.08,6.08,6.08,6.08,6.08,6.08,6.08,6.08,6.08,6.08,6.08,6.08,6.08,6.08,6.0757,6.066,6.0417,6.0471,6.0567,6.0717,6.1815,6.2432,6.2506,6.323,6.3602,6.3602,6.3602,6.3317,6.2794,6.2794,6.2794,6.2867,6.4522,6.5564,6.6202,6.7818,6.8506,6.8506,6.8506,6.8506,6.8506,6.8506,6.8506,6.8506,6.8506,6.8506,6.8506,5.6098,5.6065,5.6012,5.6012,5.6012,5.6012,5.6012,5.6012,5.6012,5.6012,5.6012,5.6012,5.6012,5.6012,5.6012,5.6012,5.6012,5.6012,5.6012,5.6012,5.6012,5.6012,5.665,5.7018,5.7018,5.636,5.6341,5.7018,5.7018,5.7366,5.8043,5.8043,5.8139,5.8314,5.8314,5.8797,5.9609,5.9609,6.0093,6.0847,6.0847,6.0944,6.1099,6.1099,6.1099,6.1099,6.1099,6.1061,6.1002,6.0999,6.0976,6.0955,6.0891,6.0869,6.0869,6.0823,6.08,6.08,6.08,6.0877,6.0923,6.0827,6.0877,6.0943,6.0894,6.0846,6.0823,6.0869,6.0846,6.08,6.08,6.08,6.08,6.08,6.08,6.08,6.08,6.08,6.08,6.08,6.08,6.08,6.08,6.0572,6.0644,6.122,6.0774,6.1055,6.2313,6.2393,6.2692,6.3323,6.3527,6.3602,6.3602,6.3602,6.3538,6.3382,6.3382,6.3382,6.3438,6.517,6.5997,6.6202,6.7818,6.8506,6.8506,6.8506,6.8506,6.8506,6.8506,6.8506,6.8506,6.8506,6.8506,6.8506,5.6098,5.6065,5.6012,5.6012,5.6012,5.6012,5.6012,5.6012,5.6012,5.6012,5.5664,5.5432,5.5432,5.5064,5.4967,5.5393,5.578,5.6012,5.6012,5.6399,5.6631,5.6631,5.7462,5.7946,5.7965,5.7521,5.7501,5.7965,5.8023,5.8255,5.8662,5.8662,5.8855,5.9223,5.9223,5.9687,6.046,6.046,6.0712,6.1099,6.1099,6.1099,6.1099,6.1099,6.1099,6.1099,6.1099,6.1061,6.1002,6.1,6.0999,6.0976,6.0955,6.0955,6.0933,6.0911,6.0938,6.0942,6.0942,6.102,6.1072,6.0963,6.1003,6.1002,6.0916,6.0846,6.0823,6.0888,6.0846,6.08,6.08,6.08,6.08,6.08,6.08,6.08,6.08,6.08,6.08,6.08,6.08,6.08,6.08,6.1006,6.1332,6.1754,6.2002,6.2473,6.3162,6.3207,6.3357,6.3583,6.3602,6.3602,6.3602,6.3602,6.3602,6.3602,6.3602,6.3602,6.3676,6.5348,6.6109,6.6202,6.7818,6.8506,6.8506,6.8506,6.8506,6.8506,6.8506,6.8506,6.8506,6.8506,6.8506,6.8506,5.6098,5.6065,5.6012,5.6012,5.5896,5.5799,5.5799,5.5664,5.5567,5.5567,5.4987,5.4581,5.4581,5.4078,5.4136,5.5142,5.5838,5.6302,5.6437,5.7114,5.7521,5.7521,5.8352,5.8836,5.8912,5.9077,5.9091,5.8955,5.9071,5.9135,5.914,5.9126,5.9475,6.0112,6.0112,6.048,6.1099,6.1099,6.1099,6.1099,6.1099,6.1099,6.1099,6.1099,6.1099,6.1099,6.1099,6.106,6.1022,6.1022,6.1021,6.1057,6.1036,6.1038,6.1057,6.1055,6.108,6.1128,6.1142,6.1182,6.1225,6.1145,6.1131,6.1095,6.0978,6.0888,6.0846,6.0891,6.0846,6.08,6.08,6.08,6.08,6.08,6.08,6.08,6.08,6.08,6.08,6.08,6.08,6.0858,6.1012,6.1666,6.2204,6.2512,6.3444,6.3924,6.3713,6.403,6.4023,6.3602,6.3602,6.3602,6.3602,6.3602,6.3602,6.3602,6.3602,6.3602,6.3676,6.5348,6.6109,6.6202,6.7818,6.8506,6.8506,6.8506,6.8506,6.8506,6.8506,6.8506,6.8506,6.8506,6.8506,6.8506,5.6098,5.6065,5.6012,5.6012,5.5412,5.4967,5.4967,5.431,5.3846,5.3846,5.373,5.3672,5.3672,5.4233,5.5258,5.6844,5.7056,5.7443,5.8197,5.8352,5.841,5.841,5.9261,5.9764,5.9822,6.0624,6.0701,6.001,6.003,6.0339,6.0942,6.0954,6.0944,6.0944,6.0944,6.1002,6.1099,6.1099,6.1099,6.1099,6.1099,6.1099,6.1099,6.1099,6.1099,6.1099,6.1099,6.1099,6.108,6.108,6.1157,6.1235,6.1175,6.1215,6.1254,6.125,6.1273,6.1283,6.1272,6.1359,6.1421,6.1314,6.1271,6.1248,6.1176,6.1034,6.0911,6.0976,6.0888,6.08,6.08,6.08,6.08,6.08,6.08,6.08,6.08,6.08,6.08,6.08,6.08,6.1089,6.1839,6.2031,6.2685,6.4147,6.4115,6.4172,6.4525,6.4332,6.4023,6.3602,6.3602,6.3602,6.3602,6.3602,6.3602,6.3602,6.3602,6.3602,6.3676,6.5348,6.6109,6.6202,6.7818,6.8506,6.8506,6.8506,6.8506,6.8506,6.8506,6.8506,6.8506,6.8506,6.8506,6.8506,5.5465,5.5352,5.518,5.4697,5.431,5.4078,5.4078,5.3749,5.3498,5.3498,5.3072,5.313,5.4116,5.5412,5.6495,5.725,5.7753,5.8197,5.8565,5.9087,5.9377,5.9377,6.0248,6.0789,6.0886,6.131,6.1366,6.1036,6.1042,6.1198,6.147,6.1391,6.1292,6.1215,6.1137,6.1099,6.1099,6.1099,6.1099,6.1099,6.1099,6.1099,6.1099,6.1099,6.1099,6.1157,6.166,6.2143,6.2549,6.2549,6.2588,6.2569,6.2124,6.2008,6.1948,6.1481,6.1408,6.1472,6.1476,6.1549,6.16,6.1489,6.1422,6.1336,6.1271,6.1098,6.0959,6.0997,6.0891,6.08,6.08,6.08,6.08,6.08,6.08,6.08,6.08,6.08,6.0973,6.1454,6.1531,6.1839,6.2685,6.3205,6.3801,6.4551,6.4884,6.5054,6.5054,6.4682,6.4311,6.3939,6.3717,6.3602,6.3602,6.3602,6.3602,6.3602,6.3602,6.3602,6.3657,6.4846,6.5645,6.6165,6.7335,6.8097,6.8506,6.8506,6.8506,6.8506,6.8506,6.8506,6.8506,6.8506,6.8506,6.8506]},{"header":{"parameterUnit":"m.s-1","parameterCategory":1,"la1":30.6,"la2":28.766,"lo1":-90.7593,"lo2":-88.6598,"dx":0.0162,"dy":0.0183,"nx":116,"ny":114,"refTime":"2023-01-31T06:00:00:Z","depth":0,"parameterNumber":3,"parameterNumberName":"V-component_of_WINDS"},"data":[0.0,0.0,0.0,0.0,0.0,0.0,0.0,0.0,0.0,0.0,0.0,0.0,0.0,0.0,0.0,0.0,0.0,0.0,0.0,0.0,0.0,0.0,0.0,0.0,0.0,0.0,0.0,0.0,0.0,0.0,0.0,0.0,0.0,0.0,0.0,0.0,0.0,0.0,0.0,0.0,0.0,0.0,0.0,0.0,0.0,0.0,0.0,0.0,0.0,0.0,0.0,0.0,0.0,0.0,0.0,0.0,0.0,0.0,0.0,0.0,0.0,0.0,0.0,0.0,0.0,0.0,0.0,0.0,0.0,0.0,0.0,0.0,0.0,0.0,0.0,0.0,0.0,0.0,0.0,0.0,0.0,0.0,0.0,0.0,0.0,0.0,0.0,0.0,0.0,0.0,0.0,0.0,0.0,0.0,0.0,0.0,0.0,0.0,0.0,0.0,0.0,0.0,0.0,0.0,0.0,0.0,0.0,0.0,0.0,0.0,0.0,0.0,0.0,0.0,0.0,0.0,0.0,0.0,0.0,0.0,0.0,0.0,0.0,0.0,0.0,0.0,0.0,0.0,0.0,0.0,0.0,0.0,0.0,0.0,0.0,0.0,0.0,0.0,0.0,0.0,0.0,0.0,0.0,0.0,0.0,0.0,0.0,0.0,0.0,0.0,0.0,0.0,0.0,0.0,0.0,0.0,0.0,0.0,0.0,0.0,0.0,0.0,0.0,0.0,0.0,0.0,0.0,0.0,0.0,0.0,0.0,0.0,0.0,0.0,0.0,0.0,0.0,0.0,0.0,0.0,0.0,0.0,0.0,0.0,0.0,0.0,0.0,0.0,0.0,0.0,0.0,0.0,0.0,0.0,0.0,0.0,0.0,0.0,0.0,0.0,0.0,0.0,0.0,0.0,0.0,0.0,0.0,0.0,0.0,0.0,0.0,0.0,0.0,0.0,0.0,0.0,0.0,0.0,0.0,0.0,0.0,0.0,0.0,0.0,0.0,0.0,0.0,0.0,0.0,0.0,0.0,0.0,0.0,0.0,0.0,0.0,0.0,0.0,0.0,0.0,0.0,0.0,0.0,0.0,0.0,0.0,0.0,0.0,0.0,0.0,0.0,0.0,0.0,0.0,0.0,0.0,0.0,0.0,0.0,0.0,0.0,0.0,0.0,0.0,0.0,0.0,0.0,0.0,0.0,0.0,0.0,0.0,0.0,0.0,0.0,0.0,0.0,0.0,0.0,0.0,0.0,0.0,0.0,0.0,0.0,0.0,0.0,0.0,0.0,0.0,0.0,0.0,0.0,0.0,0.0,0.0,0.0,0.0,0.0,0.0,0.0,0.0,0.0,0.0,0.0,0.0,0.0,0.0,0.0,0.0,0.0,0.0,0.0,0.0,0.0,0.0,0.0,0.0,0.0,0.0,0.0,0.0,0.0,0.0,0.0,0.0,0.0,0.0,0.0,0.0,0.0,0.0,0.0,0.0,0.0,0.0,0.0,0.0,0.0,0.0,0.0,0.0,0.0,0.0,0.0,0.0,0.0,0.0,0.0,0.0,0.0,0.0,0.0,0.0,0.0,0.0,0.0,0.0,0.0,0.0,0.0,0.0,0.0,0.0,0.0,0.0,0.0,0.0,0.0,0.0,0.0,0.0,0.0,0.0,0.0,0.0,0.0,0.0,0.0,0.0,0.0,0.0,0.0,0.0,0.0,0.0,0.0,0.0,0.0,0.0,0.0,0.0,0.0,0.0,0.0,0.0,0.0,0.0,0.0,0.0,0.0,0.0,0.0,0.0,0.0,0.0,0.0,0.0,0.0,0.0,0.0,0.0,0.0,0.0,0.0,0.0,0.0,0.0,0.0,0.0,0.0,0.0,0.0,0.0,0.0,0.0,0.0,0.0,0.0,0.0,0.0,0.0,0.0,0.0,0.0,0.0,0.0,0.0,0.0,0.0,0.0,0.0,0.0,0.0,0.0,0.0,0.0,0.0,0.0,0.0,0.0,0.0,0.0,0.0,0.0,0.0,0.0,0.0,0.0,0.0,0.0,0.0,0.0,0.0,0.0,0.0,0.0,0.0,0.0,0.0,0.0,0.0,0.0,0.0,0.0,0.0,0.0,0.0,0.0,0.0,0.0,0.0,0.0,0.0,0.0,0.0,0.0,0.0,0.0,0.0,0.0,0.0,0.0,0.0,0.0,0.0,0.0,0.0,0.0,0.0,0.0,0.0,0.0,0.0,0.0,0.0,0.0,0.0,0.0,0.0,0.0,0.0,0.0,0.0,0.0,0.0,0.0,0.0,0.0,0.0,0.0,0.0,0.0,0.0,0.0,0.0,0.0,0.0,0.0,0.0,0.0,0.0,0.0,0.0,0.0,0.0,0.0,0.0,0.0,0.0,0.0,0.0,0.0,0.0,0.0,0.0,0.0,0.0,0.0,0.0,0.0,0.0,0.0,0.0,0.0,0.0,0.0,0.0,0.0,0.0,0.0,0.0,0.0,0.0,0.0,0.0,0.0,0.0,0.0,0.0,0.0,0.0,0.0,0.0,0.0,0.0,0.0,0.0,0.0,0.0,0.0,0.0,0.0,0.0,0.0,0.0,0.0,0.0,0.0,0.0,0.0,0.0,0.0,0.0,0.0,0.0,0.0,0.0,0.0,0.0,0.0,0.0,0.0,0.0,0.0,0.0,0.0,0.0,0.0,0.0,0.0,0.0,0.0,0.0,0.0,0.0,0.0,0.0,0.0,0.0,0.0,0.0,0.0,0.0,0.0,0.0,0.0,0.0,0.0,0.0,0.0,0.0,0.0,0.0,0.0,0.0,0.0,0.0,0.0,0.0,0.0,0.0,0.0,0.0,0.0,0.0,0.0,0.0,0.0,0.0,0.0,0.0,0.0,0.0,0.0,0.0,0.0,0.0,0.0,0.0,0.0,0.0,0.0,0.0,0.0,0.0,0.0,0.0,0.0,0.0,0.0,0.0,0.0,0.0,0.0,0.0,0.0,0.0,0.0,0.0,0.0,0.0,0.0,0.0,0.0,0.0,0.0,0.0,0.0,0.0,0.0,0.0,0.0,0.0,0.0,0.0,0.0,0.0,0.0,0.0,0.0,0.0,0.0,0.0,0.0,0.0,0.0,0.0,0.0,0.0,0.0,0.0,0.0,0.0,0.0,0.0,0.0,0.0,0.0,0.0,0.0,0.0,0.0,0.0,0.0,0.0,0.0,0.0,0.0,0.0,0.0,0.0,0.0,0.0,0.0,0.0,0.0,0.0,0.0,0.0,0.0,0.0,0.0,0.0,0.0,0.0,0.0,0.0,0.0,0.0,0.0,0.0,0.0,0.0,0.0,0.0,0.0,0.0,0.0,0.0,0.0,0.0,0.0,0.0,0.0,0.0,0.0,0.0,0.0,0.0,0.0,0.0,0.0,0.0,0.0,0.0,0.0,0.0,0.0,0.0,0.0,0.0,0.0,0.0,0.0,0.0,0.0,0.0,0.0,0.0,0.0,0.0,0.0,0.0,0.0,0.0,0.0,0.0,0.0,0.0,0.0,0.0,0.0,0.0,0.0,0.0,0.0,0.0,0.0,0.0,0.0,0.0,0.0,0.0,0.0,0.0,0.0,0.0,0.0,0.0,0.0,0.0,0.0,0.0,0.0,0.0,0.0,0.0,0.0,0.0,0.0,0.0,0.0,0.0,0.0,0.0,0.0,0.0,0.0,0.0,0.0,0.0,0.0,0.0,0.0,0.0,0.0,0.0,0.0,0.0,0.0,0.0,0.0,0.0,0.0,0.0,0.0,0.0,0.0,0.0,0.0,0.0,0.0,0.0,0.0,0.0,0.0,0.0,0.0,0.0,0.0,0.0,0.0,0.0,0.0,0.0,0.0,0.0,0.0,0.0,0.0,0.0,0.0,0.0,0.0,0.0,0.0,0.0,0.0,0.0,0.0,0.0,0.0,0.0,0.0,0.0,0.0,0.0,0.0,0.0,0.0,0.0,0.0,0.0,0.0,0.0,0.0,0.0,0.0,0.0,0.0,0.0,0.0,0.0,0.0,0.0,0.0,0.0,0.0,0.0,0.0,0.0,0.0,0.0,0.0,0.0,0.0,0.0,0.0,0.0,0.0,0.0,0.0,0.0,0.0,0.0,0.0,0.0,0.0,0.0,0.0,0.0,0.0,0.0,0.0,0.0,0.0,0.0,0.0,0.0,0.0,0.0,0.0,0.0,0.0,0.0,0.0,0.0,0.0,0.0,0.0,0.0,0.0,0.0,0.0,0.0,0.0,0.0,0.0,0.0,0.0,0.0,0.0,0.0,0.0,0.0,0.0,0.0,0.0,0.0,0.0,0.0,0.0,0.0,0.0,0.0,0.0,0.0,0.0,0.0,0.0,0.0,0.0,0.0,0.0,0.0,0.0,0.0,0.0,0.0,0.0,0.0,0.0,0.0,0.0,0.0,0.0,0.0,0.0,0.0,0.0,0.0,0.0,0.0,0.0,0.0,0.0,0.0,0.0,0.0,0.0,0.0,0.0,0.0,0.0,0.0,0.0,0.0,0.0,0.0,0.0,0.0,0.0,0.0,0.0,0.0,0.0,0.0,0.0,0.0,0.0,0.0,0.0,0.0,0.0,0.0,0.0,0.0,0.0,0.0,0.0,0.0,0.0,0.0,0.0,0.0,0.0,0.0,0.0,0.0,0.0,0.0,0.0,0.0,0.0,0.0,0.0,0.0,0.0,0.0,0.0,0.0,0.0,0.0,0.0,0.0,0.0,0.0,0.0,0.0,0.0,0.0,0.0,0.0,0.0,0.0,0.0,0.0,0.0,0.0,0.0,0.0,0.0,0.0,0.0,0.0,0.0,0.0,0.0,0.0,0.0,0.0,0.0,0.0,0.0,0.0,0.0,0.0,0.0,0.0,0.0,0.0,0.0,0.0,0.0,0.0,0.0,0.0,0.0,0.0,0.0,0.0,0.0,0.0,0.0,0.0,0.0,0.0,0.0,0.0,0.0,0.0,0.0,0.0,0.0,0.0,0.0,0.0,0.0,0.0,0.0,0.0,0.0,0.0,0.0,0.0,0.0,0.0,0.0,0.0,0.0,0.0,0.0,0.0,0.0,0.0,0.0,0.0,0.0,0.0,0.0,0.0,0.0,0.0,0.0,0.0,0.0,0.0,0.0,0.0,0.0,0.0,0.0,0.0,0.0,0.0,0.0,0.0,0.0,0.0,0.0,0.0,0.0,0.0,0.0,0.0,0.0,0.0,0.0,0.0,0.0,0.0,0.0,0.0,0.0,0.0,0.0,0.0,0.0,0.0,0.0,0.0,0.0,0.0,0.0,0.0,0.0,0.0,0.0,0.0,0.0,0.0,0.0,0.0,0.0,0.0,0.0,0.0,0.0,0.0,0.0,0.0,0.0,0.0,0.0,0.0,0.0,0.0,0.0,0.0,0.0,0.0,0.0,0.0,0.0,0.0,0.0,0.0,0.0,0.0,0.0,0.0,0.0,0.0,0.0,0.0,0.0,0.0,0.0,0.0,0.0,0.0,0.0,0.0,0.0,0.0,0.0,0.0,0.0,0.0,0.0,0.0,0.0,0.0,0.0,0.0,0.0,0.0,0.0,0.0,0.0,0.0,0.0,0.0,0.0,0.0,0.0,0.0,0.0,0.0,0.0,0.0,0.0,0.0,0.0,0.0,0.0,0.0,0.0,0.0,0.0,0.0,0.0,0.0,0.0,0.0,0.0,0.0,0.0,0.0,0.0,0.0,0.0,0.0,0.0,0.0,0.0,0.0,0.0,0.0,0.0,0.0,0.0,0.0,0.0,0.0,0.0,0.0,0.0,0.0,0.0,0.0,0.0,0.0,0.0,0.0,0.0,0.0,0.0,0.0,0.0,0.0,0.0,0.0,0.0,0.0,0.0,0.0,0.0,0.0,0.0,0.0,0.0,0.0,0.0,0.0,0.0,0.0,0.0,0.0,0.0,0.0,0.0,0.0,0.0,0.0,0.0,0.0,0.0,0.0,0.0,0.0,0.0,0.0,0.0,0.0,0.0,0.0,0.0,0.0,0.0,0.0,0.0,0.0,0.0,0.0,0.0,0.0,0.0,0.0,0.0,0.0,0.0,0.0,0.0,0.0,0.0,0.0,0.0,0.0,0.0,0.0,0.0,0.0,0.0,0.0,0.0,0.0,0.0,0.0,0.0,0.0,0.0,0.0,0.0,0.0,0.0,0.0,0.0,0.0,0.0,0.0,0.0,0.0,0.0,0.0,0.0,0.0,0.0,0.0,0.0,0.0,0.0,0.0,0.0,0.0,0.0,0.0,0.0,0.0,0.0,0.0,0.0,0.0,0.0,0.0,0.0,0.0,0.0,0.0,0.0,0.0,0.0,0.0,0.0,0.0,0.0,0.0,0.0,0.0,0.0,0.0,0.0,0.0,0.0,0.0,0.0,0.0,0.0,0.0,0.0,0.0,0.0,0.0,0.0,0.0,0.0,0.0,0.0,0.0,0.0,0.0,0.0,0.0,0.0,0.0,0.0,0.0,0.0,0.0,0.0,0.0,0.0,0.0,0.0,0.0,0.0,0.0,0.0,0.0,0.0,0.0,0.0,0.0,0.0,0.0,0.0,0.0,0.0,0.0,0.0,0.0,0.0,0.0,0.0,0.0,0.0,0.0,0.0,0.0,0.0,0.0,0.0,0.0,0.0,0.0,0.0,0.0,0.0,0.0,0.0,0.0,0.0,0.0,0.0,0.0,0.0,0.0,0.0,0.0,0.0,0.0,0.0,0.0,0.0,0.0,0.0,0.0,0.0,0.0,0.0,0.0,0.0,0.0,0.0,0.0,0.0,0.0,0.0,0.0,0.0,0.0,0.0,0.0,0.0,0.0,0.0,0.0,0.0,0.0,0.0,0.0,0.0,0.0,0.0,0.0,0.0,0.0,0.0,0.0,0.0,0.0,0.0,0.0,0.0,0.0,0.0,0.0,0.0,0.0,0.0,0.0,0.0,0.0,0.0,0.0,0.0,0.0,0.0,0.0,0.0,0.0,0.0,0.0,0.0,0.0,0.0,0.0,0.0,0.0,0.0,0.0,0.0,0.0,0.0,0.0,-0.3236,-0.4685,-0.4593,-0.1438,0.0,0.0,0.0,0.0,0.0,0.0,0.0,0.0,0.0,0.0,0.0,0.0,0.0,0.0,0.0,0.0,0.0,0.0,0.0,0.0,0.0,0.0,0.0,0.0,0.0,0.0,0.0,0.0,0.0,0.0,0.0,0.0,0.0,0.0,0.0,0.0,0.0,0.0,0.0,0.0,0.0,0.0,0.0,0.0,0.0,0.0,0.0,0.0,0.0,0.0,0.0,0.0,0.0,0.0,0.0,0.0,0.0,0.0,0.0,0.0,0.0,0.0,0.0,0.0,0.0,0.0,0.0,0.0,0.0,0.0,0.0,0.0,0.0,0.0,0.0,0.0,0.0,0.0,0.0,0.0,0.0,0.0,0.0,0.0,0.0,0.0,0.0,0.0,0.0,0.0,0.0,0.0,0.1428,0.1424,0.0,0.0,0.0,0.0,0.0,0.0,0.0,0.0,0.0,0.0,0.0,0.0,0.0,-0.0719,-0.0719,-0.027,0.0,-0.0,-0.0539,-0.0719,-0.0719,-0.027,0.0,0.0,0.0,0.0,0.0,0.0,0.0,0.0,0.0,0.0,0.0,0.0,0.0,0.0,0.0,0.0,0.0,0.0,0.0,0.0,0.0,0.0,0.0,0.0,0.0,0.0,0.0,0.0,0.0,0.0,0.0,0.0,0.0,0.0,0.0,0.0,0.0,0.0,0.0,0.0,0.0,0.0,0.0,0.0,0.0,0.0,0.0,0.0,0.0,0.0,0.0,0.0,0.0,0.0,0.0,0.0,0.0,0.0,0.0,0.0,0.0,0.0,0.0,0.0,0.0,0.0,0.0,0.0,0.0,0.0,0.0,0.0,0.0,0.0,0.0,0.0,0.0,0.0,0.0,0.0,0.0,0.0,0.0,0.0,0.0,0.0,0.0,0.0,0.0,0.0,0.0,0.1436,0.1436,0.1436,0.1436,0.1436,0.0,0.0,0.0,0.0,0.0,0.0,0.0,0.0,0.0,0.0,0.0,0.0,0.0,0.0,0.0,0.0,0.0,0.0,0.0,0.0,0.0,0.0,0.0,0.0,0.0,0.0,0.0,0.0,0.0,0.0,0.0,0.0,0.599,0.5945,0.0,0.0,0.0,0.0,0.0,0.0,0.0,0.0,0.0,0.0,0.0,0.0,0.0,0.0,0.0,0.227,0.0,0.0,0.0,0.0,0.0,0.0,0.0,0.0,0.0,0.0,0.0,0.0,0.0,0.0,0.0,0.0,0.0,0.0,0.0,0.0,0.0,0.0,0.0,0.0,0.0,0.0,0.0,0.0,0.0,0.0,0.0,0.0,0.0,0.0,0.0,0.0,0.0,0.0,0.0,0.0,0.0,0.0,0.0,0.0,0.0,0.0,0.0,0.0,0.0,0.0,0.0,0.0,0.0,0.0,0.0,0.0,0.0,0.0,0.0,0.0,0.0,0.1882,0.1793,0.1972,0.1973,0.1883,0.0,0.0,0.0,0.0,0.0,0.0,0.0,0.0,0.0,0.0,0.0,0.0,0.0,0.0,0.0,0.0,0.0,0.0,0.0,0.0,0.0,0.0,0.0,0.0644,0.1582,0.0456,0.0636,0.1642,0.1642,0.3593,0.6363,0.6166,0.6123,0.6192,0.0,0.0,0.0,0.0,0.0,0.0,0.0,0.0,0.0,0.0,0.0,0.0,0.0,0.0,0.2431,0.251,0.3215,0.3997,0.0,0.0,0.0,0.0,0.0,0.0,0.0,0.0,0.0,0.0,0.0,0.0,0.0,0.0,0.0,0.0,0.0,0.0,0.0,0.0,0.0,0.0,0.0,0.0,0.0,0.0,0.0,0.0,0.0,0.0,0.0,0.0,0.0,0.0,0.0,0.0,0.0,0.0,0.0,0.0,0.0,0.0,0.0,0.0,0.0,0.0,0.0,0.0,0.0,0.0,0.0,0.0,0.0,0.0,0.0,0.0,0.0,0.0,0.0,0.0,0.0,0.34,0.3494,0.0,0.0,0.0,0.0,0.2777,0.1075,0.0,0.0,0.0,0.0,0.0,0.0,0.0,0.0,0.0,0.0,0.0,0.0,0.0,0.0,0.0,0.0,0.0,0.0,0.2283,0.5726,0.1676,0.2429,0.6111,0.6111,0.6102,0.6189,0.6189,0.6183,0.6086,0.0,0.0,0.0,0.0,0.0,0.0,0.0,0.0,0.0,0.0,0.0,0.0,0.0,0.3136,0.3684,0.4068,0.4307,0.4621,0.5237,0.0,0.0,0.0,0.0,0.0,0.0,0.0,0.0,0.0,0.0,0.0,0.0,0.0,0.0,0.0,0.0,0.0,0.0,0.0,0.0,0.0,0.0,0.0,0.0,0.0,0.0,0.0,0.0,0.0,0.0,0.0,0.0,0.0,0.0,0.0,0.0,0.0,0.0,0.0,0.0,0.0,0.0,0.0,0.0,0.0,0.0,0.0,0.0,0.0,0.0,0.0,0.0,0.0,0.0,0.0,0.0,0.0,0.0,0.0,0.0,0.286,0.358,0.0,0.4486,0.467,0.4672,0.4672,0.4039,0.3139,0.1972,0.1882,0.1883,0.1883,0.1883,0.1263,0.0,0.0,0.0,0.0,0.0,0.0,0.0095,0.2861,0.4106,0.4009,0.2666,0.2972,0.4369,0.4146,0.4216,0.448,0.5828,0.6353,0.6316,0.6316,0.6354,0.6312,0.0,0.0,0.0,0.0,0.0,0.0,0.0,0.0,0.0,0.0,0.0,0.3832,0.3986,0.4382,0.4851,0.5389,0.5315,0.5395,0.5935,0.0,0.0,0.0,0.0,0.0,0.0,0.0,0.0,0.0,0.0,0.0,0.0,0.0,0.0,0.0,0.0,0.0,0.0,0.0,0.0,0.0,0.0,0.0,0.739,0.0,0.0,0.0,0.0,0.0,0.0,0.0,0.0,0.0,0.0,0.0,0.0,0.0,0.0,0.0,0.0,0.0,0.0,0.0,0.0,0.0,0.0,0.0,0.0,0.0,0.0,0.0,0.0,0.0,0.0,0.0,0.0,0.0,0.0,0.0,0.4117,0.3576,0.4297,0.5022,0.566,0.5662,0.5662,0.5662,0.5665,0.5121,0.3944,0.3857,0.387,0.3985,0.3985,0.3383,0.2051,0.1398,0.1036,0.1058,0.1058,0.1062,0.1166,0.3988,0.5751,0.6343,0.4863,0.4304,0.4352,0.5849,0.5603,0.4458,0.5835,0.6374,0.6435,0.6435,0.6377,0.6437,0.0,0.0,0.0,0.0,0.0,0.0,0.0,0.0,0.0,0.0,0.5168,0.5234,0.5848,0.5774,0.5777,0.624,0.624,0.6321,0.6637,0.6641,0.0,0.0,0.0,0.0,0.0,0.0,0.0,0.0,0.0,0.0,0.0,0.0,0.0,0.0,0.0,0.0,0.0,0.0,0.0,0.0,0.0,0.0,0.7489,0.0,0.0,0.0,0.0,0.0,0.0,0.0,0.0,0.0,0.0,0.0,0.0,0.0,0.0,0.0,0.0,0.0,0.0,0.0,0.0,0.0,0.0,0.0,0.0,0.0,0.0,0.0,0.0,0.0,0.0,0.0,0.0,0.0,0.5733,0.5741,0.5744,0.5735,0.5741,0.5744,0.5735,0.5733,0.5733,0.5733,0.5741,0.566,0.5662,0.567,0.582,0.6121,0.6124,0.6089,0.6119,0.4193,0.3268,0.3332,0.3332,0.3265,0.3324,0.3324,0.4438,0.6377,0.6374,0.6369,0.6361,0.6361,0.6353,0.6437,0.6356,0.635,0.6437,0.6437,0.6437,0.6437,0.0,0.0,0.0,0.0,0.0,0.0,0.0,0.0,0.0,0.0,0.5786,0.617,0.6083,0.6468,0.7007,0.7544,0.7161,0.7165,0.7642,0.0,0.0,0.0,0.0,0.0,0.0,0.0,0.0,0.0,0.0,0.0,0.0,0.0,0.0,0.0,0.0,0.0,0.0,0.0,0.0,0.0,0.0,0.0,0.8208,0.0,0.0,0.0,0.0,0.0,0.0,0.0,0.0,0.0,0.0,0.0,0.0,0.0,0.0,0.0,0.0,0.0,0.0,0.0,0.0,0.0,0.0,0.0,0.0,0.0,0.0,0.0,0.0,0.0,0.0,0.0,0.0,0.5733,0.5733,0.5735,0.5735,0.5733,0.5735,0.5735,0.5733,0.5733,0.5733,0.5733,0.5735,0.5773,0.5855,0.5863,0.592,0.6134,0.6139,0.6105,0.6136,0.5644,0.5405,0.5515,0.5515,0.5529,0.5557,0.5553,0.5856,0.6366,0.6353,0.6445,0.6442,0.6442,0.6439,0.6437,0.6442,0.6439,0.6437,0.6437,0.6437,0.6437,0.0,0.0,0.0,0.0,0.0,0.0,0.0,0.0,0.0,0.0,0.5941,0.6328,0.6857,0.7161,0.7698,0.8546,0.8161,0.7936,0.8102,0.0,0.0,0.0,0.0,0.0,0.0,0.0,0.0,0.0,0.0,0.0,0.0,0.0,0.0,0.0,0.0,0.0,0.0,0.0,0.0,0.0,0.0,0.0,0.8564,0.8116,0.758,0.6959,0.6077,0.5458,0.4835,0.4478,0.0,0.0,0.0,0.0,0.0,0.0,0.0,0.0,0.0,0.0,0.0,0.0,0.0,0.0,0.0,0.0,0.0,0.0,0.0,0.0,0.0,0.0,0.0,0.0,0.5463,0.5552,0.546,0.5552,0.5733,0.5733,0.5733,0.5733,0.5733,0.5733,0.5754,0.5801,0.5803,0.5855,0.5972,0.5977,0.6034,0.6159,0.6162,0.6222,0.6246,0.6246,0.6283,0.6358,0.6358,0.6358,0.6358,0.6353,0.6353,0.635,0.6439,0.6437,0.6437,0.6437,0.6437,0.0,0.0,0.0,0.0,0.0,0.6437,0.6437,0.0,0.0,0.0,0.0,0.0,0.0,0.0,0.0,0.0,0.0,0.0,0.6254,0.7553,0.7698,0.808,0.917,0.8937,0.8475,0.0,0.0,0.0,0.0,0.0,0.0,0.0,0.0,0.0,0.0,0.0,0.0,0.0,0.0,0.0,0.0,0.0,0.0,0.0,0.0,0.0,0.0,0.0,0.0,0.8564,0.8568,0.7676,0.652,0.652,0.563,0.4389,0.4389,0.0,0.0,0.0,0.0,0.0,0.0,0.0,0.0,0.0,0.0,0.0,0.0,0.0,0.0,0.0,0.0,0.0,0.0,0.0,0.0,0.0,0.0,0.0,0.0,0.5191,0.528,0.501,0.5371,0.5644,0.5644,0.5644,0.5644,0.5644,0.5657,0.5705,0.5896,0.5918,0.5977,0.61,0.0,0.0,0.0,0.0,0.6336,0.6434,0.6437,0.6437,0.6437,0.6437,0.6437,0.6437,0.6437,0.6437,0.6437,0.6437,0.6437,0.6437,0.6437,0.6437,0.6534,0.6437,0.6437,0.6537,0.6537,0.6634,0.6933,0.0,0.0,0.0,0.0,0.0,0.0,0.0,0.0,0.0,0.5783,0.6486,0.6872,0.6868,0.7931,0.877,0.878,0.878,0.8399,0.0,0.0,0.0,0.0,0.0,0.0,0.0,0.0,0.0,0.0,0.0,0.0,0.0,0.0,0.0,0.0,0.0,0.0,0.0,0.0,0.0,0.0,0.0,0.0,0.8292,0.812,0.7588,0.6962,0.6962,0.6166,0.5193,0.5193,0.4656,0.403,0.403,0.0,0.0,0.0,0.0,0.0,0.0,0.0,0.0,0.0,0.0,0.0,0.0,0.0,0.0,0.0,0.0,0.0,0.0,0.0,0.0,0.501,0.501,0.5099,0.501,0.5099,0.5099,0.5099,0.5099,0.5099,0.5099,0.5456,0.5611,0.5631,0.5903,0.6105,0.6227,0.6233,0.6285,0.6399,0.6404,0.6415,0.6437,0.6437,0.6437,0.6437,0.0,0.0,0.6437,0.6437,0.6437,0.6437,0.6437,0.6437,0.6437,0.6437,0.693,0.7624,0.6734,0.6933,0.7726,0.7726,0.8219,0.9011,0.0,0.0,0.0,0.0,0.0,0.0,0.0,0.0,0.0,0.0,0.6331,0.6791,0.7322,0.8008,0.8623,0.9236,0.8927,0.0,0.0,0.0,0.0,0.0,0.0,0.0,0.0,0.0,0.0,0.0,0.0,0.0,0.0,0.0,0.0,0.0,0.0,0.0,0.0,0.0,0.0,0.0,0.0,0.0,0.7852,0.8028,0.7584,0.6969,0.7051,0.6523,0.5727,0.546,0.501,0.4385,0.4032,0.3764,0.3494,0.0,0.0,0.0,0.0,0.0,0.0,0.0,0.0,0.0,0.0,0.0,0.0,0.0,0.0,0.4654,0.0,0.0,0.4654,0.4654,0.4746,0.4835,0.4654,0.4746,0.4924,0.501,0.501,0.5029,0.5084,0.5415,0.5683,0.57,0.5992,0.614,0.6263,0.6268,0.6293,0.635,0.6407,0.6437,0.6437,0.6437,0.6437,0.6437,0.6437,0.6437,0.6437,0.6437,0.6437,0.6434,0.693,0.7229,0.7235,0.7902,0.8532,0.894,0.8519,0.8557,0.8814,0.8814,0.9264,0.9838,0.0,0.0,0.0,0.0,0.0,0.0,0.0,0.0,0.0,0.0,0.0,0.6479,0.7774,0.7855,0.8394,0.0,0.0,0.0,0.0,0.0,0.0,0.0,0.0,0.0,0.0,0.0,0.0,0.0,0.0,0.0,0.0,0.0,0.0,0.0,0.0,0.0,0.0,0.0,0.0,0.0,0.0,0.0,0.7591,0.8028,0.7584,0.6792,0.7054,0.6523,0.5725,0.5458,0.4919,0.4204,0.3674,0.3227,0.2867,0.2778,0.2868,0.0,0.0,0.0,0.0,0.0,0.0,0.0,0.0,0.0,0.43,0.43,0.43,0.43,0.43,0.43,0.43,0.43,0.448,0.4569,0.43,0.448,0.4665,0.486,0.4862,0.4894,0.4977,0.5284,0.5649,0.6018,0.6042,0.6328,0.6837,0.6651,0.6663,0.6982,0.6979,0.6945,0.677,0.677,0.6684,0.6507,0.6707,0.6807,0.6807,0.7006,0.7208,0.7208,0.8109,0.841,0.8517,0.986,1.0327,1.0446,1.081,1.0684,1.0306,1.0108,1.0301,1.0839,0.0,0.0,0.0,0.0,0.0,0.0,0.0,0.0,0.0,0.0,0.0,0.0,0.0,0.0,0.0,0.0,0.0,0.0,0.0,0.0,0.0,0.0,0.0,0.0,0.0,0.0,0.0,0.0,0.0,0.0,0.0,0.0,0.0,0.0,0.0,0.0,0.0,0.0,0.0,0.0,0.0,0.0,0.7856,0.794,0.7319,0.652,0.7234,0.6169,0.4565,0.5184,0.438,0.3045,0.3047,0.2957,0.2778,0.2422,0.0,0.2688,0.1793,0.1884,0.2243,0.2243,0.296,0.3587,0.0,0.0,0.43,0.43,0.43,0.43,0.43,0.43,0.43,0.43,0.43,0.43,0.43,0.43,0.4418,0.4501,0.4512,0.4516,0.4434,0.4975,0.5695,0.6564,0.6278,0.689,0.8745,0.8083,0.815,0.9178,0.9201,0.8885,0.8021,0.8021,0.7576,0.676,0.7799,0.8314,0.8418,0.9357,0.9876,0.9876,0.9979,1.0083,1.0087,1.1241,1.1662,1.1765,1.2735,1.313,1.2981,1.1937,1.2265,1.3125,0.0,0.0,0.0,0.0,0.0,0.0,0.0,0.0,0.0,0.0,0.0,0.0,0.0,0.0,0.0,0.0,0.0,0.0,0.0,0.0,0.0,0.0,0.0,0.0,0.0,0.0,0.0,0.0,0.0,0.0,0.0,0.0,0.0,0.0,0.0,0.0,0.0,0.0,0.0,0.0,0.0,0.0,0.7944,0.7944,0.7499,0.7058,0.7415,0.6612,0.0,0.0,0.4378,0.3044,0.2599,0.2242,0.1973,0.1794,0.2063,0.0,0.1973,0.1794,0.1705,0.0,0.2242,0.2871,0.3138,0.3315,0.3673,0.421,0.4121,0.3942,0.421,0.43,0.43,0.0,0.43,0.43,0.43,0.43,0.4314,0.4351,0.4402,0.4457,0.451,0.4782,0.5356,0.6261,0.6364,0.6985,0.8372,0.8463,0.8788,0.9357,0.9766,0.9855,0.9412,0.9412,0.9242,0.8891,0.9309,0.9623,0.9619,1.004,1.0664,1.1182,1.1182,1.1596,1.2235,1.2774,1.3033,1.3054,1.3625,1.3895,1.3863,1.305,1.3143,1.368,0.0,0.0,0.0,0.0,0.0,0.0,0.0,0.0,0.0,0.0,0.0,0.0,0.0,0.0,0.0,0.0,0.0,0.0,0.0,0.0,0.0,0.0,0.0,0.0,0.0,0.0,0.0,0.0,0.0,0.0,0.0,0.0,0.0,0.0,0.0,0.0,0.0,0.0,0.0,0.0,0.0,0.0,0.794,0.794,0.7852,0.7591,0.7415,0.6786,0.0,0.0,0.4556,0.3398,0.2956,0.2509,0.215,0.1882,0.1884,0.1974,0.1974,0.0,0.0,0.1615,0.1973,0.2511,0.2868,0.2957,0.3315,0.4208,0.421,0.4212,0.4567,0.4567,0.4567,0.43,0.43,0.43,0.43,0.43,0.4308,0.4334,0.4576,0.4747,0.4939,0.5073,0.5631,0.6688,0.689,0.7442,0.8807,0.9217,0.9762,1.0149,1.0802,1.111,1.0849,1.0849,1.0666,1.0396,1.0712,1.0923,1.0923,1.1243,1.1768,1.2501,1.2501,1.2929,1.3685,1.3857,1.3922,1.3943,1.4121,1.4196,1.4153,1.3803,1.3782,1.3922,0.0,0.0,0.0,0.0,0.0,0.0,0.0,0.0,0.0,0.0,0.0,0.0,0.0,0.0,0.0,0.0,0.0,0.0,0.0,0.0,0.0,0.0,0.0,0.0,0.0,0.0,0.0,0.0,0.0,0.0,0.0,0.0,0.0,0.0,0.0,0.0,0.0,0.0,0.0,0.0,0.0,0.0,0.8201,0.8201,0.8025,0.7852,0.7319,0.0,0.0,0.0,0.5092,0.4287,0.42,0.42,0.0,0.3133,0.2152,0.0,0.0,0.0,0.2154,0.2154,0.2511,0.2867,0.2867,0.3227,0.3764,0.4472,0.501,0.5371,0.5371,0.5371,0.5102,0.4389,0.43,0.43,0.43,0.43,0.4332,0.442,0.5073,0.5575,0.0,0.5986,0.6786,0.8641,0.8186,0.8815,1.1171,1.0988,1.1281,1.2417,1.3059,1.2956,1.2,1.2,1.1563,1.0655,1.1851,1.229,1.2398,1.3506,1.4062,1.4169,1.4169,1.4169,1.4175,1.418,1.4186,1.4186,1.4191,1.4196,1.4191,1.4175,1.4175,1.4186,0.0,0.0,0.0,0.0,0.0,0.0,0.0,0.0,0.0,0.0,0.0,0.0,0.0,0.0,0.0,0.0,0.0,0.0,0.0,0.0,0.0,0.0,0.0,0.0,0.0,0.0,0.0,0.0,0.0,0.0,0.0,0.0,0.0,0.0,0.0,0.0,0.0,0.0,0.0,0.0,0.0,0.0,0.8472,0.8288,0.8201,0.8025,0.0,0.0,0.0,0.0,0.0,0.0,0.3578,0.0,0.0,0.4293,0.0,0.0,0.0,0.0,0.3578,0.3578,0.3757,0.3935,0.4469,0.4383,0.4385,0.501,0.501,0.483,0.4656,0.4656,0.4567,0.43,0.43,0.43,0.43,0.48,0.5125,0.516,0.5966,0.0,0.0,0.0,0.0,0.8379,0.8484,0.9105,1.0574,1.1322,1.2011,1.2437,1.3417,1.3773,1.3526,1.3526,1.3347,1.298,1.3418,1.3635,1.3635,1.397,1.4196,1.4196,1.4196,1.4196,1.4196,1.4196,1.4196,1.4196,1.4196,1.4196,1.4196,1.4196,1.4196,1.4196,0.0,0.0,0.0,0.0,0.0,0.0,0.0,0.0,0.0,0.0,0.0,0.0,0.0,0.0,0.0,0.0,0.0,0.0,0.0,0.0,0.0,0.0,0.0,0.0,0.0,0.0,0.0,0.0,0.0,0.0,0.0,0.0,0.0,0.0,0.0,0.0,0.0,0.0,0.0,0.0,0.0,0.0,0.8568,0.8384,0.8288,0.0,0.0,0.0,0.0,0.0,0.0,0.0,0.0,0.0,0.0,0.0,0.0,0.0,0.0,0.4559,0.4289,0.4289,0.4378,0.4556,0.5003,0.509,0.5181,0.5811,0.5716,0.5536,0.5364,0.5364,0.5364,0.5013,0.5044,0.5158,0.5158,0.5705,0.6146,0.6146,0.6913,0.7685,0.0,0.0,0.0,0.886,0.9165,0.9739,1.0657,1.1736,1.2407,1.2762,1.3645,1.4196,1.4196,1.4196,1.4196,1.4196,1.4196,1.4196,1.4196,1.4196,1.4196,1.4196,1.4196,1.4239,1.4315,1.4315,1.4363,1.4439,1.4439,1.4439,1.4439,1.4439,1.4439,1.4417,0.0,0.0,0.0,0.0,0.0,0.0,0.0,0.0,0.0,0.0,0.0,0.0,0.0,0.0,0.0,0.0,0.0,0.0,0.0,0.0,0.0,0.0,0.0,0.0,0.0,0.0,0.0,0.0,0.0,0.0,0.0,0.0,0.0,0.0,0.0,0.0,0.0,0.0,0.0,0.0,0.0,0.0,0.8568,0.8568,0.0,0.0,0.0,0.0,0.0,0.0,0.0,0.0,0.0,0.0,0.0,0.0,0.0,0.4736,0.4467,0.4465,0.4465,0.4465,0.4645,0.4736,0.4825,0.5356,0.5974,0.6688,0.7132,0.7401,0.0,0.0,0.7139,0.6266,0.6463,0.6731,0.6645,0.6852,0.7029,0.0,0.0,0.0,0.0,0.0,0.0,0.9925,0.0,1.0733,1.1559,1.2114,1.2659,1.3207,1.3862,1.4196,1.4196,1.4196,1.4196,1.4196,1.4207,1.4213,1.4213,1.4223,1.4229,1.4229,1.4229,1.4352,1.4552,1.4552,1.4681,1.4885,1.4885,1.4885,1.4993,1.4993,1.4999,1.4934,0.0,0.0,0.0,0.0,0.0,0.0,0.0,0.0,0.0,0.0,0.0,0.0,0.0,0.0,0.0,0.0,0.0,0.0,0.0,0.0,0.0,0.0,0.0,0.0,0.0,0.0,0.0,0.0,0.0,0.0,0.0,0.0,0.0,0.0,0.0,0.0,0.0,0.0,0.0,0.0,0.0,0.0,0.8568,0.0,0.0,0.0,0.0,0.0,0.0,0.0,0.0,0.0,0.0,0.0,0.6508,0.0,0.0,0.67,0.6428,0.6517,0.67,0.67,0.6874,0.7139,0.7224,0.7397,0.7485,0.7136,0.7139,0.6962,0.0,0.0,0.0,0.6292,0.6521,0.0,0.6114,0.6611,0.0,0.7078,0.0,0.873,0.9497,0.9923,0.0,0.0,1.0932,1.1189,1.0907,1.2332,1.2876,1.2659,1.3645,1.4196,1.4196,1.4196,1.4196,1.4196,1.4369,1.4449,1.4455,1.4627,1.4708,1.4708,1.4708,1.474,1.4794,1.4794,1.4826,1.4885,1.4885,1.5327,1.5997,1.5997,1.6334,1.6993,0.0,0.0,0.0,0.0,0.0,0.0,0.0,0.0,0.0,0.0,0.0,0.0,0.0,0.0,0.0,0.0,0.0,0.0,0.0,0.0,0.0,0.0,0.0,0.0,0.0,0.0,0.0,0.0,0.0,0.0,0.0,0.0,0.0,0.0,0.0,0.0,0.0,0.0,0.0,0.0,0.0,0.0,0.0,0.0,0.0,0.0,0.0,0.0,0.0,0.0,0.0,0.7305,0.7848,0.7757,0.7401,0.7588,0.0,0.7768,0.7411,0.7503,0.768,0.7507,0.7768,0.8028,0.8201,0.8292,0.8292,0.7852,0.7764,0.0,0.0,0.0,0.0,0.0,0.0,0.0,0.7374,0.7811,0.8199,0.0,0.8733,0.0,0.9989,1.0172,1.0355,0.0,1.0967,1.1131,1.1131,1.2223,1.2881,1.2767,1.3753,1.4245,1.4342,1.4347,1.4396,1.4498,1.4627,1.4692,1.4692,1.4821,1.4885,1.4885,0.0,1.4945,1.5047,1.5047,1.5106,1.5198,1.5198,1.5539,1.5994,1.5994,1.6562,1.7477,0.0,0.0,0.0,0.0,0.0,0.0,0.0,0.0,0.0,0.0,0.0,0.0,0.0,0.0,0.0,0.0,0.0,0.0,0.0,0.0,0.0,0.0,0.0,0.0,0.0,0.0,0.0,0.0,0.0,0.0,0.0,0.0,0.0,0.0,0.0,0.0,0.0,0.0,0.0,0.0,0.0,0.0,0.0,0.0,0.0,0.0,0.0,0.0,0.0,0.0,0.8472,0.8288,0.8288,0.8384,0.8476,0.8032,0.8028,0.8113,0.768,0.7768,0.7852,0.768,0.794,0.8288,0.8288,0.8472,0.8568,0.8564,0.0,0.8472,0.8201,0.8404,0.8569,0.856,0.0,0.9194,0.9268,0.9331,0.943,0.943,0.9578,0.9855,1.0144,1.0432,1.0613,1.068,1.0802,1.1131,1.1568,1.2223,1.2782,1.3464,1.4049,1.4379,1.4579,1.4579,1.4681,1.4885,1.4918,1.4934,1.4934,1.4966,1.4977,1.4977,1.4977,1.5101,1.5295,1.5295,1.5418,1.5601,1.5715,1.5833,1.5946,1.607,1.6767,1.7695,0.0,0.0,0.0,0.0,0.0,0.0,0.0,0.0,0.0,0.0,0.0,0.0,0.0,0.0,0.0,0.0,0.0,0.0,0.0,0.0,0.0,0.0,0.0,0.0,0.0,0.0,0.0,0.0,0.0,0.0,0.0,0.0,0.0,0.0,0.0,0.0,0.0,0.0,0.0,0.0,0.0,0.0,0.0,0.0,0.0,0.0,0.0,0.0,0.0,0.0,0.8564,0.8564,0.8564,0.8564,0.8564,0.8204,0.8201,0.8113,0.7856,0.8028,0.8113,0.8113,0.8296,0.8564,0.8564,0.8564,0.0,0.0,0.0,0.8204,0.8028,0.8236,0.8564,0.8641,0.0,0.0,0.0,0.0,0.863,0.0,0.0,0.0,0.0,0.0,0.0,0.0,1.1564,1.2005,1.1568,1.255,1.351,1.4245,1.4665,1.4783,1.4821,1.4821,1.4842,1.4885,1.509,1.5187,1.5192,1.5386,1.5478,1.5478,1.5478,0.0,1.5537,1.5537,1.5564,1.5715,1.6414,1.7226,1.8046,1.8758,1.9693,2.05,0.0,0.0,0.0,0.0,0.0,0.0,0.0,0.0,0.0,0.0,0.0,0.0,0.0,0.0,0.0,0.0,0.0,0.0,0.0,0.0,0.0,0.0,0.0,0.0,0.0,0.0,0.0,0.0,0.0,0.0,0.0,0.0,0.0,0.0,0.0,0.0,0.0,0.0,0.0,0.0,0.0,0.0,0.0,0.0,0.0,0.0,0.0,0.0,0.0,0.0,0.9174,0.8915,0.8656,0.8568,0.8568,0.8472,0.8384,0.8384,0.8116,0.8204,0.838,0.8201,0.8384,0.8568,0.8568,0.0,0.0,0.0,0.0,0.8412,0.841,0.0,0.0,0.0,0.0,0.0,0.0,0.0,0.0,0.0,0.0,0.0,0.0,0.0,0.0,1.1559,1.2206,1.2376,1.1824,1.2923,1.4039,1.4713,1.4826,1.4945,1.5074,1.5074,1.5138,1.5257,1.5375,1.5429,1.5435,1.5548,1.5601,1.5601,1.5601,1.5601,1.5601,1.6183,1.6295,1.6414,1.7343,1.804,1.8506,1.8868,1.9686,2.0515,0.0,0.0,0.0,0.0,0.0,0.0,0.0,0.0,0.0,0.0,0.0,0.0,0.0,0.0,0.0,0.0,0.0,0.0,0.0,0.0,0.0,0.0,0.0,0.0,0.0,0.0,0.0,0.0,0.0,0.0,0.0,0.0,0.0,0.0,0.0,0.0,0.0,0.0,0.0,0.0,0.0,0.0,0.0,0.0,0.0,0.0,0.0,0.0,0.0,0.0,0.9781,0.9349,0.8999,0.8828,0.874,0.874,0.8656,0.8564,0.838,0.8472,0.8564,0.838,0.8472,0.8568,0.8568,0.8568,0.0,0.0,0.8568,0.8621,0.8787,0.0,0.0,0.0,0.0,0.0,0.0,0.0,0.0,0.0,0.0,0.0,0.0,0.0,0.0,1.2332,1.2779,1.281,1.2356,1.3571,1.45,1.4961,1.5009,1.5128,1.5322,1.5327,1.5418,1.5601,1.5601,1.5601,1.5601,1.5601,1.5601,1.5601,1.5601,1.5601,1.5715,1.6414,1.6644,1.6762,1.7695,1.8273,1.8389,1.8629,1.9332,2.0046,0.0,0.0,0.0,0.0,0.0,0.0,0.0,0.0,0.0,0.0,0.0,0.0,0.0,0.0,0.0,0.0,0.0,0.0,0.0,0.0,0.0,0.0,0.0,0.0,0.0,0.0,0.0,0.0,0.0,0.0,0.0,0.0,0.0,0.0,0.0,0.0,0.0,0.0,0.0,0.0,0.0,0.0,0.0,0.0,0.0,0.0,0.0,0.0,0.0,0.0,0.0,0.9951,0.9864,0.9607,0.9262,0.9262,0.0,0.0,0.8564,0.8568,0.8568,0.8564,0.8568,0.8568,0.8568,0.0,0.0,0.8568,0.8568,0.8621,0.8787,0.0,0.0,0.0,0.0,0.9608,0.0,0.0,0.0,0.0,0.0,0.0,0.0,0.0,0.0,1.2441,1.3359,1.3818,1.3818,1.462,1.5098,1.5219,1.5424,1.5542,1.5569,1.5569,1.558,1.5601,1.5601,1.5601,1.5601,1.5601,1.5601,1.5601,1.5601,1.5601,0.0,1.5715,1.5715,1.5833,1.6762,1.7695,1.8506,1.9339,2.0277,2.1096,0.0,0.0,0.0,0.0,0.0,0.0,0.0,0.0,0.0,0.0,0.0,0.0,0.0,0.0,0.0,0.0,0.0,0.0,0.0,0.0,0.0,0.0,0.0,0.0,0.0,0.0,0.0,0.0,0.0,0.0,0.0,0.0,0.0,0.0,0.0,0.0,0.0,0.0,0.0,0.0,0.0,0.0,0.0,0.0,0.0,0.0,0.0,0.0,0.0,0.0,0.0,0.0,1.0651,1.0472,0.0,0.0,0.9607,0.9432,0.9432,0.9262,0.8999,0.8999,0.8828,0.8568,0.8568,0.0,0.8568,0.8568,0.8649,0.8775,0.8954,0.0,0.0,0.0,0.0,0.0,0.0,0.0,0.0,0.0,0.0,0.0,0.0,0.0,1.3426,1.3912,1.4453,1.4814,1.495,1.5285,1.5461,1.5461,1.5548,1.5601,1.5601,1.5601,1.5601,1.5601,1.5601,1.5601,1.5601,1.5601,1.5601,1.5601,1.5601,1.5601,0.0,1.6183,1.6762,1.7343,1.8286,1.9216,2.0155,2.0507,2.0859,2.1211,0.0,0.0,0.0,0.0,0.0,0.0,0.0,0.0,0.0,0.0,0.0,0.0,0.0,0.0,0.0,0.0,0.0,0.0,0.0,0.0,0.0,0.0,0.0,0.0,0.0,0.0,0.0,0.0,0.0,0.0,0.0,0.0,0.0,0.0,0.0,0.0,0.0,0.0,0.0,0.0,0.0,0.0,0.0,0.0,0.0,0.0,0.0,0.0,0.0,0.0,0.0,0.0,0.0,0.0,0.0,0.0,1.0125,1.0038,1.0038,0.9781,0.9519,0.9519,0.9262,0.8999,0.0,0.0,0.874,0.8656,0.8702,0.8877,0.925,0.9523,0.0,0.0,0.0,1.0806,0.0,0.0,0.0,0.0,0.0,0.0,0.0,1.3501,1.4014,1.4853,1.5112,1.5354,1.5585,1.5601,1.5601,1.5601,1.5601,1.5601,1.5601,1.5601,1.5601,1.5601,1.5601,1.5601,1.5601,1.5601,1.5601,1.5601,1.5601,1.5715,0.0,1.6762,1.7578,1.8506,1.91,1.9979,2.0873,2.0873,2.1169,2.1496,0.0,0.0,0.0,0.0,0.0,0.0,0.0,0.0,0.0,0.0,0.0,0.0,0.0,0.0,0.0,0.0,0.0,0.0,0.0,0.0,0.0,0.0,0.0,0.0,0.0,0.0,0.0,0.0,0.0,0.0,0.0,0.0,0.0,0.0,0.0,0.0,0.0,0.0,0.0,0.0,0.0,0.0,0.0,0.0,0.0,0.0,0.0,0.0,0.0,0.0,0.0,0.0,0.0,0.0,0.0,0.0,1.0294,1.0038,1.0038,1.0038,0.9951,0.9951,0.9951,0.9864,0.0,0.0,0.9174,0.8652,0.8702,0.9059,0.9802,0.9987,1.0368,1.1063,0.0,0.0,0.0,0.0,0.0,0.0,0.0,0.0,1.4056,1.4396,1.4632,1.4864,1.5112,0.0,1.5585,1.5601,1.5601,1.5601,1.5601,1.5601,1.5601,1.5601,1.5601,1.5601,1.5601,1.5601,1.5601,1.5601,1.5601,1.5601,1.5601,1.6183,0.0,1.6997,1.7578,1.8389,1.8389,1.9148,2.0351,2.0351,2.1159,2.2176,0.0,0.0,0.0,0.0,0.0,0.0,0.0,0.0,0.0,0.0,0.0,0.0,0.0,0.0,0.0,0.0,0.0,0.0,0.0,0.0,0.0,0.0,0.0,0.0,0.0,0.0,0.0,0.0,0.0,0.0,0.0,0.0,0.0,0.0,0.0,0.0,0.0,0.0,0.0,0.0,0.0,0.0,0.0,0.0,0.0,0.0,0.0,0.0,0.0,0.0,0.0,0.0,0.0,0.0,0.0,0.0,0.0,0.0,1.0911,1.0646,1.0376,1.0376,1.0207,0.9951,0.9777,0.0,0.9643,0.9331,0.9695,1.0075,1.0085,1.0473,1.1021,1.1673,1.178,0.0,0.0,0.0,0.0,0.0,0.0,0.0,0.0,0.0,1.4875,1.5117,1.5354,1.5521,1.5596,1.5601,1.5601,1.5601,1.5601,1.5601,1.5601,1.5601,1.5952,1.6532,1.5952,1.5946,1.6532,1.6532,1.6532,1.6649,1.7232,1.7695,1.7923,1.7923,1.8615,1.9737,1.9737,2.0524,2.1658,2.1658,2.1843,2.2184,0.0,0.0,0.0,0.0,0.0,0.0,0.0,0.0,0.0,0.0,0.0,0.0,0.0,0.0,0.0,0.0,0.0,0.0,0.0,0.0,0.0,0.0,0.0,0.0,0.0,0.0,0.0,0.0,0.0,0.0,0.0,0.0,0.0,0.0,0.0,0.0,0.0,0.0,0.0,0.0,0.0,0.0,1.1262,0.0,0.0,0.0,0.0,0.0,0.0,0.0,0.0,0.0,0.0,0.0,0.0,0.0,0.0,0.0,0.0,1.1084,1.0901,1.0901,1.0646,0.0,0.0,0.0,1.0284,0.9867,1.0297,1.0726,1.0659,1.1144,1.1683,1.2175,1.2345,0.0,0.0,0.0,0.0,0.0,0.0,0.0,0.0,1.4745,1.4982,1.523,1.5467,1.5601,1.5601,1.5601,1.5601,1.5601,1.5601,1.5601,1.5601,1.5601,1.5833,1.6414,1.5833,1.5952,1.6414,1.6414,1.6414,1.6532,1.7114,1.7867,0.0,1.8202,1.8957,2.041,2.041,2.0969,2.1861,2.2231,2.2425,2.2535,0.0,0.0,0.0,0.0,0.0,0.0,0.0,0.0,0.0,0.0,0.0,0.0,0.0,0.0,0.0,0.0,0.0,0.0,0.0,0.0,0.0,0.0,0.0,0.0,0.0,0.0,0.0,0.0,1.2304,1.1986,1.1348,0.0,0.0,0.0,0.0,0.0,0.0,0.0,0.0,0.0,0.0,0.0,0.0,0.0,0.0,0.0,0.0,0.0,0.0,0.0,0.0,0.0,0.0,0.0,0.0,0.0,0.0,0.0,0.0,0.0,0.0,0.0,0.0,0.0,0.0,0.0,0.0,0.0,1.0696,1.1162,1.1652,1.193,1.2181,1.2786,1.2964,0.0,0.0,0.0,0.0,0.0,1.4196,0.0,1.4536,1.4756,1.4993,1.5257,1.5478,1.5601,1.5601,1.5601,1.5601,1.5601,1.5715,1.572,1.5601,1.5601,1.5596,1.5715,1.5596,1.572,1.5833,1.5833,1.5833,0.0,1.5968,1.7161,1.9054,1.8135,1.8905,2.0732,2.0732,2.0917,2.1307,2.2285,2.2849,2.3106,0.0,0.0,0.0,0.0,0.0,0.0,0.0,0.0,0.0,0.0,0.0,0.0,0.0,0.0,0.0,0.0,0.0,0.0,0.0,0.0,0.0,0.0,0.0,0.0,0.0,0.0,0.0,1.2604,1.2478,1.2165,1.1613,1.144,0.0,0.0,0.0,0.0,0.0,0.0,0.0,0.0,0.0,0.0,0.0,0.0,0.0,0.0,1.1262,1.1262,0.0,0.0,0.0,0.0,0.0,0.0,0.0,0.0,1.1699,0.0,0.0,0.0,0.0,0.0,0.0,0.0,0.0,0.0,0.0,0.0,0.0,1.1988,1.1966,1.2334,1.2721,1.2996,1.3071,1.3233,0.0,0.0,0.0,0.0,1.4196,1.4352,1.4762,1.4853,1.5063,1.5488,1.5569,1.5601,1.5601,1.5601,1.5601,1.5601,1.6295,1.6295,1.5601,1.5601,1.5946,1.6644,1.5946,1.6295,1.7695,1.7695,1.8163,1.8887,1.9821,2.0552,2.0996,2.1117,2.1513,2.2141,2.2141,2.2335,2.2623,2.2872,2.3047,2.3106,0.0,0.0,0.0,0.0,0.0,0.0,0.0,0.0,0.0,0.0,0.0,0.0,0.0,0.0,0.0,0.0,0.0,0.0,0.0,0.0,0.0,0.0,0.0,0.0,0.0,0.0,0.0,0.0,0.0,1.2439,0.0,0.0,0.0,0.0,0.0,0.0,0.0,0.0,0.0,0.0,0.0,0.0,0.0,0.0,0.0,0.0,1.144,1.144,0.0,1.1613,1.1699,1.1785,0.0,0.0,0.0,0.0,1.1871,0.0,0.0,0.0,0.0,0.0,0.0,0.0,0.0,0.0,0.0,0.0,0.0,0.0,1.2349,1.2565,0.0,1.3066,1.32,0.0,0.0,0.0,0.0,1.4196,1.4288,1.4492,0.0,1.4982,1.5203,1.5569,1.5601,1.5601,1.5601,1.5601,1.5601,1.5601,1.6065,1.6295,1.6295,1.6295,1.6762,1.7572,1.6644,1.6997,1.8389,1.8389,1.8816,1.9429,2.006,2.0767,2.1406,2.1213,2.1463,2.2107,2.2107,2.2206,2.248,2.2988,2.3106,2.3106,0.0,0.0,0.0,0.0,0.0,0.0,0.0,0.0,0.0,0.0,0.0,0.0,0.0,0.0,0.0,0.0,0.0,0.0,0.0,0.0,0.0,0.0,0.0,0.0,0.0,0.0,0.0,0.0,0.0,0.0,0.0,0.0,0.0,0.0,0.0,0.0,0.0,0.0,0.0,0.0,1.1348,0.0,0.0,0.0,0.0,0.0,0.0,0.0,0.0,1.1957,1.2043,1.2037,1.2037,0.0,0.0,0.0,0.0,0.0,0.0,0.0,0.0,0.0,0.0,0.0,0.0,0.0,0.0,0.0,0.0,0.0,0.0,0.0,0.0,0.0,0.0,0.0,0.0,0.0,0.0,1.4196,1.4396,0.0,1.4859,1.5106,1.5348,1.558,1.5601,1.5601,1.5601,1.5601,1.5601,1.5601,1.5715,1.6183,1.6997,1.6879,1.7226,1.7923,1.7343,1.7461,1.8389,1.8551,1.8939,1.9298,1.9376,0.0,2.1389,2.0571,2.0875,2.1859,2.1859,2.1859,2.1985,2.2738,2.3106,2.3106,0.0,0.0,0.0,0.0,0.0,0.0,0.0,0.0,0.0,0.0,0.0,0.0,0.0,0.0,0.0,0.0,0.0,0.0,0.0,0.0,0.0,0.0,0.0,0.0,0.0,0.0,0.0,0.0,0.0,0.0,1.2363,1.2123,1.1957,0.0,0.0,0.0,0.0,0.0,0.0,0.0,0.0,0.0,0.0,0.0,0.0,0.0,0.0,0.0,0.0,1.1957,1.2118,1.2283,1.2037,0.0,0.0,0.0,0.0,0.0,1.2651,0.0,0.0,0.0,0.0,0.0,0.0,0.0,0.0,0.0,0.0,0.0,0.0,0.0,0.0,0.0,0.0,1.411,0.0,0.0,1.4196,1.4196,0.0,1.4627,1.4859,1.5106,1.5348,1.558,1.5601,1.5601,1.5601,1.5601,1.5601,1.5601,1.6414,1.6879,1.6997,1.6183,1.5833,1.6065,1.6644,1.7461,1.8396,1.9579,2.0441,2.1246,0.0,2.2162,2.2393,2.2544,2.2688,2.2856,2.2856,2.2856,2.2856,2.2981,2.3106,2.3106,0.0,0.0,0.0,0.0,0.0,0.0,0.0,0.0,0.0,0.0,0.0,0.0,0.0,0.0,0.0,0.0,0.0,0.0,0.0,0.0,0.0,0.0,0.0,0.0,0.0,0.0,0.0,0.0,0.0,1.2921,1.2534,1.2283,1.2203,1.2203,0.0,0.0,0.0,0.0,0.0,0.0,0.0,0.0,0.0,0.0,0.0,0.0,0.0,0.0,0.0,0.0,1.2454,1.2534,1.2454,0.0,0.0,0.0,0.0,0.0,1.2827,1.2968,0.0,0.0,0.0,0.0,0.0,0.0,0.0,0.0,0.0,0.0,0.0,0.0,0.0,0.0,0.0,1.4196,1.4196,1.4196,1.4239,0.0,0.0,1.4821,1.5058,1.53,1.5483,1.5591,1.5601,1.5601,1.5601,1.6065,1.6414,1.6414,1.7226,1.7812,1.7812,1.7343,1.7349,1.7824,1.7812,1.8596,2.0165,2.0787,2.1507,2.2213,0.0,2.2725,2.2901,2.3047,2.3106,2.3106,2.3106,2.3106,2.3106,2.3106,2.3106,2.3106,0.0,0.0,0.0,0.0,0.0,0.0,0.0,0.0,0.0,0.0,0.0,0.0,0.0,0.0,0.0,0.0,0.0,0.0,0.0,0.0,0.0,0.0,0.0,0.0,0.0,0.0,0.0,1.3423,1.3224,1.2976,1.2705,1.2534,1.2448,0.0,0.0,0.0,0.0,0.0,0.0,0.0,0.0,0.0,0.0,0.0,0.0,0.0,0.0,0.0,0.0,0.0,0.0,0.0,0.0,0.0,0.0,0.0,1.2904,1.3051,1.3022,1.3185,1.3444,0.0,0.0,0.0,0.0,0.0,0.0,0.0,0.0,0.0,0.0,0.0,0.0,0.0,1.4067,1.4196,1.4196,1.4196,1.4277,1.4509,1.474,1.4977,1.523,1.5461,1.5601,1.5601,1.5601,1.5601,1.5601,1.6301,1.6649,1.6649,1.7578,1.804,1.804,1.8273,1.8745,1.9461,1.9043,1.978,2.1334,2.1722,2.2169,2.2623,2.2703,2.2879,2.3106,2.3106,2.3106,2.3106,2.3106,2.3106,2.3106,2.3106,2.3106,2.3106,0.0,0.0,0.0,0.0,0.0,0.0,0.0,0.0,0.0,0.0,0.0,0.0,0.0,0.0,0.0,0.0,0.0,0.0,0.0,0.0,0.0,0.0,0.0,0.0,0.0,1.3918,1.3658,1.3151,1.3133,1.2976,1.2705,1.2705,1.2705,0.0,0.0,0.0,0.0,0.0,0.0,0.0,0.0,0.0,0.0,0.0,0.0,0.0,0.0,0.0,0.0,0.0,0.0,0.0,0.0,0.0,0.0,0.0,0.0,1.3175,1.3423,1.3505,0.0,0.0,0.0,0.0,0.0,0.0,0.0,0.0,0.0,0.0,0.0,0.0,0.0,1.4126,1.4186,1.4196,1.4196,0.0,1.4277,1.4509,1.474,1.4977,1.523,1.5461,1.5601,1.5601,1.5601,1.5601,1.5601,1.5715,1.5715,1.5715,1.6649,1.7109,1.7109,1.7923,1.8389,1.8512,1.9599,2.0219,2.0496,2.1917,2.2579,2.2637,2.2945,2.3091,2.3106,2.3106,2.3106,2.3106,2.3106,2.3106,2.3106,2.3106,2.3106,2.3106,0.0,0.0,0.0,0.0,0.0,0.0,0.0,0.0,0.0,0.0,0.0,0.0,0.0,0.0,0.0,0.0,0.0,0.0,0.0,0.0,0.0,0.0,0.0,1.3755,1.3429,1.3423,1.332,1.3127,1.2952,1.2807,1.2705,1.2705,0.0,0.0,0.0,0.0,0.0,0.0,0.0,0.0,0.0,0.0,0.0,0.0,0.0,0.0,0.0,0.0,0.0,0.0,0.0,0.0,0.0,0.0,0.0,0.0,0.0,1.3423,1.3688,1.3854,0.0,0.0,0.0,0.0,0.0,0.0,0.0,0.0,0.0,0.0,0.0,0.0,1.4607,1.4708,1.4719,1.4719,1.4719,1.4853,1.4927,1.4948,1.5188,1.5429,1.5445,1.5548,1.5601,1.5601,1.5601,1.5601,1.5601,1.6762,1.7343,1.7343,1.8868,1.957,1.957,1.9917,2.0148,2.0155,2.0213,2.0698,2.1518,2.2304,2.2732,2.293,2.3054,2.3106,2.3106,2.3106,2.3106,2.3106,2.3106,2.3106,2.3106,2.3106,2.3106,2.3106,0.0,0.0,0.0,0.0,0.0,0.0,0.0,0.0,0.0,0.0,0.0,0.0,0.0,0.0,0.0,0.0,0.0,0.0,0.0,0.0,0.0,0.0,0.0,1.3495,1.3133,1.3037,1.2988,1.2988,1.2795,1.2705,1.2705,0.0,0.0,0.0,0.0,0.0,0.0,0.0,0.0,0.0,0.0,0.0,0.0,0.0,0.0,0.0,0.0,0.0,0.0,0.0,0.0,0.0,0.0,0.0,0.0,0.0,0.0,0.0,1.3857,1.4099,0.0,0.0,0.0,0.0,0.0,0.0,0.0,0.0,0.0,0.0,0.0,0.0,0.0,0.0,1.5041,1.5041,1.5041,1.5252,1.5393,1.531,1.5554,1.5798,1.6042,1.6065,1.6183,1.6414,1.6532,1.6532,1.6532,1.7695,1.8389,1.8389,1.9917,2.0744,2.0744,2.1089,2.1262,2.1364,2.1085,2.1349,2.2198,2.2593,2.2901,2.3106,2.3106,2.3106,2.3106,2.3106,2.3106,2.3106,2.3106,2.3106,2.3106,2.3106,2.3238,2.3355,0.0,0.0,0.0,0.0,0.0,0.0,0.0,0.0,0.0,0.0,0.0,0.0,0.0,0.0,0.0,0.0,0.0,0.0,0.0,0.0,0.0,0.0,0.0,1.3127,1.3121,1.285,1.2705,1.2705,1.2705,1.2705,1.2705,0.0,0.0,0.0,0.0,0.0,0.0,0.0,0.0,0.0,0.0,1.2705,1.2705,0.0,0.0,0.0,0.0,0.0,0.0,0.0,0.0,0.0,0.0,0.0,0.0,0.0,1.3707,1.3906,1.3912,1.4099,0.0,0.0,0.0,0.0,0.0,0.0,0.0,0.0,0.0,0.0,0.0,0.0,0.0,1.5041,1.5041,1.5041,1.5041,1.5252,1.5399,1.5316,1.5554,1.6025,1.6973,1.6997,1.7343,1.8389,1.8389,1.8389,1.8389,1.8389,1.8389,1.8389,1.9339,1.9815,1.9815,2.0744,2.1379,2.1701,2.203,2.2184,2.2206,2.2828,2.3106,2.3106,2.3106,2.3106,2.3106,2.3106,2.3106,2.3106,2.3106,2.3106,2.3106,2.3106,2.3487,2.4108,0.0,0.0,0.0,0.0,0.0,0.0,0.0,0.0,0.0,0.0,0.0,0.0,0.0,0.0,0.0,0.0,0.0,0.0,0.0,0.0,0.0,0.0,0.0,0.0,0.0,0.0,1.2705,1.2705,1.2705,1.2705,0.0,0.0,0.0,1.2705,0.0,0.0,0.0,0.0,0.0,0.0,0.0,1.2705,1.2705,0.0,0.0,0.0,0.0,0.0,0.0,0.0,0.0,0.0,0.0,0.0,0.0,1.3713,1.3845,1.3948,1.4129,0.0,0.0,0.0,0.0,0.0,0.0,0.0,0.0,0.0,0.0,0.0,0.0,0.0,0.0,1.5678,1.5678,1.5743,1.5922,1.6184,1.6334,1.6246,1.6507,1.6926,1.7917,1.7923,1.8493,1.9632,1.9632,1.9632,1.9632,2.0322,2.0673,2.0673,2.1509,2.2101,2.2101,2.2335,2.2619,2.3076,2.3293,2.3103,2.2506,2.2915,2.3106,2.3106,2.3106,2.3106,2.3106,2.3106,2.3106,2.3106,2.3106,2.3106,2.3106,2.3106,2.3238,2.3362,0.0,0.0,0.0,0.0,0.0,0.0,0.0,0.0,0.0,0.0,0.0,0.0,0.0,0.0,0.0,0.0,0.0,0.0,0.0,0.0,0.0,0.0,0.0,0.0,0.0,1.2705,1.2705,0.0,0.0,0.0,0.0,0.0,0.0,1.2705,0.0,0.0,0.0,0.0,0.0,1.2875,1.2875,1.2942,1.3034,0.0,0.0,0.0,0.0,0.0,0.0,0.0,0.0,0.0,0.0,0.0,0.0,1.4178,1.4157,1.4093,1.4256,0.0,0.0,0.0,0.0,0.0,0.0,0.0,0.0,0.0,0.0,0.0,1.5891,1.5891,0.0,1.5891,1.5891,1.5982,1.6241,1.6525,1.6903,1.7261,1.7536,1.8273,1.953,1.9645,2.0106,2.1252,2.1365,2.1365,2.1365,2.1828,2.2176,2.2176,2.2659,2.3014,2.3014,2.3014,2.3252,2.3729,2.3935,2.3816,2.3565,2.3514,2.3362,2.3106,2.3106,2.3106,2.3106,2.3106,2.3106,2.3106,2.3106,2.3106,2.3106,2.3106,2.323,2.3487,0.0,0.0,0.0,0.0,0.0,0.0,0.0,0.0,0.0,0.0,0.0,0.0,0.0,0.0,0.0,0.0,0.0,0.0,0.0,0.0,0.0,0.0,0.0,0.0,0.0,0.0,0.0,0.0,0.0,0.0,0.0,0.0,1.2705,1.2705,0.0,1.2705,0.0,1.2991,1.3174,1.318,1.312,1.3281,1.3498,1.3328,0.0,0.0,0.0,0.0,0.0,0.0,0.0,0.0,0.0,0.0,0.0,1.462,1.449,1.4298,0.0,0.0,0.0,0.0,0.0,0.0,0.0,0.0,0.0,0.0,0.0,1.5891,1.5891,1.5891,1.5891,1.5891,1.591,1.6018,1.6278,1.6673,1.7272,1.8311,1.8794,1.9754,2.1586,2.1699,2.2176,2.3127,2.3127,2.3127,2.3127,2.3127,2.3127,2.3127,2.3127,2.3127,2.3127,2.3127,2.347,2.4156,2.4156,2.4532,2.5226,2.4487,2.386,2.3238,2.3238,2.3238,2.3238,2.323,2.3238,2.323,2.3106,2.3106,2.323,2.3106,2.3604,2.4108,0.0,0.0,0.0,0.0,0.0,0.0,0.0,0.0,0.0,0.0,0.0,0.0,0.0,0.0,0.0,0.0,0.0,0.0,0.0,0.0,0.0,0.0,0.0,0.0,0.0,0.0,0.0,0.0,0.0,0.0,0.0,0.0,0.0,1.2705,0.0,1.3052,0.0,1.3281,1.3368,1.3386,1.3616,1.3746,1.3795,1.3969,1.409,0.0,0.0,0.0,0.0,0.0,0.0,0.0,0.0,1.4696,1.4613,1.4472,1.4394,1.4298,0.0,0.0,0.0,0.0,0.0,0.0,0.0,0.0,0.0,0.0,1.5891,1.5891,1.5891,1.5891,1.5891,1.5891,1.606,1.6296,1.6573,1.7616,1.8564,1.9077,1.995,2.113,2.2515,2.2741,2.3207,2.4368,2.4368,2.4368,2.4368,2.4368,2.4368,2.4368,2.4368,2.4368,2.4368,2.4368,2.4738,2.5461,2.5461,2.5611,2.5831,2.5226,2.4857,2.461,2.461,2.461,2.461,2.4108,2.4232,2.461,2.3487,2.3736,2.4487,2.3479,2.386,2.4734,0.0,0.0,0.0,0.0,0.0,0.0,0.0,0.0,0.0,0.0,0.0,0.0,0.0,0.0,0.0,0.0,0.0,0.0,0.0,0.0,0.0,0.0,0.0,0.0,0.0,0.0,0.0,0.0,0.0,0.0,0.0,0.0,0.0,1.2904,0.0,1.3318,1.3285,1.3679,1.3824,1.3843,1.3994,1.4229,1.4434,1.4428,1.4694,1.4817,0.0,0.0,0.0,0.0,0.0,0.0,0.0,0.0,1.5064,1.4873,1.4777,1.4719,0.0,0.0,0.0,0.0,0.0,0.0,0.0,0.0,0.0,0.0,1.5891,1.5891,1.5891,1.5891,1.5891,1.5891,1.6642,1.7239,1.7525,1.8803,2.0111,2.0994,2.1601,2.2515,2.3784,2.3896,2.4128,2.471,2.4821,2.4821,2.4821,2.4821,2.4821,2.4821,2.4821,2.4821,2.4821,2.4992,2.5369,2.5934,2.6122,2.6262,2.6571,2.5594,2.5111,2.5111,2.5111,2.5111,2.5111,2.4734,2.4734,2.4988,2.4355,2.4487,2.498,2.4355,2.4487,2.4988,0.0,0.0,0.0,0.0,0.0,0.0,0.0,0.0,0.0,0.0,0.0,0.0,0.0,0.0,0.0,0.0,0.0,0.0,0.0,0.0,0.0,0.0,0.0,0.0,0.0,0.0,0.0,0.0,0.0,0.0,0.0,0.0,0.0,1.3282,0.0,0.0,1.3604,1.4094,1.4294,1.4301,1.4345,1.4688,1.5086,1.49,0.0,0.0,0.0,0.0,0.0,0.0,0.0,0.0,0.0,0.0,1.5458,1.5504,1.5338,1.5114,0.0,0.0,0.0,0.0,0.0,0.0,0.0,0.0,0.0,1.5891,1.5891,1.5891,1.5891,1.6099,1.6223,1.6267,1.746,1.8605,1.8899,2.0204,2.1518,2.283,2.3207,2.3672,2.471,2.4821,2.4821,2.4821,2.4821,2.4821,2.4821,2.4821,2.4821,2.4821,2.4821,2.4821,2.4821,2.5189,2.5557,2.5943,2.6379,2.6765,2.7073,2.597,2.548,2.548,2.548,2.548,2.548,2.5349,2.5357,2.5472,2.5234,2.5234,2.548,2.5234,2.5234,2.5357,0.0,0.0,0.0,0.0,0.0,0.0,0.0,0.0,0.0,0.0,0.0,0.0,0.0,0.0,0.0,0.0,0.0,0.0,0.0,0.0,0.0,0.0,0.0,0.0,0.0,0.0,0.0,0.0,0.0,0.0,0.0,0.0,0.0,0.0,0.0,0.0,0.0,1.44,1.4513,1.4625,1.5143,1.5354,1.5481,0.0,0.0,0.0,0.0,0.0,0.0,0.0,0.0,0.0,0.0,0.0,1.5497,1.546,1.5335,1.5195,0.0,0.0,0.0,0.0,0.0,0.0,0.0,0.0,0.0,0.0,1.5891,1.5891,1.5891,1.6736,1.745,1.7795,1.8944,2.0026,2.0448,2.178,2.2806,2.2974,2.3896,2.459,2.4821,2.4821,2.4821,2.4821,2.4821,2.4821,2.4821,2.4821,2.4821,2.4821,2.4821,2.4821,2.4821,2.5189,2.5557,2.5951,2.6653,2.703,2.7073,2.6952,2.683,2.683,2.683,2.683,2.683,2.6205,2.6327,2.6709,2.5602,2.5847,2.67,2.548,2.5847,2.67,0.0,0.0,0.0,0.0,0.0,0.0,0.0,0.0,0.0,0.0,0.0,0.0,0.0,0.0,0.0,0.0,0.0,0.0,0.0,0.0,0.0,0.0,0.0,0.0,0.0,0.0,0.0,0.0,0.0,0.0,0.0,1.3707,1.3628,0.0,0.0,0.0,0.0,0.0,0.0,1.5087,1.5399,1.554,0.0,0.0,0.0,0.0,0.0,0.0,0.0,0.0,0.0,0.0,1.5929,0.0,0.0,0.0,0.0,0.0,0.0,0.0,0.0,0.0,0.0,0.0,0.0,0.0,1.5891,1.5891,1.5891,1.6099,1.6736,1.739,1.817,1.8928,2.0453,2.1626,2.1765,2.3102,2.4016,2.4016,2.4479,2.4821,2.4821,2.4821,2.4821,2.4821,2.4821,2.4821,2.4821,2.4821,2.4821,2.4821,2.4821,2.4821,2.4821,2.5395,2.5985,2.6585,2.6919,2.7073,2.7073,2.7073,2.7073,2.7073,2.7073,2.7073,2.7073,2.6822,2.6822,2.7073,2.6457,2.6579,2.7073,2.6457,2.6587,2.7073,0.0,0.0,0.0,0.0,0.0,0.0,0.0,0.0,0.0,0.0,0.0,0.0,0.0,0.0,0.0,0.0,0.0,0.0,0.0,0.0,0.0,0.0,0.0,0.0,0.0,0.0,0.0,0.0,0.0,0.0,1.439,1.4196,1.4102,0.0,1.4665,0.0,0.0,0.0,0.0,0.0,0.0,0.0,0.0,0.0,0.0,0.0,0.0,0.0,0.0,0.0,0.0,0.0,0.0,0.0,0.0,0.0,0.0,0.0,0.0,0.0,0.0,0.0,0.0,0.0,0.0,0.0,1.5998,0.0,1.6367,1.6945,1.8317,1.8596,1.9006,2.0345,2.1891,2.3047,2.3145,2.4072,2.4821,2.4821,2.4821,2.4821,2.4821,2.4821,2.4821,2.4821,2.4821,2.4821,2.4821,2.4821,2.4821,2.4821,2.4821,2.4864,2.4958,2.5703,2.6414,2.7073,2.7073,2.7073,2.7073,2.7073,2.7073,2.7073,2.7073,2.7073,2.7073,2.7073,2.7073,2.7073,2.7073,2.7073,2.7073,2.7073,2.7073,2.7073,0.0,0.0,0.0,0.0,0.0,0.0,0.0,0.0,0.0,0.0,0.0,0.0,0.0,0.0,0.0,0.0,0.0,0.0,0.0,0.0,0.0,0.0,0.0,0.0,0.0,0.0,0.0,0.0,0.0,0.0,1.4669,1.4669,1.4669,1.4669,1.4472,1.458,1.5083,0.0,0.0,0.0,0.0,0.0,0.0,0.0,0.0,0.0,0.0,0.0,0.0,0.0,0.0,0.0,0.0,0.0,0.0,0.0,0.0,0.0,0.0,0.0,0.0,0.0,0.0,0.0,0.0,0.0,1.6205,1.7265,1.7789,1.8614,2.0868,2.0438,2.033,2.219,2.3436,2.425,2.4625,2.4693,2.4821,2.4821,2.4821,2.4821,2.4821,2.4821,2.4821,2.4821,2.4821,2.4821,2.4821,2.4821,2.4821,2.4821,2.4821,2.4992,2.5343,2.608,2.667,2.7073,2.7073,2.7073,2.7073,2.7073,2.7073,2.7073,2.7073,2.7073,2.7073,2.7073,2.7073,2.7073,2.7073,2.7073,2.7073,2.7073,2.7073,2.7073,0.0,0.0,0.0,0.0,0.0,0.0,0.0,0.0,0.0,0.0,0.0,0.0,0.0,0.0,0.0,0.0,0.0,0.0,0.0,0.0,0.0,0.0,0.0,0.0,0.0,0.0,0.0,0.0,0.0,1.479,1.4987,1.4592,1.4592,1.4981,1.507,1.5166,1.5356,1.5452,0.0,0.0,0.0,0.0,0.0,0.0,0.0,0.0,0.0,0.0,0.0,0.0,0.0,0.0,0.0,0.0,0.0,0.0,0.0,0.0,0.0,0.0,0.0,0.0,0.0,0.0,1.6524,1.6935,1.7667,1.7982,1.8844,1.9968,2.1801,2.1818,2.2055,2.3411,2.4217,2.4658,2.4804,2.4821,2.4821,2.4821,2.4821,2.4821,2.4821,2.4821,2.4821,2.4821,2.4821,2.4821,2.4821,2.4821,2.4821,2.4821,2.4821,2.5112,2.5729,2.6234,2.6679,2.7073,2.7073,2.7073,2.7073,2.7073,2.7073,2.7073,2.7073,2.7073,2.7073,2.7073,2.7073,2.7073,2.7073,2.7073,2.7073,2.7073,2.7073,2.7073,0.0,0.0,0.0,0.0,0.0,0.0,0.0,0.0,0.0,0.0,0.0,0.0,0.0,0.0,0.0,0.0,0.0,0.0,0.0,0.0,0.0,0.0,0.0,0.0,0.0,0.0,0.0,0.0,0.0,0.0,0.0,0.0,1.4688,1.5083,1.5356,0.0,0.0,0.0,0.0,1.573,0.0,0.0,1.5832,0.0,0.0,0.0,0.0,0.0,0.0,0.0,0.0,0.0,0.0,0.0,0.0,0.0,0.0,0.0,0.0,0.0,0.0,0.0,0.0,0.0,1.673,0.0,1.8003,1.8429,1.963,2.1017,2.246,2.3269,2.3863,2.4318,2.465,2.4821,2.4821,2.4821,2.4821,2.4821,2.4821,2.4821,2.4821,2.4821,2.4821,2.4821,2.4821,2.4821,2.4821,2.4821,2.4872,2.5001,2.5129,2.5489,2.6122,2.6491,2.6816,2.7073,2.7073,2.7073,2.7073,2.7073,2.7073,2.7073,2.7073,2.6822,2.6449,2.6943,2.6822,2.6449,2.6943,2.7073,2.7073,2.7073,2.7073,2.7098,0.0,0.0,0.0,0.0,0.0,0.0,0.0,0.0,0.0,0.0,0.0,0.0,0.0,0.0,0.0,0.0,0.0,0.0,0.0,0.0,0.0,0.0,0.0,0.0,0.0,0.0,0.0,0.0,0.0,0.0,0.0,0.0,1.4885,0.0,1.5356,1.5356,1.5083,0.0,1.5267,1.554,0.0,1.5635,1.5832,0.0,0.0,0.0,1.6273,1.6466,0.0,1.672,0.0,0.0,0.0,0.0,0.0,0.0,0.0,0.0,0.0,0.0,0.0,0.0,0.0,0.0,1.6842,0.0,1.7125,1.8486,2.0067,2.1697,2.3059,2.464,2.5467,2.4923,2.4821,2.4821,2.4821,2.4821,2.4821,2.4821,2.4821,2.4821,2.4821,2.4821,2.4821,2.4821,2.4821,2.4821,2.4821,2.4821,2.4992,2.536,2.5737,2.6114,2.6482,2.6876,2.7073,2.7073,2.7073,2.7073,2.7073,2.7073,2.7073,2.7073,2.7073,2.6319,2.5194,2.6571,2.6327,2.5317,2.6571,2.7073,2.7073,2.7073,2.7073,2.7124,0.0,0.0,0.0,0.0,0.0,0.0,0.0,0.0,0.0,0.0,0.0,0.0,0.0,0.0,0.0,0.0,0.0,0.0,0.0,0.0,0.0,0.0,0.0,0.0,0.0,0.0,0.0,0.0,0.0,0.0,0.0,0.0,0.0,0.0,1.4975,1.4981,1.5083,1.5452,0.0,0.0,1.5642,1.5737,0.0,0.0,0.0,0.0,0.0,1.66,1.7027,0.0,1.7221,1.7462,0.0,0.0,0.0,0.0,0.0,0.0,1.7582,0.0,0.0,0.0,0.0,0.0,0.0,0.0,1.8695,1.9333,2.0512,2.1829,2.3277,2.4082,2.4667,2.5357,2.5467,2.5467,2.5467,2.5467,2.5467,2.5467,2.5467,2.5467,2.5467,2.5238,2.5119,0.0,2.4923,2.4821,2.4821,2.4821,2.4992,2.536,2.5737,2.6114,2.6482,2.6876,2.7073,2.7073,2.7073,2.7073,2.7073,2.7073,2.7073,2.7073,2.7073,2.6319,2.5194,2.6571,2.6822,2.6571,2.6952,2.7073,2.7073,2.7073,2.7073,2.7124,0.0,0.0,0.0,0.0,0.0,0.0,0.0,0.0,0.0,0.0,0.0,0.0,0.0,0.0,0.0,0.0,0.0,0.0,0.0,0.0,0.0,0.0,0.0,0.0,0.0,0.0,0.0,0.0,0.0,0.0,0.0,0.0,0.0,0.0,0.0,0.0,0.0,0.0,0.0,0.0,1.5547,0.0,0.0,1.6012,1.6273,0.0,0.0,0.0,1.7328,1.7328,1.7442,0.0,0.0,0.0,0.0,0.0,0.0,0.0,0.0,0.0,0.0,0.0,0.0,0.0,1.7582,1.8094,1.8633,1.9083,2.0192,2.134,2.2474,2.3509,2.4556,2.5229,2.5798,2.6017,2.5798,2.5688,2.5688,2.5688,2.5688,2.5688,2.5688,2.545,2.5229,2.545,2.5026,2.4821,2.4821,2.4967,2.5223,2.56,2.5968,2.6354,2.673,2.6961,2.7073,2.7073,2.7073,2.7073,2.7073,2.7073,2.7073,2.7073,2.7073,2.67,2.5945,2.6822,2.6822,2.6319,2.6822,2.67,2.6327,2.6943,2.6793,2.6594,0.0,0.0,0.0,0.0,0.0,0.0,0.0,0.0,0.0,0.0,0.0,0.0,0.0,0.0,0.0,0.0,0.0,0.0,0.0,0.0,0.0,0.0,0.0,0.0,0.0,0.0,0.0,0.0,0.0,0.0,0.0,0.0,0.0,0.0,0.0,0.0,0.0,0.0,0.0,1.5127,1.5402,1.586,0.0,0.0,1.6667,1.7148,1.7148,1.7335,1.7582,1.7582,1.7477,0.0,0.0,0.0,0.0,0.0,1.7477,0.0,0.0,0.0,0.0,0.0,0.0,0.0,1.7582,1.7582,1.7742,1.8323,1.9332,2.0296,2.1013,2.295,2.4445,2.4556,2.5569,2.6245,2.5907,2.5798,2.5798,2.5798,2.5798,2.5798,2.5798,2.5459,2.545,2.5688,2.5145,2.4821,2.4821,2.5172,2.554,2.5925,2.6294,2.6679,2.7073,2.7073,2.7073,2.7073,2.7073,2.7073,2.7073,2.7073,2.7073,2.7073,2.7073,2.7073,2.6943,2.7073,2.6449,2.5448,2.6579,2.6319,2.5448,2.67,2.6544,2.6004,0.0,0.0,0.0,0.0,0.0,0.0,0.0,0.0,0.0,0.0,0.0,0.0,0.0,0.0,0.0,0.0,0.0,0.0,0.0,0.0,0.0,0.0,0.0,0.0,0.0,0.0,0.0,0.0,0.0,0.0,0.0,0.0,0.0,0.0,0.0,0.0,0.0,0.0,0.0,1.5414,1.5511,0.0,1.662,1.6334,1.6645,1.7148,1.7148,1.7335,1.7582,1.7582,1.7041,1.618,0.0,0.0,0.0,0.0,0.0,0.0,0.0,0.0,0.0,0.0,0.0,0.0,1.7582,1.7582,1.7689,1.8056,1.8543,1.9251,2.0608,2.1444,2.2191,2.3199,2.4326,2.5459,2.6245,2.6473,2.6473,2.6473,2.6473,2.6473,2.6473,2.6127,2.5907,2.6017,2.5459,2.5017,2.4821,2.5172,2.554,2.5925,2.6294,2.6679,2.7073,2.7073,2.7073,2.7073,2.7073,2.7073,2.7073,2.7073,2.7073,2.7073,2.7073,2.6449,2.557,2.67,2.6952,2.67,2.6952,2.6943,2.67,2.6952,2.7173,2.7275,0.0,0.0,0.0,0.0,0.0,0.0,0.0,0.0,0.0,0.0,0.0,0.0,0.0,0.0,0.0,0.0,0.0,0.0,0.0,0.0,0.0,0.0,0.0,0.0,0.0,0.0,0.0,0.0,0.0,0.0,0.0,0.0,0.0,0.0,0.0,0.0,0.0,0.0,1.5258,1.5702,1.5657,0.0,1.6927,1.6629,1.6909,1.7368,1.7368,1.7141,1.6723,1.6723,1.5962,0.0,0.0,1.4995,1.4995,0.0,1.5855,1.6723,0.0,0.0,0.0,1.7582,0.0,0.0,0.0,1.7582,1.7669,1.7983,1.8163,1.8617,1.9612,2.0379,2.121,2.1941,2.3087,2.4103,2.4667,2.5798,2.6591,2.6591,2.6591,2.6591,2.6591,2.6354,2.6017,2.5898,2.5789,2.5459,2.5026,2.5561,2.5852,2.5934,2.6482,2.6876,2.7073,2.7073,2.7073,2.7073,2.7073,2.7073,2.7073,2.7073,2.7073,2.7073,2.7073,2.67,2.6197,2.6822,2.7073,2.7073,2.7073,2.6692,2.6214,2.7017,2.719,2.7043,0.0,0.0,0.0,0.0,0.0,0.0,0.0,0.0,0.0,0.0,0.0,0.0,0.0,0.0,0.0,0.0,0.0,0.0,0.0,0.0,0.0,0.0,0.0,1.535,0.0,0.0,0.0,0.0,0.0,0.0,0.0,0.0,0.0,0.0,0.0,0.0,0.0,0.0,0.0,1.5909,0.0,1.6407,1.7021,1.6821,1.7069,1.7483,1.7582,1.6829,1.5861,1.5861,1.4995,1.3814,1.3814,1.3814,0.0,0.0,0.0,0.0,0.0,0.0,0.0,0.0,0.0,1.7582,0.0,0.0,0.0,1.7903,1.8003,0.0,0.0,0.0,0.0,2.0622,0.0,0.0,0.0,2.4505,0.0,2.6254,2.6473,2.6591,2.6591,2.6364,2.6127,2.5798,2.6017,2.5934,2.5445,2.6119,2.6423,2.6162,2.6833,2.7194,2.7073,2.7073,2.7073,2.7073,2.7073,2.7073,2.7073,2.7073,2.7073,2.7073,2.7073,2.6952,2.67,2.6952,2.6952,2.67,2.6952,2.6491,2.57,2.7114,2.7252,2.6905,0.0,0.0,0.0,0.0,0.0,0.0,0.0,0.0,0.0,0.0,0.0,0.0,0.0,0.0,0.0,0.0,0.0,0.0,1.5832,0.0,0.0,0.0,0.0,0.0,1.4298,0.0,0.0,0.0,0.0,0.0,0.0,0.0,0.0,0.0,1.1463,0.0,0.0,0.0,1.5336,0.0,1.5933,1.6237,0.0,1.6685,1.6922,1.7279,1.7477,1.6829,1.5861,0.0,1.446,1.263,0.0,1.263,1.263,0.0,0.0,0.0,0.0,0.0,0.0,0.0,1.7582,0.0,0.0,0.0,1.7595,1.7629,0.0,0.0,0.0,0.0,0.0,0.0,0.0,0.0,2.1003,2.2336,2.3768,2.4898,2.5907,2.6591,2.6591,2.6582,2.6364,2.6127,2.6127,2.6161,2.6166,2.661,2.6902,2.6903,2.7312,2.7289,2.7073,2.7073,2.7073,2.7073,2.7073,2.7073,2.7073,2.7073,2.7073,2.7073,2.7073,2.6449,2.5448,2.6579,2.6449,2.5448,2.67,2.7148,2.7297,2.7586,2.7949,2.8588,0.0,0.0,0.0,0.0,0.0,0.0,0.0,0.0,0.0,0.0,0.0,0.0,0.0,0.0,0.0,0.0,0.0,1.5832,0.0,0.0,0.0,0.0,0.0,0.0,0.0,0.0,0.0,0.0,1.0297,0.0,0.0,0.0,0.0,0.0,1.2043,0.0,1.5371,0.0,0.0,0.0,0.0,0.0,0.0,1.6424,1.6749,1.7279,1.7483,1.6393,1.4888,0.0,1.328,0.0,0.0,0.0,0.0,0.0,0.0,0.0,0.0,0.0,0.0,0.0,0.0,0.0,1.7582,0.0,1.7582,0.0,0.0,0.0,0.0,0.0,0.0,0.0,1.9391,0.0,0.0,0.0,2.2418,2.3656,0.0,0.0,2.4556,2.4556,2.4778,2.534,2.534,2.5728,2.6453,2.6873,2.7044,2.6964,2.733,2.7409,2.7073,2.7073,2.7073,2.7073,2.7073,2.7073,2.7073,2.7073,2.7073,2.7073,2.7073,2.6822,2.6319,2.6822,2.6822,2.6344,2.7051,2.7475,2.7638,2.786,2.8297,2.8811,0.0,0.0,0.0,0.0,0.0,0.0,0.0,0.0,0.0,0.0,0.0,0.0,1.5832,1.5832,0.0,0.0,1.5832,1.5832,0.0,0.0,1.5832,0.0,0.0,0.0,0.0,0.0,0.0,0.0,0.0,0.0,0.0,0.0,0.0,0.0,0.0,1.3757,1.5499,0.0,0.0,1.5891,1.5891,1.5891,1.5891,1.6217,1.6649,1.7179,1.7378,1.6074,1.4132,1.4132,1.263,0.0,1.0692,0.0,0.0,0.0,0.0,0.0,1.2309,0.0,0.0,0.0,0.0,0.0,0.0,0.0,0.0,0.0,0.0,0.0,0.0,0.0,0.0,0.0,0.0,1.9092,0.0,2.0106,0.0,0.0,0.0,0.0,0.0,2.2974,2.3544,2.4667,2.4778,2.5438,2.6951,2.7268,2.7436,2.7357,2.763,2.7539,2.7185,2.7185,2.7194,2.7073,2.7073,2.7073,2.7073,2.7073,2.7073,2.7073,2.67,2.6571,2.6571,2.6571,2.6629,2.6739,2.7378,2.7732,2.7963,2.8246,2.8597,2.8965,0.0,0.8821,0.0,0.0,0.0,0.0,0.0,0.0,0.0,0.0,0.0,0.0,0.0,0.0,0.0,0.0,0.0,1.5832,1.5832,0.0,1.5832,0.0,0.0,1.4298,0.0,0.0,0.0,0.0,0.0,0.0,0.0,0.0,0.0,0.0,0.0,1.3041,1.5499,1.5499,1.565,1.5891,1.5891,1.5891,1.5891,0.0,1.6649,1.7179,1.7179,0.0,0.0,1.4132,1.263,0.0,0.0,0.0,0.0,0.0,0.0,0.0,0.0,0.0,0.0,1.5322,0.0,0.0,0.0,0.0,1.7582,0.0,0.0,0.0,0.0,0.0,0.0,0.0,0.0,0.0,0.0,0.0,0.0,0.0,0.0,0.0,0.0,2.2974,2.3544,2.4667,2.4778,2.5663,2.7701,2.7765,2.8025,2.8471,2.8517,2.8148,2.7521,2.7521,2.7409,2.7073,2.7073,2.7073,2.7073,2.7073,2.7073,2.7073,2.57,2.5194,2.5194,2.5194,2.5386,2.5806,2.7092,2.8075,2.8742,2.8759,2.8991,2.9299,0.0,0.0,0.0,0.0,0.0,0.0,0.0,1.4879,0.0,0.0,0.0,0.0,0.0,1.5832,1.5832,0.0,0.0,1.5832,1.5832,1.5832,0.0,0.0,0.0,1.4196,0.0,0.0,0.0,0.0,0.0,0.0,0.0,0.0,0.0,0.0,0.0,1.3414,0.0,0.0,0.0,0.0,0.0,1.5891,1.5891,0.0,1.643,1.6643,1.7073,1.5767,0.0,1.4217,1.274,1.0895,1.1009,1.1041,1.1041,1.1041,1.1041,1.1155,0.0,0.0,1.2936,1.3826,0.0,0.0,0.0,0.0,0.0,0.0,0.0,0.0,0.0,0.0,0.0,0.0,0.0,0.0,0.0,0.0,0.0,0.0,0.0,0.0,0.0,0.0,2.1067,2.2305,2.3207,2.4532,2.654,2.7404,2.8025,2.8498,2.8526,2.8148,2.7521,2.7521,2.7409,2.7073,2.7073,2.67,2.5823,2.5823,2.5317,2.4448,2.3946,2.4324,2.5087,2.531,2.5975,2.7018,2.8043,2.8545,2.8777,2.8777,2.9008,2.9307,0.7739,0.0,0.0,0.0,0.0,0.0,0.0,0.0,0.0,0.0,1.5261,0.0,1.5635,0.0,1.5832,0.0,1.5832,1.5832,1.5832,1.5832,0.0,1.5832,1.4382,0.0,0.0,0.0,0.0,0.0,0.0,0.8361,0.0,0.0,0.0,0.0,0.0,0.0,1.5891,0.0,1.5565,0.0,0.0,1.5891,0.0,0.0,1.6217,1.6324,0.0,1.5505,1.3645,1.4004,1.2669,1.0964,1.0958,1.1105,1.1224,1.1224,1.1224,1.1224,1.1224,1.1791,0.0,1.2694,1.3272,0.0,1.5736,0.0,1.6245,0.0,0.0,0.0,0.0,0.0,0.0,0.0,0.0,0.0,0.0,1.9366,0.0,0.0,0.0,0.0,0.0,0.0,1.9938,2.106,2.1964,2.3276,2.5136,2.6469,2.7428,2.7993,2.8388,2.814,2.7013,2.7392,2.7289,2.6441,2.6822,2.67,2.5823,2.5823,2.5317,2.4448,2.407,2.4324,2.5095,2.5429,2.6145,2.7236,2.8392,2.8854,2.8965,2.8965,2.885,2.8502,0.0,0.0,0.0,0.0,1.3022,0.0,0.0,0.0,1.4688,0.0,1.5159,1.5445,1.5445,1.5635,1.5737,1.5737,1.5737,1.5825,1.5825,1.5825,0.0,0.0,1.3499,1.2721,1.368,0.0,0.0,0.0,0.0,0.0,0.0,0.0,0.0,0.0,1.095,0.0,1.5785,1.4702,1.4815,1.5891,1.5891,1.5891,1.5891,1.5903,1.6129,1.6342,1.6342,1.5087,1.3512,1.3522,1.2325,1.0659,1.0667,1.0902,1.1133,1.1133,1.1133,1.1133,1.1133,1.1133,1.136,1.2267,1.2369,0.0,0.0,0.0,1.613,0.0,0.0,0.0,0.0,0.0,0.0,0.0,0.0,0.0,0.0,0.0,0.0,0.0,0.0,0.0,0.0,1.9366,1.9938,2.106,2.1174,2.2022,0.0,2.5169,2.6225,2.6866,2.8122,2.7864,2.5896,2.7272,2.6909,2.5071,2.6449,2.7073,2.6952,2.6952,2.6943,2.6822,2.557,2.5079,2.5119,2.5453,2.5802,2.6432,2.8118,2.8878,2.9045,2.9176,2.837,2.7161,0.7241,0.9209,1.137,0.0,1.3817,1.4298,0.0,0.0,0.0,0.0,1.4783,1.4975,1.5172,1.5267,1.5267,1.5267,1.5452,0.0,0.0,0.0,0.0,1.4459,1.2915,1.1755,1.1068,0.9312,0.0,0.8531,0.0,0.0,0.8272,0.0,0.0,0.0,0.0,0.0,1.46,1.4272,1.4815,1.5891,1.5891,1.5891,1.591,0.0,1.629,1.629,1.6513,1.5237,1.3547,1.3934,1.2414,1.0627,1.0744,1.0782,1.0901,1.0901,1.0901,1.0901,1.0901,1.0901,1.0901,1.1137,1.1158,1.1415,0.0,0.0,0.0,0.0,0.0,0.0,0.0,0.0,0.0,0.0,0.0,0.0,0.0,0.0,0.0,1.9366,0.0,0.0,1.9366,1.9366,1.9482,1.9815,2.0723,2.1676,2.255,2.3881,2.4801,2.5521,2.5644,2.5277,2.4556,2.566,2.5782,2.5071,2.6449,2.6571,2.557,2.557,2.5071,2.4077,2.3822,2.4331,2.5469,2.5953,2.6176,2.6525,2.7293,2.6956,2.6218,2.7294,2.7567,2.7028,0.7042,0.0,0.0,1.3539,0.0,0.0,1.4298,1.4298,0.0,1.4496,1.4592,0.0,1.4885,1.5095,1.5261,1.5261,1.5564,0.0,1.5628,0.0,0.0,1.4028,1.2741,1.1444,1.0239,0.9034,0.0,0.8231,0.0,0.0,0.8465,0.0,0.0,0.0,0.0,1.1223,0.0,1.3948,1.4815,1.5891,1.5891,1.5958,0.0,1.6223,1.6429,1.6634,1.6863,1.5366,1.3433,1.3776,1.2237,1.0434,1.0517,1.0668,1.0789,1.0789,1.0789,1.0789,1.0789,1.0789,1.0789,1.0668,1.0481,1.0771,1.1946,1.2619,1.3428,0.0,1.6136,1.6961,0.0,0.0,0.0,0.0,0.0,0.0,0.0,0.0,0.0,0.0,1.9366,0.0,1.9366,1.9366,1.9366,1.9366,2.0046,2.0653,2.1258,2.2587,2.3488,2.417,2.4409,2.4409,2.407,2.5032,2.5407,2.5071,2.6449,2.67,2.5945,2.5945,2.5194,2.3953,2.4098,2.439,2.4715,2.5213,2.5528,2.5727,2.608,2.5682,2.5008,2.5263,2.5263,2.5128,0.0,0.0,0.0,0.0,0.0,0.0,0.0,1.434,0.0,1.4346,0.0,1.4756,1.4793,1.5206,1.5455,1.5455,0.0,1.5802,1.5802,1.5702,1.5083,1.3851,1.2617,1.1376,1.0132,0.9104,0.8482,0.0,0.0,0.0,0.0,0.0,0.0,0.0,0.0,0.0,0.0,1.3727,1.4832,1.594,1.594,1.6097,1.6338,1.6374,1.6682,1.7092,1.7129,1.5505,1.34,1.34,1.1975,1.0183,1.0183,1.0425,1.0668,1.0668,1.0668,1.0668,1.0668,1.0668,1.0547,1.0304,1.0183,1.0543,1.1619,1.1856,1.2259,1.3851,1.4877,1.5646,1.6311,0.0,0.0,0.0,0.0,0.0,0.0,0.0,0.0,0.0,0.0,0.0,1.9366,1.9366,1.9366,1.9366,1.9366,1.9619,2.0201,0.0,2.2175,2.2812,2.3551,2.3923,2.3829,2.454,2.4917,2.4826,2.6067,2.6571,2.6571,2.6571,2.597,2.4904,2.5203,2.4619,2.3713,2.4145,2.4267,2.4199,2.4352,2.4467,2.4331,2.2963,2.2572,2.2611,0.0,0.0,0.0,0.0,0.0,1.4015,1.4524,1.4484,1.4383,1.4612,1.4642,1.4825,1.5044,1.5111,1.5141,1.5141,1.5374,0.0,0.0,0.0,0.0,1.2617,1.1169,0.9931,0.8898,0.8584,0.8482,0.0,0.0,0.0,0.0,0.0,0.0,0.0,0.0,0.0,1.2526,1.3727,0.0,1.6211,1.6211,1.6374,1.6652,1.6869,1.7008,1.7123,1.7334,1.5751,1.3613,1.3613,1.196,0.994,0.994,0.994,0.994,0.994,0.994,0.994,0.994,0.994,0.9943,0.9943,0.994,0.994,1.0179,1.1,1.1831,1.2101,1.3356,1.4626,1.5553,0.0,0.0,0.0,0.0,0.0,0.0,0.0,0.0,0.0,0.0,1.9366,0.0,1.9366,1.9366,1.9366,1.9366,1.9619,2.0201,0.0,2.0863,0.0,2.1102,2.1348,0.0,0.0,2.2445,2.345,2.3698,2.3822,2.3822,2.3822,2.3841,2.3725,2.3776,2.3981,2.4218,2.4327,2.3863,2.3018,2.1865,2.1484,2.1484,2.1214,2.1211,2.1401,0.0,0.0,0.0,0.0,0.0,0.0,0.0,1.4477,1.4564,1.4902,1.492,1.4968,1.5095,1.5228,1.5312,1.5312,1.553,1.5713,1.5713,1.4659,1.3499,1.2327,1.1052,0.9885,0.872,0.872,0.872,0.872,0.0,0.0,0.0,0.0,0.0,0.0,0.0,0.9968,0.0,0.0,0.0,1.5595,1.6273,1.6664,1.6917,1.7044,1.7177,1.7193,1.6721,1.5332,1.3665,1.3665,1.1985,0.9822,0.9822,0.9822,0.9822,0.9822,0.9822,0.9822,0.9822,0.9822,0.9822,0.9822,0.9822,0.9822,0.9822,1.0304,1.0668,1.0668,1.1864,1.3177,1.4381,1.5811,0.0,0.0,0.0,0.0,0.0,0.0,0.0,0.0,0.0,0.0,0.0,0.0,0.0,0.0,0.0,1.9846,2.0434,2.0345,2.0414,0.0,0.0,0.0,2.1846,0.0,2.1825,2.3076,2.3822,2.4201,2.4201,2.4999,2.4789,2.3567,2.3767,2.3307,2.2271,2.2423,2.216,2.1609,2.0937,2.0665,2.0684,2.0822,2.0949,2.1058,0.0,0.8996,0.0,0.0,1.2388,0.0,1.38,1.4121,1.4522,1.4993,1.5191,1.5215,1.527,1.5457,1.5584,1.5584,1.5771,1.5785,1.5565,1.4487,1.329,1.2087,1.0891,0.9915,0.8937,0.894,0.894,0.0,0.0,0.0,0.0,0.0,0.0,0.0,0.0,0.0,0.0,0.0,1.3365,1.495,1.5982,1.6708,1.7177,1.7177,1.7181,1.7003,1.593,1.4619,1.3306,1.3306,1.1744,0.9822,0.9822,0.9822,0.9822,0.9822,0.9822,0.9822,0.9822,0.9822,0.9822,0.9822,0.9822,0.9822,0.9822,0.9822,0.9822,0.9822,1.0785,1.1989,1.3066,1.4381,0.0,0.0,0.0,0.0,0.0,0.0,0.0,0.0,0.0,0.0,1.9243,0.0,0.0,0.0,0.0,1.9933,2.0648,2.0309,2.0315,2.0722,1.996,2.0329,2.1706,0.0,2.1447,2.3076,2.3822,2.4448,2.471,2.6174,2.5612,2.3684,2.3868,2.2559,2.0376,2.0581,2.0665,2.0665,2.0665,2.0702,2.0774,2.0985,2.1136,2.1233,0.0,0.0,0.0,0.0,0.0,1.1185,1.2768,1.3014,1.3586,1.496,1.5359,1.5553,1.5795,1.5837,1.5855,1.5855,1.5879,1.5458,1.4385,1.329,1.2087,1.0891,0.9699,0.9047,0.894,0.894,0.894,0.0,0.0,0.894,0.0,0.0,0.0,0.0,0.0,0.0,0.0,1.1191,1.279,1.5192,1.5308,1.6153,1.7449,1.7449,1.6744,1.5811,1.5693,1.4018,1.1872,1.1872,1.0906,0.9822,0.9822,0.9822,0.9822,0.9822,0.9822,0.9822,0.9822,0.9822,0.9822,0.9822,0.9822,0.9822,0.9822,0.9822,0.9822,0.9822,1.0785,1.1752,1.1872,1.2946,1.4262,0.0,0.0,0.0,0.0,0.0,0.0,0.0,0.0,0.0,0.0,1.8997,0.0,0.0,1.9474,1.9699,2.0648,2.006,2.0197,2.0976,2.0087,2.0335,2.1985,2.0208,2.0576,2.3076,2.195,2.2076,2.3333,2.3792,2.3976,2.3876,2.3036,2.1875,2.0629,2.0659,2.0665,2.0665,2.0665,2.0816,2.1028,2.1052,2.1372,2.1794,0.0,0.0,0.0,0.0,0.0,0.0,0.0,1.2748,1.3367,1.468,1.5211,1.5571,1.5678,1.5791,1.5891,1.5891,1.5244,1.4708,1.4277,1.2417,1.1219,1.0672,0.9588,0.894,0.894,0.894,0.894,0.0,0.0,0.0,0.0,0.0,0.0,0.0,0.0,0.9603,1.0219,1.1028,1.2064,1.3186,1.4015,1.4657,1.5213,1.5213,1.4857,1.4381,1.3545,1.2586,1.1631,1.0789,1.0183,0.9822,0.9822,0.9822,0.9822,0.9822,0.9822,0.9822,0.9822,0.9822,0.9822,0.9822,0.9822,0.9822,0.9822,0.9822,0.9822,0.9822,1.0183,1.0547,1.0547,1.1627,1.2946,1.4262,0.0,0.0,0.0,0.0,0.0,0.0,0.0,0.0,0.0,0.0,0.0,0.0,0.0,1.9704,2.0532,2.0055,1.9979,2.0729,0.0,1.9705,2.0589,1.9577,2.0075,2.195,2.2201,2.3171,2.4625,2.5865,2.6215,2.5819,2.3537,2.2446,2.2016,2.2016,2.1477,2.0822,2.1805,2.1798,2.11,2.1426,2.1685,2.1891,0.7154,0.0,0.8371,0.0,0.9137,1.012,1.1651,1.2091,1.2748,1.4283,1.4606,1.4934,1.5261,1.525,1.5131,1.5131,1.4046,1.3285,1.2965,1.1328,1.0257,0.9979,0.9106,0.0,0.8729,0.8732,0.8732,0.8732,0.8845,0.0,0.0,0.0,0.0,0.0,0.9449,0.9534,0.9673,1.0614,1.1276,1.1752,1.2706,1.3306,1.3665,1.3665,1.3426,1.2946,1.1993,1.1511,1.1027,1.0061,0.9822,0.9822,0.9822,0.9822,0.9822,0.9822,0.9822,0.9822,0.9822,0.9822,0.9822,0.9822,0.9822,0.9822,0.9822,0.9822,0.9822,0.9822,0.9822,0.9822,0.9822,1.0547,1.1627,1.2946,0.0,0.0,0.0,1.7367,0.0,0.0,1.8077,1.8083,1.8311,1.838,0.0,0.0,0.0,1.9467,2.0456,1.9839,1.9839,2.0609,0.0,0.0,1.9711,1.9705,2.0329,2.1706,2.3164,2.4704,2.6221,2.7739,2.766,2.6494,2.4317,2.2956,2.2147,2.2147,2.166,2.0938,2.2097,2.2133,2.1341,2.1728,2.1921,2.2011,0.7154,0.7265,0.7265,0.7265,0.7265,0.8036,1.0343,1.0672,1.1551,1.3862,1.3413,1.3511,1.4821,1.4051,1.329,1.329,1.2186,1.1088,0.9908,0.9798,0.9321,0.0,0.0,0.8308,0.8433,0.8445,0.8451,0.8451,0.0,0.0,0.8916,0.0,0.9459,0.9605,0.9605,0.9686,0.9819,0.9819,1.0543,1.1752,1.1752,1.247,1.3665,1.3665,1.2831,1.1752,1.1752,1.0906,0.9822,0.9822,0.9822,0.9822,0.9822,0.9822,0.9822,0.9822,0.9822,0.9822,0.9822,0.9822,0.9822,0.9822,0.9822,0.9822,0.9822,0.9822,0.9822,0.9822,0.9822,0.9822,0.9822,0.9822,1.0183,1.1511,0.0,0.0,0.0,1.6767,0.0,1.7485,1.7843,1.7972,1.7972,1.8214,0.0,0.0,0.0,1.9179,2.0094,0.0,0.0,2.0609,1.959,0.0,2.0106,2.0709,2.1699,2.3076,2.4766,2.6322,2.7629,2.8417,2.7376,2.5008,2.5008,2.3386,2.0665,2.0665,2.0822,2.1058,2.1058,2.139,2.186,2.1867,2.2036,2.2259,0.7154,0.7154,0.7154,0.7154,0.7817,0.8589,0.9361,1.0123,1.1,1.1769,1.1665,1.1633,1.2077,1.2051,1.2128,0.0,1.1172,1.0331,0.0,0.9228,0.8686,0.839,0.839,0.8411,0.8451,0.8454,0.8457,0.8457,0.0,0.0,0.0,0.9158,0.9349,0.9392,0.9633,0.9778,0.9822,0.9822,1.0061,1.0425,1.0425,1.0664,1.1023,1.1023,1.0785,1.0425,1.0425,1.0183,0.9822,0.9822,0.9822,0.9822,0.9822,0.9822,0.9822,0.9822,0.9822,0.9822,0.9822,0.9822,0.9822,0.9822,0.9822,0.9822,0.9822,0.9822,0.9822,0.9822,0.9822,0.9822,0.9822,0.9822,1.0183,1.1511,1.2109,0.0,1.5332,0.0,1.6526,1.7367,1.7602,1.7608,1.7608,1.7845,0.0,0.0,0.0,0.0,0.0,0.0,0.0,0.0,1.9462,0.0,1.9711,2.0709,2.1825,2.3076,2.3769,2.4667,2.552,2.705,2.6659,2.5008,2.3917,2.2963,2.2166,2.2374,2.1957,2.1236,2.2586,2.2563,2.1891,2.2072,2.2192,2.2259,0.7154,0.7154,0.7154,0.7154,0.7817,0.8371,0.8809,0.9625,1.0216,1.0663,1.0478,1.0247,1.0247,1.0141,0.0,1.0787,0.9784,0.903,0.9122,0.8445,0.8125,0.8175,0.8178,0.8201,0.8245,0.8248,0.0,0.8248,0.837,0.8528,0.8726,0.9054,0.9095,0.9217,0.9335,0.946,0.9457,0.9579,0.9579,0.9579,0.97,0.9822,0.9822,0.9822,0.9822,0.9822,0.9822,0.9822,0.9822,0.9822,0.9822,0.9822,0.9822,0.9822,0.9822,0.9822,0.9822,0.9832,0.989,0.9907,0.9907,0.9907,0.9907,0.989,0.9832,0.9822,0.9822,0.9822,0.9822,0.9822,0.9822,0.9822,1.0061,1.0906,1.139,1.223,1.3899,0.0,1.593,0.0,0.0,1.7521,0.0,1.7871,1.8143,0.0,0.0,0.0,0.0,0.0,1.9334,1.9845,1.9334,1.92,1.9577,2.0576,2.1887,2.3259,2.4209,2.497,2.5499,2.6119,2.554,2.4188,2.3229,2.2552,2.2035,2.2331,2.1961,2.14,2.2689,2.279,2.2036,2.2198,2.2259,2.2259,0.7154,0.7154,0.7157,0.7165,0.7276,0.7613,0.8618,0.8953,0.949,1.0393,0.9742,0.9146,0.9146,0.8233,0.8005,0.9162,0.0,0.0,0.7543,0.7543,0.7595,0.7709,0.7712,0.7763,0.7869,0.7872,0.7872,0.7872,0.8244,0.8491,0.8854,0.8854,0.8854,0.8854,0.8854,0.8854,0.8854,0.9217,0.9335,0.9335,0.97,0.9819,0.9822,0.9822,0.9822,0.9822,0.9822,0.9822,0.9822,0.9822,0.9822,0.9822,0.9832,0.9836,0.9836,0.9836,0.9836,0.9869,1.0022,1.0066,1.0066,1.0066,1.0056,1.0012,0.9869,0.9829,0.9822,0.9822,0.9822,0.9822,0.9822,0.9822,0.9822,0.9822,1.0785,1.1631,1.1631,1.378,1.5456,1.5596,0.0,0.0,1.7877,1.8155,1.842,0.0,0.0,0.0,0.0,0.0,1.92,1.9577,1.92,1.92,1.9577,2.0703,2.2117,2.373,2.5649,2.6811,2.7028,2.5682,2.4188,2.2819,2.2682,2.1891,2.072,2.0979,2.1251,2.1529,2.1794,2.2048,2.2259,2.2259,2.2259,2.2259,0.7154,0.0,0.7184,0.7277,0.8076,0.8445,0.7875,0.8599,0.8964,0.8396,0.8166,0.8129,0.8129,0.7973,0.7906,0.8265,0.7826,0.7695,0.7782,0.7788,0.7801,0.7831,0.7831,0.7845,0.7872,0.7872,0.7872,0.7872,0.7994,0.8116,0.8116,0.8366,0.8491,0.8491,0.8732,0.8854,0.8854,0.8976,0.9095,0.9335,0.9335,0.9579,0.9822,0.9822,0.9822,0.9822,0.9822,0.9822,0.9822,0.9822,0.9822,0.9842,0.9958,0.9995,0.9995,0.9995,0.9995,1.0029,1.0185,1.0226,1.0226,1.0226,1.0137,1.0039,1.0005,0.9903,0.9822,0.9822,0.9822,0.9822,0.9822,0.9822,0.9822,0.9822,1.0061,1.0543,1.1511,1.223,1.3481,0.0,1.6205,1.6788,1.8045,1.8432,1.8613,0.0,0.0,1.9078,1.9078,1.9078,1.9078,1.92,1.92,1.92,1.92,2.1454,2.3614,2.5475,2.6292,2.6277,2.5547,2.5143,2.4188,2.2682,2.1609,2.1053,2.0985,2.1263,2.1541,2.1806,2.2066,2.2205,2.2259,2.2259,2.2259,2.2259,0.7309,0.732,0.7342,0.7407,0.7987,0.8126,0.7624,0.8146,0.8301,0.7721,0.7706,0.778,0.778,0.7834,0.7872,0.7872,0.7815,0.7804,0.7867,0.7872,0.7872,0.7872,0.7872,0.7872,0.7872,0.7872,0.7872,0.7872,0.7872,0.7872,0.7872,0.8119,0.8122,0.8122,0.8363,0.8485,0.8485,0.861,0.8732,0.8854,0.9095,0.9339,0.9579,0.9579,0.97,0.9822,0.9822,0.9822,0.9822,0.9822,0.9866,0.9941,1.0022,1.0097,1.0168,1.0232,1.0205,1.0188,1.0337,1.0378,1.0378,1.0378,1.0266,1.0137,1.0066,0.9985,0.9907,0.9836,0.9822,0.9822,0.9822,0.9822,0.9822,0.9822,0.9822,1.0089,1.0767,1.1508,1.2664,1.4946,1.5718,1.668,1.8321,1.8601,1.8734,1.8855,1.8994,0.0,1.9078,1.9078,1.9078,1.9078,1.9078,1.9078,1.9078,2.2102,2.4532,2.6366,2.6708,2.6573,2.595,2.4595,2.3502,2.2689,2.1477,2.0931,2.1094,2.1492,2.1746,2.1897,2.2162,2.2259,2.2259,2.2259,2.2259,2.2259,0.7497,0.7519,0.7524,0.7543,0.7546,0.7551,0.757,0.766,0.7728,0.7728,0.7812,0.7872,0.7872,0.7872,0.7872,0.7872,0.7872,0.7872,0.7872,0.7872,0.7872,0.7872,0.7872,0.7872,0.7872,0.7872,0.7872,0.7872,0.7872,0.7872,0.7872,0.7872,0.7872,0.7872,0.7872,0.7872,0.7872,0.8244,0.8369,0.8369,0.8735,0.8973,0.9214,0.9335,0.9457,0.97,0.9819,0.9836,0.9856,0.9856,0.9958,1.009,1.011,1.0209,1.0341,1.0483,1.0439,1.0375,1.0493,1.0527,1.0527,1.0527,1.0419,1.028,1.0148,1.01,1.0049,0.9917,0.9873,0.9856,0.9856,0.9856,0.9856,0.9856,0.9876,0.9934,1.0066,0.0,1.2366,1.3806,1.5207,1.668,1.8327,1.8614,1.8837,1.906,1.9078,1.9078,1.9078,1.9078,1.9078,1.9078,1.9078,1.9218,1.9511,2.2448,2.4848,2.6783,2.7002,2.7169,2.7169,2.4317,2.2956,2.2702,2.1626,2.1082,2.116,2.1661,2.1891,2.1951,2.2174,2.2259,2.2259,2.2259,2.2259,2.2259,0.7513,0.7519,0.7551,0.7655,0.7674,0.7706,0.7801,0.7834,0.7845,0.7845,0.7858,0.7872,0.7872,0.7872,0.7872,0.7872,0.7872,0.7872,0.7872,0.7872,0.7872,0.7872,0.7872,0.7872,0.7872,0.7872,0.7872,0.7872,0.7872,0.7872,0.7872,0.7872,0.7872,0.7872,0.7872,0.7872,0.7872,0.7994,0.8119,0.8369,0.8491,0.861,0.8976,0.9217,0.9335,0.9457,0.97,0.9903,1.0015,1.0015,1.0117,1.0266,1.0385,1.0439,1.0487,1.0639,1.067,1.0656,1.0677,1.0683,1.0683,1.0683,1.0571,1.0453,1.0429,1.0331,1.0239,1.0212,1.0103,1.0015,1.0015,1.0015,1.0015,1.0015,1.0124,1.0215,1.0243,0.0,1.118,1.2739,1.4034,1.5518,1.7161,1.8361,1.9036,1.9072,1.9078,1.9078,1.9078,1.9078,1.9078,1.9078,1.9078,1.9811,2.1057,2.1907,2.3803,2.6628,2.6994,2.7169,2.7161,2.5412,2.391,2.2702,2.1626,2.1197,2.1438,2.1746,2.1999,2.2205,2.2247,2.2259,2.2259,2.2259,2.2259,2.2259,0.7695,0.7709,0.7725,0.7782,0.7793,0.7809,0.7861,0.7872,0.7872,0.7872,0.7872,0.7872,0.7872,0.7872,0.7872,0.7872,0.7872,0.7872,0.7872,0.7872,0.7872,0.7872,0.7872,0.7872,0.7872,0.7872,0.7872,0.7872,0.7872,0.7872,0.7872,0.7872,0.7872,0.7872,0.7872,0.7872,0.7872,0.7872,0.7994,0.8119,0.8119,0.8366,0.8613,0.8976,0.9217,0.9345,0.9794,0.9988,1.0063,1.0144,1.0273,1.0405,1.047,1.0548,1.0629,1.07,1.0721,1.0721,1.0721,1.0721,1.0721,1.0721,1.0666,1.0595,1.051,1.0439,1.0371,1.0297,1.0222,1.0175,1.0175,1.0175,1.0175,1.0175,1.0236,1.0307,1.0385,1.0395,1.0959,1.254,1.3336,1.4535,1.6834,1.763,1.8285,1.9072,1.9078,1.9078,1.9078,1.9078,1.9078,1.9078,1.9211,2.0054,2.1744,2.2821,2.4584,2.6914,2.7883,2.7973,2.7169,2.5682,2.428,2.2948,2.1863,2.1438,2.171,2.1969,2.2156,2.2259,2.2259,2.2259,2.2259,2.2259,2.2259,2.2259,0.7853,0.7872,0.7872,0.7872,0.7872,0.7872,0.7872,0.7872,0.7872,0.7872,0.7872,0.7872,0.7872,0.7872,0.7872,0.7872,0.7872,0.7872,0.7872,0.7872,0.7872,0.7872,0.7872,0.7872,0.7872,0.7872,0.7872,0.7872,0.7872,0.7872,0.7872,0.7872,0.7872,0.7872,0.7872,0.7872,0.7872,0.7872,0.7872,0.7872,0.7872,0.7997,0.8369,0.8643,0.9023,0.9284,0.9797,0.9995,1.0171,1.029,1.0426,1.0544,1.0544,1.0626,1.0721,1.0721,1.0721,1.0721,1.0721,1.0721,1.0721,1.0721,1.0721,1.0687,1.0571,1.0544,1.0514,1.0405,1.0354,1.0331,1.0331,1.0331,1.0331,1.0331,0.0,1.0422,1.0531,1.0544,1.0978,1.2146,1.2557,1.3726,1.6328,1.6845,1.763,1.8944,1.9078,1.9078,1.9078,1.9078,1.9102,1.9163,1.9362,2.011,2.1437,2.3558,2.507,2.6211,2.8362,2.823,2.6211,2.5412,2.4092,2.2607,2.192,2.1631,2.1891,2.2156,2.2259,2.2259,2.2259,2.2259,2.2259,2.2259,2.2259,2.2259,0.7869,0.7872,0.7872,0.7872,0.7872,0.7872,0.7872,0.7872,0.7872,0.7872,0.7872,0.7872,0.7872,0.7872,0.7872,0.7872,0.7872,0.7872,0.7872,0.7872,0.7872,0.7872,0.7872,0.7872,0.7872,0.7872,0.7872,0.7872,0.7872,0.7872,0.7872,0.7872,0.7872,0.7872,0.7872,0.7872,0.7872,0.7872,0.7872,0.7872,0.7872,0.7872,0.8005,0.8366,0.8789,0.9187,0.9567,1.0082,1.0463,1.0473,1.0578,1.0704,1.0704,1.0711,1.0721,1.0721,1.0721,1.0721,1.0721,1.0721,1.0721,1.0721,1.0721,1.0717,1.0707,1.0704,1.07,1.069,1.0575,1.0477,1.0477,1.0477,1.0477,1.0477,0.0,0.0,1.0704,1.0704,1.0707,1.085,1.2033,1.3341,1.4907,1.6203,1.763,1.8944,1.9078,1.9078,1.9078,1.9078,1.9187,1.9428,1.9458,1.9735,2.0014,2.3036,2.4123,2.3222,2.7278,2.7145,2.3229,2.446,2.3681,2.1211,2.1497,2.1631,2.1891,2.2156,2.2259,2.2259,2.2259,2.2259,2.2259,2.2259,2.2259,2.2259,0.7872,0.7872,0.7872,0.7872,0.7872,0.7872,0.7872,0.7872,0.7872,0.7872,0.7872,0.7872,0.7872,0.7872,0.7872,0.7872,0.7872,0.7872,0.7872,0.7872,0.7872,0.7872,0.7872,0.7872,0.7872,0.7872,0.7872,0.7872,0.7872,0.7872,0.7872,0.7872,0.7872,0.7872,0.7872,0.7872,0.7872,0.7872,0.7872,0.7872,0.7872,0.7915,0.8113,0.8406,0.86,0.8943,0.9328,0.9796,1.0247,1.034,1.0541,1.0721,1.0721,1.0721,1.0721,1.0721,1.0721,1.0721,1.0721,1.0721,1.0721,1.0721,1.0721,1.0721,1.0721,1.0721,1.0721,1.0721,1.0673,1.0633,1.0633,1.0633,1.0633,1.0633,0.0,1.0721,1.0721,1.0721,1.0721,1.0721,1.1115,1.2029,1.3468,1.4903,1.6333,1.7636,1.8553,1.9078,1.9078,1.9229,1.9362,1.9464,1.9796,2.002,2.0128,2.3326,2.4607,2.4188,2.6753,2.662,2.4196,2.3983,2.3001,2.1335,2.1601,2.1873,2.212,2.2217,2.2259,2.2259,2.2259,2.2259,2.2259,2.2259,2.2259,2.2259,0.7869,0.7872,0.7872,0.7872,0.7872,0.7872,0.7872,0.7872,0.7872,0.7872,0.7872,0.7872,0.7872,0.7872,0.7872,0.7872,0.7872,0.7872,0.7872,0.7872,0.7872,0.7872,0.7872,0.7872,0.7872,0.7872,0.7872,0.7872,0.7872,0.7872,0.7872,0.7872,0.7872,0.7872,0.7872,0.7872,0.7872,0.7872,0.7894,0.7929,0.7929,0.8002,0.8114,0.8402,0.86,0.8819,0.9208,0.9649,1.0058,1.0157,1.0455,1.0721,1.0721,1.0721,1.0721,1.0721,1.0721,1.0721,1.0721,1.0721,1.0721,1.0721,1.0721,1.0721,1.0721,1.0721,1.0721,1.0721,1.0721,1.0721,1.0721,1.0721,1.0721,1.0721,1.0721,1.0721,1.0721,1.0721,1.0721,1.0721,1.0721,1.1244,1.2684,1.3731,1.5033,1.685,1.7893,1.8682,1.9078,1.9326,1.9507,1.9597,2.0038,2.0315,2.04,2.3005,2.4324,2.4324,2.6218,2.6218,2.4338,2.397,2.3031,2.1492,2.1758,2.2017,2.2259,2.2259,2.2259,2.2259,2.2259,2.2259,2.2259,2.2259,2.2259,2.2259,0.7872,0.7872,0.7872,0.7872,0.7872,0.7872,0.7872,0.7872,0.7872,0.7872,0.7872,0.7872,0.7872,0.7872,0.7872,0.7872,0.7872,0.7872,0.7872,0.7872,0.7872,0.7872,0.7872,0.7872,0.7872,0.7872,0.7872,0.7872,0.7872,0.7872,0.7872,0.7872,0.7872,0.7872,0.7872,0.7872,0.7872,0.7872,0.7943,0.8054,0.8054,0.8127,0.825,0.8372,0.8546,0.8952,0.9074,0.9519,1.0193,1.0193,1.0455,1.0721,1.0721,1.0721,1.0721,1.0721,1.0721,1.0721,1.0721,1.0721,1.0721,1.0721,1.0721,1.0721,1.0721,1.0721,1.0721,1.0721,1.0721,1.0721,1.0721,1.0721,1.0721,1.0721,1.0721,1.0721,1.0721,1.0721,1.0721,1.0721,1.0721,1.1244,1.2688,1.2816,1.3988,1.6716,1.698,1.763,1.9078,1.9326,1.9597,1.9881,2.0146,2.0406,2.0665,2.2147,2.2819,2.2819,2.5801,2.5667,2.2826,2.4644,2.4001,2.1498,2.1758,2.2017,2.2259,2.2259,2.2259,2.2259,2.2259,2.2259,2.2259,2.2259,2.2259,2.2259,0.7872,0.7872,0.7872,0.7872,0.7872,0.7872,0.7872,0.7872,0.7872,0.7872,0.7872,0.7872,0.7872,0.7872,0.7872,0.7872,0.7872,0.7872,0.7872,0.7872,0.7872,0.7872,0.7872,0.7872,0.7872,0.7872,0.7872,0.7872,0.7872,0.7872,0.7872,0.7872,0.7872,0.7872,0.7872,0.7918,0.8,0.8,0.807,0.8182,0.8182,0.8253,0.8367,0.8405,0.8467,0.8673,0.8706,0.9256,0.9794,0.9794,1.019,1.0721,1.0721,1.0721,1.0721,1.0721,1.0721,1.0721,1.0721,1.0721,1.0721,1.0721,1.0721,1.0721,1.0721,1.0721,1.0721,1.0721,1.0721,1.0721,1.0721,1.0721,1.0721,1.0721,1.0721,1.0721,1.0721,1.0721,1.0721,1.0721,1.0721,1.085,1.1244,1.2161,1.36,1.5429,1.7378,1.8758,1.9338,1.9609,1.9881,2.0152,2.0412,2.0593,2.0665,2.2147,2.2819,2.2819,2.3631,2.3631,2.2839,2.2665,2.2243,2.1504,2.1951,2.2192,2.2259,2.2259,2.2259,2.2259,2.2259,2.2259,2.2259,2.2259,2.2259,2.2259,0.7627,0.775,0.7872,0.7872,0.7872,0.7872,0.7872,0.7872,0.7872,0.7872,0.7872,0.7872,0.7872,0.7872,0.7872,0.7872,0.7872,0.7872,0.7872,0.7872,0.7872,0.7872,0.7872,0.7872,0.7872,0.7872,0.7872,0.7872,0.7872,0.7872,0.7872,0.7872,0.7896,0.7943,0.7943,0.8011,0.8125,0.8125,0.8195,0.8307,0.8307,0.8378,0.8484,0.8484,0.8527,0.8587,0.8587,0.8989,0.9525,0.9661,1.0193,1.0721,1.0721,1.0721,1.0721,1.0721,1.0721,1.0721,1.0721,1.0721,1.0721,1.0721,1.0721,1.0721,1.0721,1.0721,1.0721,1.0721,1.0721,1.0721,1.0721,1.0721,1.0721,1.0721,1.0721,1.0721,1.0721,1.0721,1.0721,1.0721,1.0721,1.0721,1.0721,1.1508,1.2557,1.3993,1.6817,1.8511,1.8667,1.956,2.0116,2.0273,2.0533,2.0665,2.0665,2.1477,2.2284,2.2819,2.2819,2.2819,2.2839,2.2473,2.2038,2.151,2.2036,2.2259,2.2259,2.2259,2.2259,2.2259,2.2259,2.2259,2.2259,2.2259,2.2259,2.2259,0.7385,0.763,0.7872,0.7872,0.7872,0.7872,0.7872,0.7872,0.7872,0.7872,0.7872,0.7872,0.7872,0.7872,0.7872,0.7872,0.7872,0.7872,0.7872,0.7872,0.7872,0.7872,0.788,0.7888,0.7888,0.7877,0.7877,0.7888,0.7888,0.7894,0.7902,0.7902,0.7964,0.807,0.807,0.8138,0.8253,0.8253,0.8323,0.8435,0.8435,0.8494,0.8587,0.8587,0.8587,0.8587,0.8587,0.8853,0.9117,0.9525,1.006,1.0588,1.0588,1.0721,1.0721,1.0721,1.0721,1.0721,1.0721,1.0588,1.0585,1.0721,1.0588,1.0585,1.0588,1.0721,1.0721,1.0721,1.0721,1.0721,1.0721,1.0721,1.0721,1.0721,1.0721,1.0721,1.0721,1.0721,1.0721,1.0721,1.0721,1.0721,1.0721,1.085,1.138,1.2704,1.5639,1.7367,1.741,1.9194,2.0285,2.0309,2.0545,2.0665,2.0665,2.0665,2.1339,2.2545,2.2545,2.2545,2.2572,2.3166,2.2736,2.151,2.2036,2.2259,2.2259,2.2259,2.2259,2.2259,2.2259,2.2259,2.2259,2.2259,2.2259,2.2259,0.7385,0.763,0.7872,0.7872,0.7872,0.7872,0.7872,0.7872,0.7872,0.7872,0.7872,0.7872,0.7872,0.7872,0.7872,0.7872,0.7872,0.7872,0.7872,0.7872,0.7872,0.7872,0.7962,0.8013,0.8013,0.7921,0.7918,0.8013,0.8013,0.8062,0.8157,0.8157,0.8171,0.8195,0.8195,0.8263,0.8378,0.8378,0.8446,0.8552,0.8552,0.8565,0.8587,0.8587,0.8587,0.8587,0.8587,0.8853,0.9117,0.9525,0.9794,0.9927,1.019,1.0323,1.0323,1.0588,1.0721,1.0721,1.0721,0.9915,0.9377,1.0452,0.9915,0.9244,1.0054,1.0455,1.0588,1.0323,1.0455,1.0721,1.0721,1.0721,1.0721,1.0721,1.0721,1.0721,1.0721,1.0721,1.0721,1.0721,1.0721,1.0721,1.0721,1.1637,1.2476,1.2873,1.5717,1.7507,1.7868,1.9374,2.037,2.0575,2.0641,2.0665,2.0665,2.0665,2.0798,2.1207,2.1207,2.1207,2.1226,2.1648,2.1762,2.151,2.2036,2.2259,2.2259,2.2259,2.2259,2.2259,2.2259,2.2259,2.2259,2.2259,2.2259,2.2259,0.7385,0.763,0.7872,0.7872,0.7872,0.7872,0.7872,0.7872,0.7872,0.7872,0.7823,0.779,0.779,0.7739,0.7725,0.7785,0.7839,0.7872,0.7872,0.7926,0.7959,0.7959,0.8076,0.8144,0.8147,0.8084,0.8081,0.8147,0.8155,0.8187,0.8244,0.8244,0.8272,0.8323,0.8323,0.8388,0.8497,0.8497,0.8532,0.8587,0.8587,0.8587,0.8587,0.8587,0.8587,0.8587,0.8587,0.8853,0.9117,0.9389,0.9525,0.9794,0.9927,0.9927,1.006,1.0193,0.9788,0.938,0.938,0.844,0.7905,0.9111,0.8845,0.8709,0.9921,1.0455,1.0588,1.0326,1.0455,1.0721,1.0721,1.0721,1.0721,1.0721,1.0721,1.0721,1.0721,1.0721,1.0721,1.0721,1.0721,1.0721,1.0721,1.1445,1.1922,1.2004,1.4314,1.6011,1.6924,1.8573,1.9825,2.0659,2.0665,2.0665,2.0665,2.0665,2.0665,2.0665,2.0665,2.0665,2.069,2.1233,2.148,2.151,2.2036,2.2259,2.2259,2.2259,2.2259,2.2259,2.2259,2.2259,2.2259,2.2259,2.2259,2.2259,0.7385,0.763,0.7872,0.7872,0.7856,0.7842,0.7842,0.7823,0.7809,0.7809,0.7728,0.7671,0.7671,0.76,0.7608,0.775,0.7847,0.7913,0.7932,0.8027,0.8084,0.8084,0.8201,0.8269,0.8148,0.7647,0.7386,0.7369,0.7384,0.7654,0.7917,0.831,0.8491,0.8448,0.8448,0.85,0.8587,0.8587,0.8587,0.8587,0.8587,0.8587,0.8587,0.8587,0.8587,0.8587,0.8587,0.8717,0.8984,0.8984,0.9256,0.9534,0.9667,0.9531,0.9534,0.967,0.8856,0.7777,0.7507,0.6836,0.6435,0.7643,0.7912,0.8179,0.9658,1.0326,1.0455,1.019,1.0455,1.0721,1.0721,1.0721,1.0721,1.0721,1.0721,1.0721,1.0721,1.0721,1.0721,1.0721,1.0721,1.0731,1.0758,1.0873,1.0968,1.1023,1.262,1.4318,1.5886,1.7457,1.9117,2.0665,2.0665,2.0665,2.0665,2.0665,2.0665,2.0665,2.0665,2.0665,2.069,2.1233,2.148,2.151,2.2036,2.2259,2.2259,2.2259,2.2259,2.2259,2.2259,2.2259,2.2259,2.2259,2.2259,2.2259,0.7385,0.763,0.7872,0.7872,0.7788,0.7725,0.7725,0.7633,0.7568,0.7568,0.7551,0.7543,0.7543,0.7622,0.7766,0.7989,0.8019,0.8073,0.8179,0.8201,0.8209,0.8209,0.8329,0.8399,0.8407,0.5971,0.4644,0.446,0.4461,0.5014,0.6137,0.7754,0.8565,0.8565,0.8565,0.8573,0.8587,0.8587,0.8587,0.8587,0.8587,0.8587,0.8587,0.8587,0.8587,0.8587,0.8587,0.8587,0.872,0.872,0.8731,0.8879,0.9279,0.9012,0.8881,0.9564,0.8611,0.6982,0.5765,0.5233,0.5644,0.7393,0.7252,0.7114,0.9006,0.9803,1.0193,0.9794,1.0326,1.0721,1.0721,1.0721,1.0721,1.0721,1.0721,1.0721,1.0721,1.0721,1.0721,1.0721,1.0721,1.0772,1.0904,1.0938,1.1053,1.1311,1.2753,1.4373,1.5939,1.7539,1.9117,2.0665,2.0665,2.0665,2.0665,2.0665,2.0665,2.0665,2.0665,2.0665,2.069,2.1233,2.148,2.151,2.2036,2.2259,2.2259,2.2259,2.2259,2.2259,2.2259,2.2259,2.2259,2.2259,2.2259,2.2259,0.7548,0.7656,0.7755,0.7687,0.7633,0.76,0.76,0.7554,0.7519,0.7519,0.7459,0.7467,0.7606,0.7788,0.794,0.8046,0.8117,0.8179,0.8231,0.8304,0.8345,0.8345,0.8467,0.8543,0.8557,0.7257,0.6585,0.655,0.3333,0.2003,0.255,0.6723,0.8614,0.8603,0.8592,0.8587,0.8587,0.8587,0.8587,0.8587,0.8587,0.8587,0.8587,0.8587,0.8587,0.8595,0.8666,0.8734,0.8791,0.8791,0.8796,0.8793,0.9008,0.8853,0.8431,0.7141,0.6183,0.5513,0.5243,0.4304,0.3498,0.403,0.443,0.5501,0.8339,0.9267,0.9655,0.9661,1.019,1.0721,1.0721,1.0721,1.0721,1.0721,1.0721,1.0721,1.0721,1.0721,1.0751,1.0836,1.085,1.0904,1.1053,1.1145,1.125,1.1382,1.2172,1.3235,1.472,1.6277,1.7835,1.9396,2.0243,2.0665,2.0665,2.0665,2.0665,2.0665,2.0665,2.0665,2.0684,2.107,2.1329,2.1498,2.1879,2.2126,2.2259,2.2259,2.2259,2.2259,2.2259,2.2259,2.2259,2.2259,2.2259,2.2259]}]]